[[{"header":{"parameterUnit":"m.s-1","parameterCategory":1,"la1":30.6,"la2":28.766,"lo1":-90.7593,"lo2":-88.6598,"dx":0.0162,"dy":0.0183,"nx":116,"ny":114,"refTime":"2023-01-06T06:00:00:Z","depth":0,"parameterNumber":2,"parameterNumberName":"U-component_of_WINDS"},"data":[0.0,0.0,0.0,0.0,0.0,0.0,0.0,0.0,0.0,0.0,0.0,0.0,0.0,0.0,0.0,0.0,0.0,0.0,0.0,0.0,0.0,0.0,0.0,0.0,0.0,0.0,0.0,0.0,0.0,0.0,0.0,0.0,0.0,0.0,0.0,0.0,0.0,0.0,0.0,0.0,0.0,0.0,0.0,0.0,0.0,0.0,0.0,0.0,0.0,0.0,0.0,0.0,0.0,0.0,0.0,0.0,0.0,0.0,0.0,0.0,0.0,0.0,0.0,0.0,0.0,0.0,0.0,0.0,0.0,0.0,0.0,0.0,0.0,0.0,0.0,0.0,0.0,0.0,0.0,0.0,0.0,0.0,0.0,0.0,0.0,0.0,0.0,0.0,0.0,0.0,0.0,0.0,0.0,0.0,0.0,0.0,0.0,0.0,0.0,0.0,0.0,0.0,0.0,0.0,0.0,0.0,0.0,0.0,0.0,0.0,0.0,0.0,0.0,0.0,0.0,0.0,0.0,0.0,0.0,0.0,0.0,0.0,0.0,0.0,0.0,0.0,0.0,0.0,0.0,0.0,0.0,0.0,0.0,0.0,0.0,0.0,0.0,0.0,0.0,0.0,0.0,0.0,0.0,0.0,0.0,0.0,0.0,0.0,0.0,0.0,0.0,0.0,0.0,0.0,0.0,0.0,0.0,0.0,0.0,0.0,0.0,0.0,0.0,0.0,0.0,0.0,0.0,0.0,0.0,0.0,0.0,0.0,0.0,0.0,0.0,0.0,0.0,0.0,0.0,0.0,0.0,0.0,0.0,0.0,0.0,0.0,0.0,0.0,0.0,0.0,0.0,0.0,0.0,0.0,0.0,0.0,0.0,0.0,0.0,0.0,0.0,0.0,0.0,0.0,0.0,0.0,0.0,0.0,0.0,0.0,0.0,0.0,0.0,0.0,0.0,0.0,0.0,0.0,0.0,0.0,0.0,0.0,0.0,0.0,0.0,0.0,0.0,0.0,0.0,0.0,0.0,0.0,0.0,0.0,0.0,0.0,0.0,0.0,0.0,0.0,0.0,0.0,0.0,0.0,0.0,0.0,0.0,0.0,0.0,0.0,0.0,0.0,0.0,0.0,0.0,0.0,0.0,0.0,0.0,0.0,0.0,0.0,0.0,0.0,0.0,0.0,0.0,0.0,0.0,0.0,0.0,0.0,0.0,0.0,0.0,0.0,0.0,0.0,0.0,0.0,0.0,0.0,0.0,0.0,0.0,0.0,0.0,0.0,0.0,0.0,0.0,0.0,0.0,0.0,0.0,0.0,0.0,0.0,0.0,0.0,0.0,0.0,0.0,0.0,0.0,0.0,0.0,0.0,0.0,0.0,0.0,0.0,0.0,0.0,0.0,0.0,0.0,0.0,0.0,0.0,0.0,0.0,0.0,0.0,0.0,0.0,0.0,0.0,0.0,0.0,0.0,0.0,0.0,0.0,0.0,0.0,0.0,0.0,0.0,0.0,0.0,0.0,0.0,0.0,0.0,0.0,0.0,0.0,0.0,0.0,0.0,0.0,0.0,0.0,0.0,0.0,0.0,0.0,0.0,0.0,0.0,0.0,0.0,0.0,0.0,0.0,0.0,0.0,0.0,0.0,0.0,0.0,0.0,0.0,0.0,0.0,0.0,0.0,0.0,0.0,0.0,0.0,0.0,0.0,0.0,0.0,0.0,0.0,0.0,0.0,0.0,0.0,0.0,0.0,0.0,0.0,0.0,0.0,0.0,0.0,0.0,0.0,0.0,0.0,0.0,0.0,0.0,0.0,0.0,0.0,0.0,0.0,0.0,0.0,0.0,0.0,0.0,0.0,0.0,0.0,0.0,0.0,0.0,0.0,0.0,0.0,0.0,0.0,0.0,0.0,0.0,0.0,0.0,0.0,0.0,0.0,0.0,0.0,0.0,0.0,0.0,0.0,0.0,0.0,0.0,0.0,0.0,0.0,0.0,0.0,0.0,0.0,0.0,0.0,0.0,0.0,0.0,0.0,0.0,0.0,0.0,0.0,0.0,0.0,0.0,0.0,0.0,0.0,0.0,0.0,0.0,0.0,0.0,0.0,0.0,0.0,0.0,0.0,0.0,0.0,0.0,0.0,0.0,0.0,0.0,0.0,0.0,0.0,0.0,0.0,0.0,0.0,0.0,0.0,0.0,0.0,0.0,0.0,0.0,0.0,0.0,0.0,0.0,0.0,0.0,0.0,0.0,0.0,0.0,0.0,0.0,0.0,0.0,0.0,0.0,0.0,0.0,0.0,0.0,0.0,0.0,0.0,0.0,0.0,0.0,0.0,0.0,0.0,0.0,0.0,0.0,0.0,0.0,0.0,0.0,0.0,0.0,0.0,0.0,0.0,0.0,0.0,0.0,0.0,0.0,0.0,0.0,0.0,0.0,0.0,0.0,0.0,0.0,0.0,0.0,0.0,0.0,0.0,0.0,0.0,0.0,0.0,0.0,0.0,0.0,0.0,0.0,0.0,0.0,0.0,0.0,0.0,0.0,0.0,0.0,0.0,0.0,0.0,0.0,0.0,0.0,0.0,0.0,0.0,0.0,0.0,0.0,0.0,0.0,0.0,0.0,0.0,0.0,0.0,0.0,0.0,0.0,0.0,0.0,0.0,0.0,0.0,0.0,0.0,0.0,0.0,0.0,0.0,0.0,0.0,0.0,0.0,0.0,0.0,0.0,0.0,0.0,0.0,0.0,0.0,0.0,0.0,0.0,0.0,0.0,0.0,0.0,0.0,0.0,0.0,0.0,0.0,0.0,0.0,0.0,0.0,0.0,0.0,0.0,0.0,0.0,0.0,0.0,0.0,0.0,0.0,0.0,0.0,0.0,0.0,0.0,0.0,0.0,0.0,0.0,0.0,0.0,0.0,0.0,0.0,0.0,0.0,0.0,0.0,0.0,0.0,0.0,0.0,0.0,0.0,0.0,0.0,0.0,0.0,0.0,0.0,0.0,0.0,0.0,0.0,0.0,0.0,0.0,0.0,0.0,0.0,0.0,0.0,0.0,0.0,0.0,0.0,0.0,0.0,0.0,0.0,0.0,0.0,0.0,0.0,0.0,0.0,0.0,0.0,0.0,0.0,0.0,0.0,0.0,0.0,0.0,0.0,0.0,0.0,0.0,0.0,0.0,0.0,0.0,0.0,0.0,0.0,0.0,0.0,0.0,0.0,0.0,0.0,0.0,0.0,0.0,0.0,0.0,0.0,0.0,0.0,0.0,0.0,0.0,0.0,0.0,0.0,0.0,0.0,0.0,0.0,0.0,0.0,0.0,0.0,0.0,0.0,0.0,0.0,0.0,0.0,0.0,0.0,0.0,0.0,0.0,0.0,0.0,0.0,0.0,0.0,0.0,0.0,0.0,0.0,0.0,0.0,0.0,0.0,0.0,0.0,0.0,0.0,0.0,0.0,0.0,0.0,0.0,0.0,0.0,0.0,0.0,0.0,0.0,0.0,0.0,0.0,0.0,0.0,0.0,0.0,0.0,0.0,0.0,0.0,0.0,0.0,0.0,0.0,0.0,0.0,0.0,0.0,0.0,0.0,0.0,0.0,0.0,0.0,0.0,0.0,0.0,0.0,0.0,0.0,0.0,0.0,0.0,0.0,0.0,0.0,0.0,0.0,0.0,0.0,0.0,0.0,0.0,0.0,0.0,0.0,0.0,0.0,0.0,0.0,0.0,0.0,0.0,0.0,0.0,0.0,0.0,0.0,0.0,0.0,0.0,0.0,0.0,0.0,0.0,0.0,0.0,0.0,0.0,0.0,0.0,0.0,0.0,0.0,0.0,0.0,0.0,0.0,0.0,0.0,0.0,0.0,0.0,0.0,0.0,0.0,0.0,0.0,0.0,0.0,0.0,0.0,0.0,0.0,0.0,0.0,0.0,0.0,0.0,0.0,0.0,0.0,0.0,0.0,0.0,0.0,0.0,0.0,0.0,0.0,0.0,0.0,0.0,0.0,0.0,0.0,0.0,0.0,0.0,0.0,0.0,0.0,0.0,0.0,0.0,0.0,0.0,0.0,0.0,0.0,0.0,0.0,0.0,0.0,0.0,0.0,0.0,0.0,0.0,0.0,0.0,0.0,0.0,0.0,0.0,0.0,0.0,0.0,0.0,0.0,0.0,0.0,0.0,0.0,0.0,0.0,0.0,0.0,0.0,0.0,0.0,0.0,0.0,0.0,0.0,0.0,0.0,0.0,0.0,0.0,0.0,0.0,0.0,0.0,0.0,0.0,0.0,0.0,0.0,0.0,0.0,0.0,0.0,0.0,0.0,0.0,0.0,0.0,0.0,0.0,0.0,0.0,0.0,0.0,0.0,0.0,0.0,0.0,0.0,0.0,0.0,0.0,0.0,0.0,0.0,0.0,0.0,0.0,0.0,0.0,0.0,0.0,0.0,0.0,0.0,0.0,0.0,0.0,0.0,0.0,0.0,0.0,0.0,0.0,0.0,0.0,0.0,0.0,0.0,0.0,0.0,0.0,0.0,0.0,0.0,0.0,0.0,0.0,0.0,0.0,0.0,0.0,0.0,0.0,0.0,0.0,0.0,0.0,0.0,0.0,0.0,0.0,0.0,0.0,0.0,0.0,0.0,0.0,0.0,0.0,0.0,0.0,0.0,0.0,0.0,0.0,0.0,0.0,0.0,0.0,0.0,0.0,0.0,0.0,0.0,0.0,0.0,0.0,0.0,0.0,0.0,0.0,0.0,0.0,0.0,0.0,0.0,0.0,0.0,0.0,0.0,0.0,0.0,0.0,0.0,0.0,0.0,0.0,0.0,0.0,0.0,0.0,0.0,0.0,0.0,0.0,0.0,0.0,0.0,0.0,0.0,0.0,0.0,0.0,0.0,0.0,0.0,0.0,0.0,0.0,0.0,0.0,0.0,0.0,0.0,0.0,0.0,0.0,0.0,0.0,0.0,0.0,0.0,0.0,0.0,0.0,0.0,0.0,0.0,0.0,0.0,0.0,0.0,0.0,0.0,0.0,0.0,0.0,0.0,0.0,0.0,0.0,0.0,0.0,0.0,0.0,0.0,0.0,0.0,0.0,0.0,0.0,0.0,0.0,0.0,0.0,0.0,0.0,0.0,0.0,0.0,0.0,0.0,0.0,0.0,0.0,0.0,0.0,0.0,0.0,0.0,0.0,0.0,0.0,0.0,0.0,0.0,0.0,0.0,0.0,0.0,0.0,0.0,0.0,0.0,0.0,0.0,0.0,0.0,0.0,0.0,0.0,0.0,0.0,0.0,0.0,0.0,0.0,0.0,0.0,0.0,0.0,0.0,0.0,0.0,0.0,0.0,0.0,0.0,0.0,0.0,0.0,0.0,0.0,0.0,0.0,0.0,0.0,0.0,0.0,0.0,0.0,0.0,0.0,0.0,0.0,0.0,0.0,0.0,0.0,0.0,0.0,0.0,0.0,0.0,0.0,0.0,0.0,0.0,0.0,0.0,0.0,0.0,0.0,0.0,0.0,0.0,0.0,0.0,0.0,0.0,0.0,0.0,0.0,0.0,0.0,0.0,0.0,0.0,0.0,0.0,0.0,0.0,0.0,0.0,0.0,0.0,0.0,0.0,0.0,0.0,0.0,0.0,0.0,0.0,0.0,0.0,0.0,0.0,0.0,0.0,0.0,0.0,0.0,0.0,0.0,0.0,0.0,0.0,0.0,0.0,0.0,0.0,0.0,0.0,0.0,0.0,0.0,0.0,0.0,0.0,0.0,0.0,0.0,0.0,0.0,0.0,0.0,0.0,0.0,0.0,0.0,0.0,0.0,0.0,0.0,0.0,0.0,0.0,0.0,0.0,0.0,0.0,0.0,0.0,0.0,0.0,0.0,0.0,0.0,0.0,0.0,0.0,0.0,0.0,0.0,0.0,0.0,0.0,0.0,0.0,0.0,0.0,0.0,0.0,0.0,0.0,0.0,0.0,0.0,0.0,0.0,0.0,0.0,0.0,0.0,0.0,0.0,0.0,0.0,0.0,0.0,0.0,0.0,0.0,0.0,0.0,0.0,0.0,0.0,0.0,0.0,0.0,0.0,0.0,0.0,0.0,0.0,0.0,0.0,-0.8514,-0.4889,0.0,0.0,0.0,0.0,0.0,0.0,0.0,0.0,0.0,0.0,0.0,0.0,0.0,0.0,0.0,0.0,0.0,0.0,0.0,0.0,0.0,0.0,0.0,1.0664,1.0742,1.0352,1.0664,0.0,0.0,0.0,0.0,0.0,0.0,0.0,0.0,0.0,1.1219,1.2046,1.3374,1.5167,1.7311,1.6283,1.4879,1.3177,0.0,0.0,0.0,0.0,0.0,0.0,0.0,0.0,0.0,0.0,0.0,0.0,0.0,0.0,0.0,0.0,0.0,0.0,0.0,0.0,0.0,0.0,0.0,0.0,0.0,0.0,0.0,0.0,0.0,0.0,0.0,0.0,0.0,0.0,0.0,0.0,0.0,0.0,0.0,0.0,0.0,0.0,0.0,0.0,0.0,0.0,0.0,0.0,0.0,0.0,0.0,0.0,0.0,0.0,0.0,0.0,0.0,0.0,0.0,0.0,0.0,0.0,0.0,0.0,0.0,0.0,0.0,0.0,0.0,0.0,-1.3661,-0.9868,0.0,0.0,0.0,0.0,0.0,0.0,0.0,0.0,0.0,0.0,0.0,0.0,0.0,0.0,0.0,0.0,0.0,0.0,0.0,0.0,0.0,1.0586,1.0742,1.1523,1.1797,1.125,1.1719,1.168,1.082,1.0625,0.0,0.0,0.0,0.0,0.0,1.1205,1.2541,1.428,1.6901,1.94,2.1792,2.2489,2.1295,1.8461,1.6337,0.0,0.0,0.0,0.0,0.0,0.0,0.0,0.0,0.0,0.0,0.0,0.0,0.0,0.0,0.0,0.0,0.0,0.0,0.0,0.0,0.0,0.0,0.0,0.0,0.0,0.0,0.0,0.0,0.0,0.0,0.0,0.0,0.0,0.0,0.0,0.0,0.0,0.0,0.0,0.0,0.0,0.0,0.0,0.0,0.0,0.0,0.0,0.0,0.0,0.0,0.0,0.0,0.0,0.0,0.0,0.0,0.0,0.0,0.0,0.0,0.0,0.0,0.0,-2.4021,-2.3896,-2.2926,-2.3066,-2.2366,-2.1064,-2.0201,-1.674,-1.1591,-1.0383,0.0,0.0,0.0,0.0,0.0,0.0,0.0,0.0,0.0,0.0,0.0,0.0,0.0,0.0,0.0,0.0,0.0,0.0,0.0,1.1719,1.2461,1.3281,1.4023,1.4687,1.4141,1.3437,1.2617,1.1836,0.0,0.0,0.0,0.0,1.0206,1.1748,1.3485,1.5388,2.0941,2.4222,2.5359,2.6149,2.6564,2.6591,2.2597,2.0287,1.9199,0.0,0.0,0.0,0.0,0.0,0.0,0.0,0.0,0.0,0.0,0.0,0.0,0.0,0.0,0.0,0.0,0.0,0.0,0.0,0.0,0.0,0.0,0.0,0.0,0.0,0.0,0.0,0.0,0.0,0.0,0.0,0.0,0.0,0.0,0.0,0.0,0.0,0.0,0.0,0.0,0.0,-1.4148,-1.9417,0.0,0.0,0.0,0.0,0.0,0.0,0.0,0.0,0.0,0.0,0.0,0.0,0.0,-2.5123,-2.3899,-2.5285,-2.5036,-2.3355,-2.7621,-2.9103,-2.8046,-3.1291,-3.1565,-2.9395,-2.8684,0.0,-1.5656,-1.2111,0.0,0.0,0.0,0.0,0.0,0.0,0.0,0.0,0.0,0.0,0.0,0.0,0.0,0.0,0.0,0.0,0.0,0.0,0.0,0.0,0.0,1.5989,1.7277,1.7629,1.8274,1.7633,1.5238,1.4294,0.0,0.0,0.0,1.0411,1.0933,1.3607,1.7165,2.1562,2.4672,2.6988,2.8405,2.9154,2.9939,3.0635,2.8757,2.6185,2.3034,1.9758,0.0,0.0,0.0,0.0,0.0,0.0,0.0,0.0,0.0,0.0,0.0,0.0,0.0,0.0,0.0,0.0,0.0,0.0,0.0,0.0,0.0,0.0,0.0,0.0,0.0,0.0,0.0,0.0,0.0,0.0,0.0,0.0,0.0,0.0,0.0,0.0,0.0,0.0,0.0,-1.2717,-1.5418,-2.0877,-1.9279,-1.7016,0.0,0.0,0.0,0.0,0.0,0.0,0.0,0.0,0.0,-2.3516,-2.8007,-3.0149,-2.9502,-3.2177,-3.2925,-3.1811,-3.3498,-3.3919,-3.3117,-3.3761,-3.294,-3.0947,-2.9918,-2.6703,-2.1847,-1.7585,-1.3829,-1.0693,0.0,0.0,0.0,0.0,-0.6968,-0.6576,0.0,0.0,0.0,0.0,0.0,0.0,0.0,0.0,0.0,0.0,0.0,0.0,1.6754,1.9426,2.1206,2.1369,2.229,2.1491,1.8315,1.6731,1.4875,1.2574,1.1192,1.1103,1.2426,1.6424,2.102,2.6206,2.7261,2.8568,2.9964,3.0482,3.1157,3.1926,3.1732,2.989,2.6724,2.3622,2.0949,1.8656,0.0,0.0,0.0,0.0,0.0,0.0,0.0,0.0,0.0,0.0,0.0,0.0,0.0,0.0,0.0,0.0,0.0,0.0,0.0,0.0,0.0,0.0,0.0,0.0,0.0,0.0,0.0,0.0,0.0,0.0,0.0,0.0,0.0,0.0,0.0,0.0,0.0,-1.7481,-1.904,-2.1683,-2.2527,-2.1723,0.0,0.0,0.0,0.0,0.0,0.0,-2.3709,-2.7408,-2.9365,-2.8986,-3.2989,-3.5042,-3.4895,-3.7765,-3.8961,-3.8365,-3.7578,-3.6904,-3.6333,-3.443,-3.2761,-3.1261,-2.97,-2.8198,-2.6477,-2.1658,-1.7423,-1.3819,-1.2764,-1.2142,-1.1689,-1.116,-1.0726,-1.0132,0.0,0.0,0.0,0.0,0.0,0.0,0.0,0.0,0.0,0.0,0.0,1.953,2.1208,2.3841,2.5828,2.6635,2.5464,2.3809,2.1791,1.8559,1.6262,1.5143,1.2684,1.2506,1.4942,2.0288,2.4106,2.6213,2.8017,2.8955,2.9066,2.9129,2.9482,3.0069,2.9482,2.9812,3.066,2.7975,2.6274,2.488,1.9632,0.0,0.0,0.0,0.0,0.0,0.0,0.0,0.0,0.0,0.0,0.0,0.0,0.0,0.0,0.0,0.0,0.0,0.0,0.0,0.0,0.0,0.0,0.0,0.0,0.0,0.0,0.0,0.0,0.0,0.0,0.0,0.0,0.0,0.0,0.0,0.0,0.0,0.0,-2.6438,-2.7967,0.0,0.0,0.0,0.0,-2.8591,-2.8657,-2.8783,-2.9434,-3.287,-3.4648,-3.432,-3.8214,-4.013,-3.9756,-3.9618,-3.92,-3.8365,-3.7578,-3.6904,-3.6333,-3.443,-3.3087,-3.2129,-2.9943,-2.8532,-2.7429,-2.1958,-1.9437,-1.8526,-1.418,-1.2397,-1.2315,-1.2833,-1.2375,-1.1426,0.0,0.0,0.0,1.0312,1.0312,1.0312,1.0312,1.1055,1.1892,1.2673,1.7022,2.0479,2.1703,2.5728,2.8544,2.8909,2.9064,2.806,2.5613,2.2168,2.0029,1.9573,1.6439,1.6915,2.1725,2.3644,2.5847,2.8266,2.8369,2.8523,2.8705,2.8705,2.8947,2.9358,2.9101,2.9274,2.9633,2.8071,2.6482,2.4838,2.1802,1.865,0.0,0.0,0.0,0.0,0.0,0.0,0.0,0.0,0.0,0.0,0.0,0.0,0.0,0.0,0.0,0.0,0.0,0.0,0.0,0.0,0.0,0.0,0.0,0.0,0.0,0.0,0.0,0.0,0.0,0.0,0.0,0.0,0.0,0.0,0.0,0.0,0.0,-2.9671,-3.2258,0.0,-2.8471,-2.7731,-2.809,-2.9435,-3.1448,-3.2766,-3.3037,-3.6723,-3.8795,-3.8762,-4.0001,-4.0642,-4.0482,-4.0418,-4.0228,-3.9933,-3.959,-3.9317,-3.9028,-3.7166,-3.5799,-3.4837,-3.2413,-3.0848,-2.977,-2.5724,-2.3651,-2.2709,-2.0286,-1.9304,-1.9134,-1.7763,-1.7028,-1.645,0.0,0.0,0.0,1.0312,1.0312,1.0312,1.0312,1.1277,1.2702,1.468,1.898,2.2617,2.4675,2.8379,3.0782,3.0858,3.1274,3.0426,2.7879,2.4743,2.2718,2.2213,2.015,2.0993,2.5357,2.5911,2.705,2.8983,2.8388,2.8015,2.7799,2.7971,2.7867,2.7359,2.7537,2.7657,2.7565,2.6582,2.6088,2.5807,2.3446,2.0684,1.7713,0.0,0.0,0.0,0.0,0.0,0.0,0.0,0.0,0.0,0.0,0.0,0.0,0.0,0.0,0.0,0.0,0.0,0.0,0.0,0.0,0.0,0.0,0.0,0.0,0.0,0.0,0.0,0.0,0.0,0.0,0.0,0.0,0.0,0.0,0.0,-2.7433,-3.1639,-3.4446,-3.5059,-3.2616,-3.207,-3.2277,-3.3242,-3.5467,-3.6914,-3.7258,-3.9844,-4.1445,-4.1782,-4.1684,-4.1729,-4.1981,-4.1877,-4.194,-4.2059,-4.1468,-4.1126,-4.0941,-3.8791,-3.7494,-3.6808,-3.3869,-3.2482,-3.2049,-2.8397,-2.6731,-2.6281,-2.4062,-2.3144,-2.2882,-2.1013,-1.9954,-1.9358,0.0,0.0,1.0312,1.0312,1.0312,1.0312,1.0312,1.1735,1.4333,1.8516,2.2264,2.6147,3.0297,3.1871,3.2602,3.2602,3.191,3.067,2.8592,2.6083,2.4136,2.291,2.3656,2.4507,2.5431,2.702,2.7994,2.8147,2.8074,2.7533,2.651,2.7065,2.6166,2.4243,2.4725,2.4945,2.485,2.3795,2.5265,2.7958,2.4481,2.2954,2.2374,0.0,0.0,0.0,0.0,0.0,0.0,0.0,0.0,0.0,0.0,0.0,0.0,0.0,0.0,0.0,0.0,0.0,0.0,0.0,0.0,0.0,0.0,0.0,0.0,0.0,0.0,0.0,0.0,0.0,0.0,0.0,0.0,0.0,-1.7436,-2.819,-3.5037,-3.2576,-3.4726,-3.6289,-3.5935,-3.6126,-3.7549,-4.0626,-4.0882,-4.1232,-4.2088,-4.2265,-4.2672,-4.3436,-4.3451,-4.3802,-4.455,-4.4152,-4.4182,-4.4636,-4.3201,-4.2279,-4.1831,-3.9176,-3.795,-3.7743,-3.4216,-3.3321,-3.4017,-2.9582,-2.8433,-2.9034,-2.4921,-2.3242,-2.3086,-2.2117,-2.0933,-1.9557,1.0312,1.0312,1.0312,1.0312,1.0312,1.0312,1.0312,1.2273,1.4839,1.7849,2.2407,2.633,2.8845,3.1195,3.2382,3.1853,3.2075,3.1481,2.9686,2.747,2.5738,2.457,2.6905,2.8336,2.8612,2.9038,2.9292,2.9327,2.8484,2.7723,2.7032,2.6403,2.5401,2.4189,2.4356,2.4232,2.3722,2.113,2.1049,2.2564,2.2094,2.1529,2.0557,0.0,0.0,0.0,0.0,0.0,0.0,0.0,0.0,0.0,0.0,0.0,0.0,0.0,0.0,0.0,0.0,0.0,0.0,0.0,0.0,0.0,0.0,0.0,0.0,0.0,0.0,0.0,0.0,0.0,0.0,0.0,-1.9408,-2.5286,-2.9281,-3.2862,-3.5936,-3.8248,-3.9117,-3.9691,-4.0206,-4.0335,-4.0964,-4.2367,-4.2469,-4.2601,-4.2881,-4.3022,-4.3506,-4.4387,-4.4367,-4.4733,-4.5522,-4.536,-4.5318,-4.5477,-4.526,-4.4856,-4.4198,-4.2332,-4.1253,-4.0642,-3.6823,-3.5411,-3.5295,-3.0763,-2.9149,-2.9076,-2.6121,-2.5019,-2.4735,-2.2558,-2.0216,-1.8133,1.0352,1.0586,1.0742,1.0352,1.0312,1.043,1.0781,1.2671,1.5524,1.9598,2.3095,2.6526,2.9858,3.1384,3.1823,3.1073,3.1602,3.0873,2.8446,2.6957,2.632,2.6639,2.8438,2.9512,2.9835,2.9799,2.9804,2.9804,2.8688,2.7702,2.692,2.6052,2.4588,2.2755,2.2856,2.2226,2.0857,1.8443,1.7734,1.8089,1.708,1.7171,1.7745,1.6002,1.3381,1.0089,0.6224,0.3257,0.1234,0.1773,0.0,0.0,0.0,0.0,0.0,0.0,0.0,0.0,0.0,0.0,0.0,0.0,0.0,0.0,0.0,0.0,0.0,0.0,0.0,0.0,0.0,0.0,0.0,0.0,-2.5532,-3.1821,-3.6573,-3.7251,-3.818,-4.0584,-4.1072,-4.1403,-4.1879,-4.2251,-4.2633,-4.3063,-4.3085,-4.3404,-4.4167,-4.4383,-4.5056,-4.6313,-4.63,-4.6697,-4.7553,-4.7376,-4.734,-4.7363,-4.6948,-4.6398,-4.5647,-4.3494,-4.2328,-4.1788,-3.7866,-3.6212,-3.5867,-3.128,-2.9396,-2.912,0.0,0.0,0.0,0.0,-1.9922,-1.7582,1.0742,1.1211,1.1484,1.0742,1.0586,1.0859,1.1641,1.3204,1.6447,2.2452,2.4082,2.6727,3.2048,3.1823,3.1102,3.0329,3.0824,2.9826,2.6619,2.5878,2.6516,2.8615,2.8781,2.908,2.9574,2.9624,2.9546,2.9468,2.8267,2.7279,2.6295,2.5606,2.368,2.0688,2.0888,1.9651,1.7268,1.5846,1.497,1.4295,1.0976,1.1611,1.4422,1.2913,1.1076,0.8695,0.47,0.2067,-0.0068,-0.382,0.0,0.0,0.0,0.0,0.0,0.0,0.0,0.0,0.0,0.0,0.0,0.0,0.0,0.0,0.0,0.0,0.0,0.0,0.0,0.0,0.0,0.0,0.0,0.0,-3.1675,-3.6753,-4.04,-4.0956,-4.0897,-4.0858,-4.1609,-4.211,-4.2101,-4.2777,-4.3278,-4.3355,-4.347,-4.4162,-4.5663,-4.6096,0.0,0.0,0.0,-4.907,-4.9956,-4.9644,-4.9503,-4.9475,-4.8336,-4.7316,-4.6459,-4.3606,-4.2302,-4.2011,-3.8069,-3.6405,-3.6058,-3.1448,-2.939,-2.8927,-2.6613,-2.5528,-2.4922,-2.2567,-1.9922,-1.7582,1.2422,1.2539,1.2617,1.2422,1.2383,1.2461,1.2617,1.4613,1.7794,2.2582,2.4645,2.7405,3.208,3.1392,3.045,3.0329,3.0745,3.056,2.9435,2.8535,2.8248,2.8693,2.9231,2.9252,2.8426,2.8426,2.8028,2.7139,2.6047,2.5357,2.5126,2.4043,2.2515,2.0688,2.0455,1.8817,1.6178,1.3847,1.2278,1.1061,0.8384,0.9194,1.1535,0.7703,0.496,0.2473,-0.2423,-0.5878,-0.7978,-0.618,-0.7398,-0.8729,-0.2887,0.1505,0.0,0.0,0.0,0.0,0.0,0.0,0.0,0.0,0.0,0.0,0.0,0.0,0.0,0.0,0.0,0.0,0.0,0.0,0.0,-2.6382,-3.4301,-4.05,-4.1618,-4.1792,-4.1762,-4.1738,-4.243,-4.3134,-4.3739,-4.397,-4.4355,-4.5047,-4.5778,-4.6317,-4.6624,-4.752,-4.8496,-4.9508,-4.955,-4.9956,-5.086,-5.024,-4.9822,-4.9475,-4.8936,0.0,-4.7307,-4.5295,-4.4085,-4.3476,-3.9509,-3.7703,-3.7262,-3.2548,-2.9354,-2.7362,-2.6192,-2.4393,-2.2366,-2.1845,-1.9922,-1.7582,1.4062,1.3789,1.3359,1.2969,1.2891,1.3043,1.3423,1.4889,1.7369,2.1369,2.3419,2.5689,2.8897,2.8523,2.7767,2.6909,2.6903,2.7462,2.8747,2.8355,2.8428,2.9236,2.9051,2.8688,2.8084,2.7602,2.7035,2.6483,2.5378,2.4787,2.4787,2.2979,2.1478,2.0004,1.8434,1.6287,1.3611,1.0875,0.8949,0.7498,0.4568,0.4272,0.5335,0.3109,0.0678,-0.2269,-0.73,-1.0107,-1.1552,-1.2661,-1.4702,-1.5628,-0.9576,-0.6895,-0.4813,0.0,0.0,0.0,0.0,0.0,0.0,0.0,0.0,0.0,0.0,0.0,0.0,0.0,0.0,-0.9606,0.0,0.0,-2.8612,-3.1699,-3.7185,-4.1302,-4.1934,-4.2405,-4.2564,-4.2288,-4.2814,-4.3594,-4.4614,-4.4913,-4.5566,-4.676,-4.7069,-4.7471,-4.8125,-4.88,-4.9547,-5.0442,-5.0448,-5.0656,-5.1094,-5.1008,-5.0722,-5.0078,-4.9973,-4.9331,-4.8134,-4.5988,-4.436,-4.3012,-3.9542,-3.7729,-3.6855,-3.2604,-2.9048,-2.6172,-2.547,-2.3972,-2.21,-2.137,-1.9802,-1.8036,1.5195,1.4844,1.4141,1.3516,1.3398,1.3618,1.425,1.5056,1.6717,1.9918,2.1789,2.3495,2.5234,2.5413,2.4846,2.3457,2.3358,2.4559,2.7312,2.7767,2.8328,2.9422,2.8585,2.7924,2.7441,2.6625,2.6047,2.5819,2.4681,2.4084,2.4084,2.1975,2.0206,1.8624,1.6281,1.3604,1.06,0.8253,0.6062,0.3886,0.1122,-0.0421,-0.1045,-0.1628,-0.3373,-0.6076,-1.0533,-1.1605,-1.1803,-1.8026,-2.035,-2.0041,-1.6433,-1.5936,-1.4213,-0.1415,-0.1645,0.0,0.0,0.0,0.0,0.0,0.0,0.0,0.0,0.0,-0.7301,-1.6944,-1.8425,-2.0027,-2.6656,-2.9635,-3.2507,-3.6824,-3.9586,-4.1456,-4.2146,-4.2897,-4.325,-4.3042,-4.3502,-4.4245,-4.5156,-4.5835,-4.6716,-4.7894,-4.7924,-4.8384,-4.9586,-5.0041,-5.0675,-5.1561,-5.1584,-5.16,-5.16,-5.1889,-5.1672,-5.0945,-5.0916,-5.02,-4.8947,-4.6286,-4.4292,-4.2694,-3.9747,-3.7464,-3.5567,-3.2672,-2.9208,-2.5649,-2.5023,-2.3917,-2.2493,-2.103,-1.9661,-1.849,1.5078,1.5312,1.5234,1.5156,1.5117,1.5145,1.524,1.5962,1.716,1.9182,2.0888,2.2364,2.3575,2.3685,2.3521,2.3162,2.4307,2.5707,2.7381,2.8784,2.9148,2.8323,2.8187,2.7174,2.5189,2.5041,2.4467,2.3474,2.2277,2.1728,2.164,2.0296,1.8441,1.6074,1.5409,1.2587,0.8166,0.741,0.4563,0.0518,0.0173,-0.1766,-0.4683,-0.7352,-0.8456,-0.8916,-1.1279,-0.9708,-0.7737,-1.6271,-1.6477,-1.438,-2.1585,-1.9907,-1.396,-0.7104,-0.1032,0.4928,1.1693,0.5518,-0.26,-0.1731,-0.79,-1.3271,0.0,0.0,-1.2292,-1.8776,-1.9345,-2.1426,-3.0366,-3.3883,-3.5802,-3.699,-4.0215,-4.2726,-4.3088,-4.3334,-4.3837,-4.4766,-4.5533,-4.5893,-4.5746,-4.6991,-4.7757,-4.7602,-4.8562,-4.9606,-5.051,-5.1477,-5.2417,-5.3273,-5.3302,-5.3312,-5.3312,-5.28,-5.2281,-5.1843,-5.0824,-5.0177,-4.9658,-4.6515,-4.5047,-4.4772,-4.1146,-3.7487,-3.4074,-3.3682,-3.0905,-2.6811,-2.5371,-2.3869,-2.2345,-2.1048,-1.9661,-1.849,1.5156,1.5391,1.5391,1.5391,1.5391,1.5384,1.5338,1.5647,1.6262,1.7497,1.869,1.9596,2.0041,1.9651,1.9519,1.9908,2.1972,2.4028,2.5901,2.7512,2.8306,2.8114,2.6897,2.5753,2.4788,2.3441,2.2522,2.2031,2.0854,1.981,1.9018,1.7857,1.5871,1.3391,1.1692,0.9332,0.6436,0.4142,0.1981,-0.0085,-0.2034,-0.3662,-0.509,-0.8208,-1.0188,-1.1046,-0.9799,-0.8195,0.0,-1.2662,-1.3756,-1.4478,-2.3068,-2.1442,-1.5198,-0.8738,-0.4884,-0.3542,-0.7556,-0.884,-1.0245,-1.5415,-1.9731,-2.2273,-2.0611,-2.0593,-2.3009,-3.03,-3.1468,-3.248,-3.6654,-3.8033,-3.8958,0.0,-4.1601,-4.2723,-4.3324,-4.3882,-4.4375,-4.4841,-4.6613,-4.7747,-4.7604,-4.7965,-4.8862,-5.0342,-5.0723,-5.1291,-5.2105,-5.2718,-5.3234,-5.3584,-5.3614,-5.3584,-5.3584,-5.3648,-5.3582,-5.3396,-5.2939,-5.2154,-5.0962,-4.7834,-4.4382,-4.0701,-3.8415,-3.5695,-3.2814,-3.2642,-2.9996,-2.6131,-2.5211,-2.3386,-2.111,-2.0475,-1.9945,-1.9506,1.5234,1.5391,1.5391,1.5391,1.5385,1.5366,1.5302,1.5289,1.5503,1.608,1.6849,1.7388,1.7381,1.6619,1.656,1.7605,2.0091,2.2406,2.4234,2.6089,2.7079,2.7018,2.5448,2.4429,2.39,2.2127,2.1159,2.0817,1.9206,1.7903,1.6941,1.5006,1.2856,1.0629,0.804,0.5958,0.4035,0.112,-0.0845,-0.2238,-0.4738,-0.6147,-0.7115,-0.9978,-1.1151,-1.1022,-0.8235,-0.6613,-0.6279,-0.8713,-0.9173,-1.0179,-1.8516,-1.8147,-1.3205,-0.6269,-0.3196,-0.4417,-1.5249,-1.6155,-1.6249,-2.5521,-2.9455,-3.1064,-3.1171,-3.1107,-3.2745,-3.874,-4.0152,-4.035,-4.0615,-4.0819,-4.1341,-4.2477,-4.2631,-4.2837,-4.3424,-4.4195,-4.4856,-4.5333,-4.7385,-4.8969,-4.9674,-4.9453,-5.0104,-5.2096,-5.2172,-5.2509,-5.3322,-5.3722,-5.4051,-5.4324,-5.4512,-5.4635,-5.4635,-5.5113,-5.5145,-5.4781,-5.4498,-5.3388,-5.1459,-4.7991,-4.3171,-3.754,-3.6621,-3.4842,-3.242,-3.2086,-2.9488,-2.5555,-2.5291,-2.3322,-2.0468,-2.0468,-2.0374,-2.0227,1.5234,1.5391,1.5391,1.5391,1.5401,1.5371,1.5323,1.5289,1.5272,1.5228,1.5991,1.6522,1.6547,1.576,1.5906,1.7567,1.9985,2.1808,2.2692,2.5063,2.5814,2.4363,2.4219,2.3365,2.1484,2.1328,2.0713,1.9527,1.708,1.5737,1.5467,1.1784,0.93,0.7854,0.541,0.2915,0.0518,-0.0759,-0.3725,-0.7643,-0.7805,-0.9597,-1.2421,-1.4362,-1.2098,-0.768,-0.7317,-0.4796,-0.2056,-0.4953,-0.1458,0.2625,-0.6119,-0.8238,-0.605,0.1313,0.8194,1.1221,0.1126,-0.7275,-1.5507,-2.5434,-3.3611,-3.9346,-3.966,-3.9477,-3.9316,-3.9566,-4.0259,-4.0666,-4.0364,-4.1659,-4.2625,-4.2353,-4.2947,-4.3461,-4.3497,-4.4195,-4.5296,-4.6874,-4.7792,-4.9224,0.0,-5.1852,-5.17,-5.1372,-5.2113,-5.2946,-5.3734,-5.4475,-5.5268,-5.6075,-5.6891,-5.727,-5.727,-5.7434,-5.6898,-5.5731,-5.4647,-5.2927,-5.0584,-4.6092,-4.1599,-3.7512,-3.7405,-3.579,-3.3056,-3.3035,-3.0199,-2.5951,-2.5951,-2.4009,-2.1082,-2.1082,-2.0722,-2.0227,1.5352,1.5391,1.5391,1.5391,1.536,1.5315,1.5313,1.5763,1.608,1.606,1.6765,0.0,0.0,0.0,0.0,0.0,1.9097,2.0756,2.2519,2.3162,2.3694,2.414,2.2645,2.1596,2.1204,1.8945,1.7719,1.7613,1.3637,1.1248,1.0373,0.7521,0.5039,0.2869,0.1355,-0.0994,-0.3984,-0.5004,-0.7111,-0.9787,-1.0413,-1.1291,-1.1931,-0.9259,-0.8168,-0.7122,0.0,0.2509,0.2612,0.0531,0.1303,0.1738,-0.615,-0.5528,-0.0456,0.6882,0.7004,0.2701,-0.6667,-1.4802,-2.3083,-3.3142,-3.7257,-3.8984,-3.964,-3.9687,-3.9613,-3.9565,-3.7,-3.5028,-3.5829,-3.6363,-3.697,-3.7864,-4.1105,-4.3681,-4.4232,-4.5443,-4.6691,-4.7792,-4.9591,0.0,0.0,0.0,0.0,-5.2902,-5.3527,-5.4107,-5.4623,-5.5349,-5.6153,-5.698,-5.7242,-5.767,-5.8254,-5.8124,-5.7558,-5.6548,-5.3732,-5.0819,-4.7856,-4.4966,-4.0874,-3.6054,-3.6054,-3.4403,-3.1652,-3.1652,-2.9356,-2.5984,-2.5984,-2.4039,-2.1109,-2.1109,-2.0989,-2.0815,1.5859,1.5844,1.5925,1.6239,1.6246,0.0,0.0,0.0,0.0,0.0,0.0,0.0,0.0,0.0,0.0,0.0,0.0,1.9915,2.1645,2.1541,2.204,2.3401,2.1764,2.0889,2.1189,1.8668,1.7461,1.7658,1.2654,0.9731,0.8621,0.4039,0.0778,-0.1348,-0.3509,-0.5683,-0.7774,-0.8788,-0.864,-0.7941,-0.9389,-0.8865,-0.6874,-0.4417,-0.3549,0.0,0.3741,0.6564,0.7028,0.5829,0.5469,0.4709,-0.0113,0.1344,0.5165,0.6981,0.3876,-0.2692,-1.4224,-2.0758,-2.6639,-3.633,-3.8423,-3.8265,-3.895,-3.9256,-3.9386,-3.947,-3.5332,-3.2147,-3.3556,-3.3106,-3.2764,-3.3434,-3.7913,-4.1684,-4.2691,-4.4657,-4.6706,-4.8575,-5.068,-5.2004,0.0,0.0,0.0,-5.3528,-5.4153,-5.4609,-5.4848,-5.5961,-5.6834,-5.737,-5.8006,-5.8585,-5.9149,-5.922,-5.8519,-5.6969,-5.2554,-4.9111,-4.6506,-4.3967,-3.9779,-3.4427,-3.4427,-3.2406,-2.9157,-2.9157,-2.7572,-2.513,-2.513,-2.3171,-2.0195,-2.0195,-1.9801,-1.9419,1.6757,1.6715,1.6926,0.0,0.0,0.0,0.0,0.0,0.0,0.0,0.0,0.0,0.0,0.0,0.0,0.0,0.0,0.0,2.0165,2.0211,2.0805,2.2107,2.1476,2.1079,2.1057,2.0236,1.958,1.9242,1.3776,1.09,1.0346,0.202,-0.2588,-0.3862,-0.7966,-0.9776,-0.9921,-1.0947,-0.7971,-0.2845,-0.4995,-0.2916,0.1336,-0.021,0.1533,0.4791,0.4848,0.7518,1.0883,1.0498,1.0559,1.0706,1.0181,1.0349,0.9232,0.1581,-0.1134,-0.5008,-2.0305,-2.4482,-2.6551,-3.5025,-3.7303,-3.7601,-3.8125,-3.864,-3.9012,-3.8969,-3.4856,-3.1589,0.0,0.0,-3.0201,-2.9507,-3.4148,-3.83,-3.9668,-4.2458,-4.5694,0.0,0.0,0.0,0.0,0.0,0.0,-5.3261,-5.4089,-5.456,-5.456,-5.6275,-5.7334,-5.7525,-5.9156,-6.0015,-6.0071,-6.0544,-5.954,-5.7033,-5.1284,-4.7834,-4.6506,-4.2998,-3.8289,-3.2847,-3.2734,-3.0142,-2.6034,-2.6034,-2.5071,-2.3619,-2.3619,-2.1587,-1.8547,-1.8547,-1.7367,-1.6452,0.0,0.0,0.0,0.0,0.0,0.0,0.0,0.0,0.0,0.0,0.0,0.0,0.0,0.0,0.0,0.0,0.0,0.0,1.9265,1.9058,1.9326,2.0315,2.0484,2.0739,2.1011,1.9194,1.8372,1.8559,1.3937,1.1582,1.1307,0.7419,0.5217,0.456,0.2699,0.1323,0.0222,-0.0657,-0.0913,-0.0921,-0.2213,-0.2273,-0.1095,0.3416,0.4745,0.4745,0.9543,1.0879,1.0468,1.0906,0.7326,0.1504,-0.5216,-0.6881,-0.6835,-0.9055,-1.3502,-1.8584,-2.2606,-2.7597,-3.2375,-3.5271,-3.6588,-3.7256,-3.747,-3.8429,-3.8099,-3.3851,-2.8853,-2.4381,0.0,0.0,0.0,-2.7842,-3.6457,0.0,-4.4947,-4.6561,0.0,-5.0325,0.0,-5.1526,-5.2029,-5.2289,0.0,0.0,-5.4874,-5.5384,-5.5384,-5.7159,-5.8537,-5.9316,-5.9777,-6.0327,-6.0978,-5.9063,-5.7773,-5.7033,-5.1284,-4.7834,-4.642,-4.2,-3.7512,-3.3101,-3.1989,-2.9619,-2.6684,-2.6684,-2.5676,-2.4163,-2.4163,-2.2087,-1.8956,-1.8956,-1.7774,-1.6298,0.0,0.0,0.0,0.0,0.0,0.0,0.0,0.0,0.0,0.0,0.0,0.0,0.0,0.0,0.0,0.0,0.0,0.0,0.0,1.8982,1.9203,2.0427,2.0408,2.0621,2.1231,1.9275,1.8948,2.0265,1.4875,1.2515,1.2914,0.8167,0.5519,0.4673,0.33,0.2134,0.1229,0.0821,0.2038,0.0,0.0,0.343,0.6127,0.8837,0.882,0.7816,1.1723,1.0207,0.5788,0.2297,-0.162,-0.5951,-1.1253,-1.2558,-1.282,-1.6275,-2.0217,-2.4068,-2.693,-3.0711,-3.3965,-3.4572,-3.5651,-3.5934,-3.346,-3.4281,-3.3893,-2.7736,-2.2704,-1.8875,-1.7145,-2.0706,-2.422,0.0,0.0,0.0,-4.4706,-4.637,-4.8155,0.0,-5.0854,0.0,-5.1593,-5.1922,-5.2578,0.0,-5.4522,-5.5283,-5.6182,-5.7461,-5.8721,-5.9966,-6.0379,-6.0701,-6.0978,-5.8202,-5.6806,-5.6721,-5.0615,-4.693,-4.5521,-4.0911,-3.6547,-3.2286,-3.095,-2.8659,-2.5817,-2.5046,-2.4157,-2.3392,-2.3392,-2.1134,-1.8072,-1.8072,-1.6375,-1.4262,0.0,0.0,0.0,0.0,0.0,0.0,0.0,0.0,0.0,2.0905,2.0589,2.0312,0.0,0.0,0.0,0.0,0.0,0.0,0.0,0.0,1.9645,2.1105,2.0704,2.0779,2.1474,1.9955,2.0258,2.247,1.6361,1.3947,1.4897,0.7989,0.4114,0.2885,0.1267,0.0408,0.0177,0.0261,0.4151,1.0117,0.814,1.0894,1.5946,0.0,1.2598,1.1777,1.2169,0.7434,-0.0301,-0.8969,-1.2183,-1.2839,-1.4463,-1.4716,-1.5713,-2.2398,-2.4417,-2.5773,-3.1564,-3.3141,-3.3189,-3.3352,-3.4623,-3.434,-2.8502,-2.8918,-2.8482,-2.122,-1.6903,-1.4601,-1.513,-1.8738,-2.1867,-2.2944,0.0,-3.98,-4.2722,-4.4879,-4.7102,-4.9677,-5.05,-5.0947,-5.1211,-5.1701,-5.2426,-5.3435,-5.3753,-5.4717,-5.6804,-5.7683,-5.8745,-6.011,-6.0837,-6.0976,-6.0458,-5.7472,-5.5917,-5.5723,-4.9069,-4.5288,-4.3896,-3.9615,-3.5351,-3.1365,-2.9451,-2.7167,-2.4535,-2.2599,-2.1833,-2.2098,-2.2098,-1.9929,-1.6672,-1.6672,-1.4344,-1.1469,0.0,0.0,0.0,0.0,0.0,0.0,0.0,0.0,0.0,0.0,2.2015,2.0312,0.0,0.0,0.0,0.0,0.0,0.0,0.0,0.0,0.0,1.9435,2.0627,2.1366,2.1512,2.0557,2.0296,2.074,1.8073,1.6793,1.6824,1.5221,1.4174,1.3593,1.3139,1.2955,1.3025,1.2451,1.2873,1.3844,1.3198,1.3069,1.3298,1.3233,0.0,0.0,1.1363,0.5919,-0.2118,-0.9396,-1.5584,-2.1535,-2.8739,-3.0478,-3.0215,-3.1919,-3.1946,-3.1637,-3.2401,-3.283,-3.2891,-3.2335,-3.396,-3.4023,-2.7501,-2.7673,0.0,0.0,-1.2957,-1.1477,-0.8212,-1.2862,-1.9155,-2.5058,-3.3149,-4.0692,-4.6757,-4.8059,-4.8839,0.0,-4.9605,-5.0066,-5.1911,-5.1652,0.0,0.0,-5.4164,-5.4532,-5.6927,-5.9109,-6.0534,-6.1044,-6.0831,-6.0375,-5.9601,-5.5587,-5.3271,-5.2603,-4.5723,-4.2306,-4.1887,-3.7211,-3.3989,-3.1976,-2.7416,-2.5489,-2.5071,-2.1829,-2.1308,-2.2712,-2.2712,-2.0472,-1.7137,-1.7137,-1.4658,-1.1629,0.0,0.0,0.0,0.0,0.0,0.0,0.0,2.3471,2.4387,2.6919,2.5523,2.3764,2.2431,2.1459,2.0743,0.0,0.0,0.0,0.0,0.0,0.0,1.9673,0.0,0.0,2.0866,2.0035,2.0003,2.0803,0.0,1.7254,1.7822,1.6432,1.549,1.5067,1.5062,1.4886,1.4574,1.4655,1.4422,1.3969,1.3918,1.349,1.2896,0.0,0.0,0.0,0.0,0.5814,-0.0983,-0.4746,-1.3066,-2.3335,-3.1919,-3.388,-3.3066,-3.3423,-3.2745,-3.1874,-3.1769,-3.1597,-3.1685,-3.2541,-3.3665,-3.2343,-2.3552,0.0,0.0,0.0,-0.7462,-0.7628,-0.58,-1.1139,0.0,-2.0971,-3.0537,-3.8835,-4.2555,-4.6514,0.0,-4.9462,-4.9229,-4.9699,0.0,-5.1395,-5.2109,-5.4314,-5.4403,-5.5245,-5.723,-5.9486,-6.076,-6.0927,-6.0773,-6.0364,-5.9602,-5.5546,-5.3191,-5.242,-4.6191,-4.1896,-3.9352,-3.6042,-3.2266,-2.8188,-2.5024,-2.3213,-2.2427,-1.9727,-1.9077,-1.9912,-1.9912,-1.8229,-1.5698,-1.5698,-1.3956,-1.1646,0.0,0.0,0.0,0.0,0.0,0.0,0.0,2.562,2.6913,2.9792,2.9334,2.7892,2.5688,2.3441,2.1652,0.0,0.0,0.0,0.0,0.0,0.0,0.0,0.0,0.0,0.0,0.0,0.0,2.0779,1.7884,0.0,0.0,0.0,0.0,0.0,1.4397,1.4007,1.3396,1.3869,1.3722,0.0,0.0,1.3344,0.0,0.0,0.0,0.0,0.0,0.7015,0.2195,0.0035,-0.803,-1.8643,-2.6824,-2.9768,-3.0168,-3.0011,-2.944,-2.9107,-3.051,-3.0507,-3.0545,-3.247,-3.2993,-3.0211,-1.9662,-1.8283,0.0,-0.4061,-0.2877,-0.4153,-0.4745,0.0,-1.4147,0.0,-2.552,-3.3773,-3.7369,-4.2961,-4.7273,0.0,0.0,0.0,-5.1309,-5.1232,0.0,-5.3497,-5.4336,-5.562,-5.7634,-5.9574,-6.0588,-6.0616,-6.0737,-6.0406,-5.9589,-5.5353,-5.2739,-5.1545,-4.5893,-4.0872,-3.6294,-3.4247,-3.014,-2.476,-2.2443,-2.0884,-1.976,-1.7487,-1.6826,-1.7248,-1.7248,-1.5981,-1.4432,-1.4432,-1.3167,-1.1619,0.0,0.0,0.0,0.0,0.0,0.0,0.0,2.6645,2.9131,3.321,3.2338,3.0942,2.9934,2.6246,2.3195,0.0,0.0,0.0,0.0,0.0,0.0,0.0,0.0,0.0,0.0,0.0,0.0,1.9012,1.7696,0.0,0.0,0.0,0.0,0.0,0.0,1.4846,1.4486,1.3816,0.0,0.0,0.0,0.0,0.0,0.0,0.0,0.0,0.0,1.0021,0.7802,0.0,0.0,-0.4479,-1.1497,-1.8167,-2.3069,-2.1553,0.0,0.0,-2.9046,-3.0326,-3.0368,-3.1052,-3.1127,-2.8309,-1.7885,0.0,-1.3683,-0.3134,-0.1573,-0.2335,-0.3132,-0.5316,-0.8911,0.0,-1.7915,-2.392,-3.6168,-3.859,0.0,0.0,0.0,0.0,-5.2077,-5.1417,-5.1831,-5.4292,-5.3717,-5.4754,-5.8086,-5.9715,-6.0609,-6.0604,-6.0721,-6.0149,-5.8804,-5.3575,-4.9504,-4.6697,-4.0895,-3.6203,-3.2814,-2.9924,-2.732,-2.4916,-1.9795,-1.8506,-1.9623,-1.6084,-1.5698,-1.7248,-1.7248,-1.5981,-1.4432,-1.4432,-1.3167,-1.1619,0.0,0.0,0.0,0.0,0.0,0.0,2.6391,2.7459,2.9618,3.4381,3.3493,3.2254,3.1722,2.8506,2.5078,2.1806,0.0,0.0,0.0,0.0,0.0,0.0,0.0,0.0,0.0,0.0,1.9459,1.9264,1.836,0.0,0.0,0.0,0.0,0.0,0.0,1.4789,1.3964,1.4051,0.0,0.0,0.0,0.0,0.0,0.0,0.0,0.0,0.0,0.0,0.9922,0.6932,0.0,0.0,0.0506,-0.4568,0.0,0.0,-2.0656,-2.2393,-2.814,-2.9427,-2.9348,-3.056,-2.7986,-2.3469,-1.7297,0.0,-0.9167,-0.2303,-0.1077,-0.1475,-0.218,-0.3035,-0.4614,-0.7609,-1.2474,-1.7895,-2.3624,-2.8455,0.0,0.0,-4.2002,0.0,0.0,0.0,-5.1396,-5.291,-5.3416,-5.4261,-5.575,-5.7188,-5.8859,-6.0846,-6.1323,-6.039,-5.793,-5.334,-4.8993,-4.4938,-4.0158,-3.5548,-3.1297,-3.114,-2.7584,-2.1418,-1.8487,-1.632,-1.4742,-1.3356,-1.3085,-1.3793,-1.3769,-1.3333,-1.2768,-1.2753,-1.218,-1.1619,0.0,0.0,0.0,0.0,0.0,2.3719,2.667,2.7927,3.0048,3.4183,3.3652,3.2828,3.2631,2.9503,2.6212,2.3171,2.1259,0.0,0.0,0.0,0.0,0.0,0.0,0.0,0.0,0.0,1.991,1.9936,1.9234,1.8733,0.0,0.0,1.6786,1.6065,0.0,0.0,0.0,0.0,0.0,0.0,0.0,0.0,0.0,0.0,0.0,0.0,0.0,0.0,0.0,0.0,0.0,0.3076,0.7799,0.4849,-0.2319,-1.2079,-1.633,-1.9119,-2.5043,-2.7464,-2.8588,-2.9605,-2.5392,-2.008,0.0,0.0,-0.5811,-0.1531,-0.063,-0.0853,-0.1472,-0.182,-0.2168,-0.273,-0.7389,-1.1906,-1.456,-1.9627,0.0,0.0,0.0,-3.6995,-4.5424,-4.8882,-5.0593,-5.0258,-5.0999,-5.1765,-5.244,-5.0794,-5.3295,-6.0872,-6.1424,-6.0234,-5.7422,-5.379,-4.9167,-4.3588,-4.021,-3.5757,-3.0373,-3.1206,-2.6172,-1.6683,-1.4694,-1.2359,-0.9925,-0.9925,-0.9925,-0.9919,-0.9902,-1.063,-1.1667,-1.1653,-1.164,-1.1626,0.0,0.0,0.0,0.0,0.0,0.0,2.5043,2.8033,3.0772,3.2687,3.289,3.2914,3.2914,2.8963,2.6286,2.6244,2.2408,0.0,0.0,0.0,0.0,0.0,0.0,0.0,0.0,0.0,1.9988,2.0803,2.0314,2.0099,2.0136,1.921,1.837,1.7636,0.0,0.0,0.0,0.0,0.0,0.0,0.0,0.0,0.0,0.0,0.0,0.0,0.0,0.0,0.0,0.0,0.0,0.0,0.0,0.8298,0.5917,-0.0106,-0.6379,-1.2629,-1.8735,-2.4368,-2.8333,-2.7851,-2.4027,-1.9174,0.0,-0.9198,-0.4378,-0.0765,0.0,-0.0225,-0.099,-0.1584,-0.2023,-0.2191,-0.2452,-0.5148,-1.2419,-1.3608,0.0,0.0,0.0,-2.8109,-3.7979,-4.5841,-4.9258,-4.6545,-4.5843,-4.6314,-4.8389,-3.9843,-4.2932,-6.0553,-6.0674,-5.9453,-5.7422,-5.4882,-4.9605,-4.1903,-4.0526,-3.6312,-2.9869,-2.8726,-2.2128,-1.1338,-0.7579,-0.5956,-0.5818,-0.5818,-0.5815,-0.5808,-0.5808,-0.8155,-1.1563,-1.1563,-1.1536,-1.1653,0.0,0.0,0.0,0.0,0.0,0.0,0.0,2.5895,2.7302,2.9644,2.9421,2.9243,2.9644,2.7055,2.5147,2.4879,2.2797,0.0,0.0,0.0,0.0,0.0,0.0,0.0,0.0,1.9861,2.0062,2.0062,2.0386,2.0372,1.9918,1.914,1.8127,1.6908,1.6005,1.517,0.0,0.0,0.0,0.0,0.0,0.0,0.0,0.0,0.0,0.0,0.0,0.0,0.0,0.0,0.0,0.0,0.0,0.0,0.0,0.2746,-0.2177,-0.804,-1.3506,-1.6151,-1.7353,-1.7037,-1.2816,-0.855,-0.7969,-0.3568,0.0448,0.0579,0.0626,0.0419,-0.0206,-0.049,-0.0785,-0.1347,-0.1511,-0.2519,0.0,0.0,0.0,-2.425,-3.2235,-3.9365,0.0,0.0,-4.4158,-4.5163,-4.5873,-4.3984,-3.8874,-3.7736,-3.7437,-3.794,-3.2169,-2.8672,-2.7969,-2.5671,-3.0591,-4.2598,-3.7768,-2.7194,-1.2021,-1.5035,-1.2691,-0.5852,-0.0291,0.2186,0.2186,0.2186,0.0583,-0.1893,-0.1893,-0.2622,-0.3935,-0.6692,-0.8136,-0.9141,0.0,0.0,0.0,0.0,0.0,0.0,0.0,2.4848,2.5739,2.7409,2.7153,2.7068,2.7763,2.5698,2.4369,2.4779,2.3412,0.0,0.0,0.0,0.0,0.0,0.0,0.0,1.9612,1.965,2.0096,2.0988,2.1127,2.1,2.0669,2.0053,1.8642,1.6551,1.5896,1.4943,0.0,0.0,0.0,0.0,0.0,0.0,1.1019,0.0,0.0,0.0,0.0,0.0,0.0,0.0,0.0,0.0,0.0,0.0,0.0,0.0,0.1251,-0.2658,-0.7726,-1.0586,-1.1992,-1.1465,-0.7459,-0.3872,-0.4622,-0.0547,0.2965,0.1511,0.1455,0.1467,0.0883,0.0785,0.0673,0.0224,0.0122,-0.0775,0.0,0.0,0.0,-2.0495,0.0,0.0,-4.0544,-4.1215,-4.0611,-3.8303,-3.9067,-3.5323,-2.5383,-2.3472,-1.7289,-0.5581,-1.0825,-1.1992,-0.8164,-0.6785,-1.2798,-2.5907,-2.3318,-1.5477,-0.3358,0.158,0.4743,0.6257,0.8905,0.9942,0.0,0.8314,0.6413,0.408,0.2627,0.2035,0.1731,-0.0719,-0.3007,-0.5279,0.0,0.0,0.0,0.0,0.0,0.0,0.0,2.4725,2.5652,2.5856,2.5893,2.6171,2.6915,2.4717,2.3836,2.5386,0.0,0.0,0.0,0.0,0.0,0.0,0.0,0.0,2.0158,1.923,2.0087,2.2855,2.2228,2.1972,2.2026,2.1624,1.9724,1.6576,1.5813,1.4865,1.3693,0.0,0.0,0.0,1.1748,1.1394,0.0,0.0,0.0,0.0,0.0,0.0,0.0,0.0,0.0,0.0,0.0,0.0,0.0,0.0,0.0,0.0,0.0,-0.6691,-1.0444,-0.9437,-0.642,-0.3622,-0.335,0.0393,0.0,0.2135,0.2413,0.2726,0.2128,0.2132,0.2191,0.2191,0.2239,0.0154,-0.5739,-0.7465,0.0,0.0,-2.6292,0.0,-2.8108,-3.6234,-3.7774,-2.8077,-2.6828,-2.1376,-0.9469,-0.0888,1.2503,3.1693,0.5654,-0.3867,0.625,0.6094,0.5848,0.556,0.1438,-0.0578,-0.0,1.9228,2.6076,2.2497,1.8888,1.7083,1.6367,1.3016,1.1565,1.105,0.7263,0.5747,0.5796,0.5803,0.3231,-0.0557,0.0,0.0,0.0,0.0,0.0,0.0,0.0,0.0,0.0,0.0,2.4615,2.4485,2.406,2.2913,2.2331,0.0,0.0,0.0,0.0,0.0,0.0,0.0,0.0,0.0,1.8694,1.9525,2.0065,2.0266,2.221,2.2582,2.139,2.18,2.0103,1.6571,1.5863,1.4361,1.2268,1.2041,0.0,0.0,1.1207,1.0639,0.0,0.0,0.0,0.0,0.891,0.9064,0.0,0.0,0.0,0.0,0.0,0.0,0.0,0.0,0.4032,0.3671,0.2954,0.0,0.03,0.0457,0.1311,0.2024,0.0,0.2936,0.3537,0.2672,0.2621,0.2645,0.2233,0.2109,0.2109,0.2389,0.2401,0.0303,-0.5722,-1.5691,0.0,-2.9223,-3.2614,-3.3982,-3.2747,-2.9746,-2.7642,-2.732,-1.8734,-0.928,0.0134,0.5761,1.8813,4.109,3.5047,3.6641,4.7578,4.4953,4.2285,3.9586,2.9505,2.5474,2.6593,2.663,2.5876,2.4449,2.0577,1.8852,1.8462,1.6165,1.4581,1.3485,1.069,0.9549,0.939,0.9406,0.6525,0.2087,0.0,0.0,0.0,0.0,0.0,0.0,0.0,0.0,0.0,0.0,0.0,2.3895,2.3103,2.2282,0.0,0.0,0.0,0.0,0.0,0.0,0.0,0.0,0.0,1.867,1.8725,1.9172,1.992,2.0866,2.1964,2.2401,2.2163,2.2058,2.0167,1.6796,1.4945,1.3112,1.1431,1.1431,1.1019,1.0331,1.0331,0.0,0.0,0.0,0.0,0.0,0.8439,0.8495,0.0,0.8077,0.8211,0.8331,0.0,0.0,0.0,0.0,0.4069,0.3781,0.41,0.4141,0.4124,0.4365,0.4214,0.3968,0.3904,0.3785,0.3581,0.3214,0.3221,0.3357,0.3484,0.3938,0.4355,0.4567,0.3555,0.068,-0.537,0.0,-2.0536,-2.5812,-2.6215,-2.6587,-2.7901,-2.4098,-1.9443,-1.45,-0.723,0.3218,1.7577,2.2256,3.3059,5.1844,5.2968,5.582,6.1172,5.9319,5.5782,5.0619,4.365,3.9709,3.8334,3.4134,3.1671,3.032,2.6689,2.5001,2.4569,2.0362,1.8198,1.7206,1.4419,1.3177,1.3079,1.3092,1.0386,0.6277,0.0,0.0,0.0,0.0,0.0,0.0,0.0,0.0,0.0,0.0,0.0,0.0,0.0,0.0,0.0,0.0,0.0,0.0,0.0,0.0,0.0,0.0,1.9314,1.86,1.9404,1.8793,1.9699,2.2228,2.1815,2.2055,2.2905,2.2379,2.0341,1.6856,1.3712,1.1698,1.0791,1.0791,1.0254,0.9368,0.9368,0.0,0.0,0.0,0.0,0.0,0.0,0.0,0.0,0.7861,0.8056,0.8247,0.7373,0.0,0.0,0.0,0.0,0.0,0.3735,0.3735,0.3845,0.471,0.4444,0.4002,0.4018,0.3818,0.3649,0.3649,0.3832,0.4285,0.5214,0.6155,0.6957,0.7411,0.4046,-0.0463,-0.5541,-0.8634,-1.175,-1.5739,-1.5804,-1.6195,-1.7732,-1.6993,-1.0805,0.2575,0.6798,1.6933,3.5676,4.1089,4.8938,6.0663,6.2188,6.2265,6.1094,6.0949,5.7603,5.1001,4.9283,4.6431,4.2468,4.0243,3.8553,3.7047,3.3494,3.1741,3.0803,2.4922,2.2118,2.1402,1.8289,1.6904,1.6602,1.6318,1.3954,1.0551,0.0,0.0,0.0,0.0,0.0,0.0,0.0,0.0,0.0,0.0,0.0,0.0,0.0,0.0,0.0,0.0,0.0,0.0,0.0,0.0,0.0,2.1043,1.9219,1.8753,1.9883,1.9463,1.9682,2.0581,2.2571,2.2671,2.1069,2.3034,2.114,1.5963,1.3017,1.0974,0.9746,0.9746,0.939,0.8846,0.8846,0.0,0.0,0.0,0.0,0.0,0.0,0.0,0.0,0.7228,0.7695,0.823,0.7326,0.0,0.0,0.0,0.0,0.0,0.4367,0.292,0.1669,0.353,0.399,0.4016,0.4002,0.3975,0.3955,0.3955,0.3976,0.4517,0.6321,0.644,0.6907,0.8852,0.0309,-0.7054,-0.8379,0.0,-1.7066,-1.2186,-1.382,-1.2661,-0.5811,-0.3167,0.2437,1.3092,2.4679,3.4547,4.2373,5.0086,5.6269,6.058,6.1661,6.2344,6.2734,6.2091,5.9481,5.4896,5.0703,4.8218,4.7264,4.1308,3.8766,3.8752,3.491,3.2469,3.1112,2.8346,2.6415,2.506,2.3004,2.1457,1.9979,1.8279,1.5515,1.2425,0.0,0.0,0.0,0.0,0.0,0.0,0.0,0.0,0.0,0.0,0.0,0.0,0.0,0.0,0.0,0.0,0.0,0.0,0.0,0.0,1.9707,2.0381,1.891,1.8485,1.9326,1.9624,2.0221,2.1128,2.2451,2.2879,2.2457,2.1403,1.8939,1.5337,1.2442,1.0568,0.9487,0.9191,0.8765,0.8275,0.0,0.0,0.0,0.0,0.0,0.0,0.0,0.0,0.0,0.0,0.7655,0.7981,0.7084,0.0,0.0,0.0,0.0,0.0,0.4122,0.3357,0.2426,0.2291,0.1361,0.0463,0.0463,0.0458,0.075,0.207,0.237,0.3469,0.6857,0.5906,0.4395,0.3528,0.0223,-0.2639,-0.3581,-0.4859,-0.4976,-0.2902,-0.1414,0.069,0.3375,0.8102,1.492,2.4498,3.2653,4.1209,5.0544,5.5996,6.0273,6.3329,6.369,6.3817,6.3756,6.2623,6.0492,5.7359,5.3413,5.1549,5.1242,4.5952,4.3752,4.3751,3.9519,3.6943,3.5421,3.283,3.0895,2.9404,2.6952,2.5489,2.4448,2.0591,1.8141,1.594,0.0,0.0,0.0,0.0,0.0,0.0,0.0,0.0,0.0,0.0,0.0,0.0,0.0,0.0,0.0,0.0,0.0,0.0,0.0,1.9324,1.89,1.959,1.8586,1.8479,1.9503,1.9891,2.0764,2.2207,2.251,2.2899,2.3214,1.9378,1.6523,1.4383,1.1746,1.0037,0.907,0.8683,0.8193,0.7697,0.0,0.0,0.0,0.0,0.0,0.0,0.0,0.0,0.0,0.0,0.0,0.0,0.0,0.0,0.0,0.4787,0.41,0.3663,0.3805,0.3542,0.2879,0.1283,0.0,-0.1134,-0.2251,-0.2215,-0.1562,-0.0262,0.007,0.1487,0.6057,0.5245,0.0,-0.009,0.0455,0.0924,0.0129,0.3171,0.5288,0.5081,0.953,1.2904,1.3193,1.8536,2.6296,3.6363,4.0135,4.6841,5.8167,6.057,6.2835,6.5428,6.5273,6.4751,6.3904,6.2154,6.0554,5.8988,5.5818,5.4336,5.4127,4.9941,4.8018,4.773,4.3805,4.1314,3.9674,3.6864,3.4967,3.3629,3.0957,2.9317,2.793,2.2704,2.0247,1.8709,0.0,0.0,0.0,0.0,0.0,0.0,0.0,0.0,0.0,0.0,0.0,0.0,0.0,0.0,0.0,0.0,0.0,0.0,0.0,1.8233,1.7992,1.8655,1.8274,1.9133,2.1628,2.0633,2.1076,2.3124,2.357,2.2787,2.0807,1.7863,1.5165,1.2605,1.0759,0.9256,0.7987,0.7961,0.7614,0.707,0.707,0.0,0.0,0.0,0.0,0.0,0.0,0.0,0.0,0.0,0.0,0.0,0.0,0.0,0.5135,0.4922,0.4367,0.3812,0.3961,0.2467,0.0947,0.092,0.2472,0.2861,-0.1539,-0.0959,-0.0155,-0.217,-0.2721,-0.1448,0.2877,0.4642,0.5046,0.3411,-0.0841,-0.3497,-0.255,-0.0538,0.2609,0.7535,1.1523,1.7172,2.5417,2.9003,3.5992,4.8171,5.1911,5.6738,6.3962,6.4381,6.448,6.4609,6.4453,6.3834,6.2631,6.0248,5.9328,5.9791,5.6745,5.5213,5.494,5.0482,4.8238,4.776,4.5669,4.3369,4.103,3.9671,3.816,3.6772,3.5341,3.2551,2.8853,2.4141,2.1011,1.8907,0.0,0.0,0.0,0.0,0.0,0.0,0.0,0.0,0.0,0.0,0.0,0.0,0.0,0.0,0.0,0.0,0.0,0.0,0.0,1.6758,1.6736,1.7746,1.7346,1.7844,1.9573,2.0856,2.1983,2.3121,2.2981,2.1652,1.9125,1.6615,1.4168,1.1777,0.9866,0.8694,0.8119,0.7574,0.7348,0.7281,0.7094,0.6985,0.0,0.0,0.0,0.0,0.0,0.0,0.0,0.0,0.6647,0.6452,0.5571,0.5227,0.4971,0.4382,0.4022,0.3826,0.3975,0.2298,0.0589,0.086,0.1672,0.1157,-0.3582,-0.4047,-0.3755,-0.4622,-0.4965,-0.3901,0.0,0.0,0.2429,0.168,-0.116,-0.2019,0.2019,0.3192,0.6665,1.4569,1.8553,2.3494,3.0375,3.6674,4.3201,4.9912,5.4686,5.9545,6.4535,6.4191,6.3945,6.4258,6.3086,6.2017,6.1151,5.9835,5.919,5.9114,5.6277,5.4653,5.4059,5.1698,5.0505,5.0327,4.8964,4.7043,4.4792,4.4237,4.29,4.0926,3.8679,3.5545,3.1752,2.8205,2.5992,2.425,0.0,0.0,0.0,0.0,0.0,0.0,0.0,0.0,0.0,0.0,0.0,0.0,0.0,0.0,0.0,0.0,0.0,0.0,1.6127,1.556,1.563,1.6453,1.617,1.6549,1.7605,1.9788,2.128,2.1956,2.1423,1.9737,1.7048,1.4958,1.2902,1.088,0.9097,0.8294,0.8275,0.751,0.7281,0.7486,0.7134,0.6985,0.0,0.0,0.0,0.0,0.0,0.0,0.0,0.0,0.6135,0.5755,0.4888,0.4691,0.4628,0.4038,0.3961,0.409,0.4144,0.3003,0.1618,0.1033,0.0939,-0.0321,-0.5209,-0.5615,-0.5507,-0.7198,-0.6555,-0.462,-0.1093,0.0,0.0,0.1112,-0.0395,0.0,0.498,0.7743,1.2219,2.0448,2.496,3.0013,3.6481,4.3111,4.8652,5.2673,5.7525,6.167,6.4845,6.3884,6.3515,6.4062,6.2228,6.0903,6.0319,5.9693,5.906,5.8336,5.631,5.5062,5.4567,5.3281,5.2539,5.2236,5.125,4.9752,4.7935,4.7613,4.6003,4.3677,4.0389,3.7465,3.4712,3.1677,2.9536,2.7618,0.0,0.0,0.0,0.0,0.0,0.0,0.0,0.0,2.2327,2.2327,2.2299,0.0,0.0,0.0,0.0,0.0,0.0,0.0,1.5168,1.4855,1.4671,1.4671,1.4863,1.5434,1.6361,1.7432,1.8487,1.9555,1.8913,1.7148,1.4371,1.2783,1.1265,0.9725,0.847,0.8096,0.8387,0.7768,0.7513,0.7486,0.7148,0.6985,0.6985,0.0,0.0,0.0,0.0,0.0,0.0,0.0,0.5613,0.4498,0.4918,0.4603,0.4022,0.4016,0.4334,0.4653,0.4553,0.4579,0.4019,0.156,0.0762,-0.074,-0.5955,-0.4896,-0.4364,-0.9666,-0.72,-0.3259,-0.0124,-0.0489,-0.0354,0.267,0.1528,0.1562,0.5244,1.2276,1.9072,2.4295,2.99,3.6524,4.4848,4.8427,5.251,5.8159,6.1605,6.4057,6.5502,6.4023,6.3398,6.4062,6.2075,6.0781,6.0319,5.9664,5.8787,5.7584,5.7134,5.6922,5.6814,5.5314,5.4025,5.3045,5.2236,5.1363,5.0355,4.9004,4.7103,4.4618,4.0369,3.8403,3.7526,3.427,3.0986,2.8135,0.0,0.0,0.0,0.0,0.0,0.0,0.0,0.0,2.2327,2.2327,2.2003,0.0,0.0,0.0,0.0,0.0,0.0,0.0,1.4288,1.3857,1.3857,1.428,1.4315,1.4424,1.4719,1.4566,1.5683,1.8089,1.697,1.5035,1.2327,1.1332,1.0108,0.8788,0.841,0.8176,0.8029,0.7629,0.7302,0.7024,0.7263,0.7057,0.6659,0.0,0.0,0.0,0.0,0.0,0.0,0.0,0.0,0.0,0.413,0.4043,0.3995,0.3894,0.4029,0.4206,0.4165,0.2581,0.0848,0.0594,-0.1068,-0.3403,-0.6427,-0.642,-0.6266,-0.8322,-0.6814,-0.3906,-0.0251,0.0,0.0794,0.4561,0.5613,0.7706,1.2912,1.7812,2.394,3.2292,3.5795,4.0494,4.797,5.2668,5.6364,5.9087,6.2819,6.4926,6.488,6.4219,6.355,6.3053,6.1404,6.0219,5.9681,5.9139,5.852,5.7886,5.773,5.7134,5.5989,5.5007,5.4419,5.4093,5.3315,5.2438,5.1329,4.9479,4.82,4.7106,4.3958,4.2246,4.1223,3.8196,3.6131,3.4813,0.0,0.0,0.0,0.0,0.0,0.0,2.252,2.2226,2.2089,2.2265,2.1529,2.086,0.0,0.0,0.0,1.6774,1.5473,1.4474,1.3925,1.3437,1.3496,1.4063,1.3857,1.3705,1.3625,1.2994,1.3372,1.4873,1.4404,1.3094,1.0978,1.0597,0.9894,0.8898,0.8898,0.8724,0.838,0.783,0.7423,0.7217,0.6953,0.6683,0.6497,0.0,0.0,0.0,0.0,0.0,0.0,0.0,0.0,0.0,0.3517,0.3561,0.3725,0.3853,0.4158,0.4382,0.4097,0.2703,0.1145,0.0091,-0.2193,-0.4968,-0.8082,-0.8658,-0.8436,-0.726,-0.6256,-0.4131,0.0534,0.1245,0.2655,0.7312,0.9502,1.2917,1.9184,2.4054,3.0008,3.7882,4.1623,4.6088,5.2412,5.6377,5.9512,6.1735,6.4406,6.56,6.4843,6.4219,6.3389,6.2259,6.1112,6.0047,5.9127,5.9037,5.8676,5.7997,5.7997,5.7354,5.6154,5.5368,5.5044,5.4975,5.3991,5.3146,5.2438,5.0693,4.9995,4.9585,4.6448,4.4899,4.4091,4.0919,3.9156,3.8265,0.0,0.0,0.0,0.0,0.0,0.0,2.2237,2.1823,2.1705,2.2061,2.0803,1.9877,0.0,0.0,0.0,1.6166,1.5219,1.4424,1.3865,1.3437,1.3496,1.4063,1.3614,1.3258,1.3017,1.2383,1.1718,1.0895,1.1601,1.1323,1.0089,1.0331,1.0149,0.9646,0.9646,0.9459,0.9084,0.8037,0.7633,0.7551,0.6299,0.6029,0.635,0.5608,0.0,0.0,0.0,0.0,0.0,0.0,0.0,0.0,0.3159,0.3222,0.3383,0.3792,0.4412,0.4755,0.4112,0.3992,0.3274,-0.0234,-0.2893,-0.5647,-0.9715,-1.0747,-0.9836,-0.6264,-0.5557,-0.3863,0.1884,0.288,0.4837,1.0582,1.3424,1.7389,2.4464,3.0918,3.6769,4.197,4.7202,5.2384,5.7398,5.9632,6.206,6.5211,6.6048,6.5976,6.5031,6.4094,6.296,6.1582,6.1031,6.0089,5.8769,5.9145,5.886,5.7997,5.7997,5.7657,5.6942,5.6081,5.5652,5.5416,5.4093,5.3518,5.345,5.2371,5.1941,5.1664,4.8063,4.671,4.6423,4.3025,4.0891,3.9686,0.0,0.0,0.0,0.0,0.0,0.0,2.1764,2.1399,2.0991,2.0701,1.9682,1.8654,1.7863,1.6693,0.0,1.4639,1.4362,1.3986,1.3402,1.3257,1.3496,1.4063,1.3876,1.3325,1.2396,1.1608,1.1088,1.0895,1.0226,0.9653,0.9203,0.9177,0.9234,0.9339,0.9339,0.9045,0.851,0.7211,0.6418,0.598,0.5689,0.5385,0.5153,0.5389,0.5127,0.0,0.0,0.0,0.0,0.0,0.0,0.0,0.3552,0.3508,0.3371,0.3423,0.3317,0.3226,0.3149,0.2419,0.1199,-0.0932,-0.3447,-0.5663,-0.6713,-0.6925,-0.6773,-0.5848,-0.4453,-0.2171,0.2034,0.2902,0.518,1.2352,1.7329,2.2738,2.9806,3.6252,4.2528,4.8595,5.1476,5.5335,6.1273,6.274,6.4049,6.5823,6.6242,6.5725,6.4174,6.3748,6.2858,6.1189,6.0591,5.9928,5.9254,5.898,5.852,5.7997,5.7997,5.7923,5.7694,5.6347,5.508,5.3991,5.3619,5.3518,5.345,5.2371,5.2399,5.2815,4.9286,4.8398,4.8761,4.6094,4.4472,4.3588,0.0,0.0,0.0,0.0,0.0,0.0,0.0,0.0,2.0567,2.0239,1.8909,1.7724,1.7163,1.5787,0.0,0.0,1.4097,1.3827,1.3248,1.2985,1.313,1.3631,1.3389,1.2969,1.2347,1.0976,1.0132,0.9918,0.8869,0.8659,0.9175,0.9329,0.9328,0.919,0.919,0.8831,0.8088,0.7044,0.6293,0.5791,0.513,0.4807,0.4691,0.4438,0.4108,0.3729,0.3403,0.0,0.0,0.0,0.0,0.0,0.0,0.0,0.3741,0.4126,0.4291,0.4301,0.433,0.4084,0.3211,0.0993,-0.0542,-0.1725,-0.2742,-0.2316,-0.1592,-0.1578,-0.1586,-0.029,0.3631,0.5794,0.9478,1.6975,2.187,2.7388,3.5149,4.1473,4.7173,5.1942,5.5904,5.9599,6.2917,6.4446,6.5498,6.6204,6.6334,6.5763,6.4359,6.3729,6.2775,6.1228,6.0494,5.9785,5.9081,5.8839,5.8447,5.7997,5.7997,5.785,5.7427,5.6259,5.5104,5.4025,5.3619,5.3518,5.3484,5.291,5.3011,5.3247,5.0693,4.9989,5.0209,4.7765,4.6553,4.608,0.0,0.0,0.0,0.0,0.0,0.0,0.0,0.0,0.0,1.9863,1.8174,1.6941,1.6766,1.5045,1.3961,0.0,0.0,0.0,1.3094,1.2742,1.2663,1.2933,1.2642,1.2416,1.2242,1.0493,0.9402,0.8931,0.7997,0.8194,0.9448,0.9644,0.9517,0.9176,0.9015,0.8502,0.7719,0.6742,0.6102,0.5702,0.4481,0.4134,0.4312,0.341,0.2978,0.2815,0.2814,0.2798,0.2842,0.3347,0.0,0.0,0.0,0.0,0.4141,0.4875,0.5325,0.5576,0.5555,0.5961,0.5731,0.373,0.327,0.3047,0.1298,0.2457,0.3912,0.3896,0.2312,0.2173,0.6087,0.9666,1.442,2.2215,2.6498,3.1875,4.0183,4.642,5.1172,5.4309,5.9718,6.333,6.374,6.5343,6.6405,6.6337,6.6346,6.5897,6.4834,6.3806,6.2781,6.1633,6.0649,5.9728,5.8918,5.8756,5.8447,5.7997,5.7997,5.7657,5.7042,5.6294,5.5503,5.4805,5.4127,5.3822,5.372,5.372,5.3585,5.3349,5.1934,5.1389,5.111,4.8821,4.7866,4.7655,0.0,0.0,0.0,0.0,0.0,0.0,0.0,0.0,0.0,0.0,1.7309,1.6253,1.5286,1.4058,1.3323,1.3323,1.2955,1.2659,1.2596,0.0,0.0,1.1944,1.2298,1.2056,1.1146,1.0116,0.9527,0.9429,0.8532,0.8489,0.9221,0.883,0.8844,0.9163,0.8162,0.761,0.7263,0.523,0.4362,0.422,0.3422,0.3109,0.3139,0.2987,0.2761,0.2624,0.3054,0.3134,0.3181,0.4114,0.4178,0.0,0.0,0.0,0.4054,0.4281,0.4171,0.3996,0.387,0.4166,0.4678,0.5127,0.5266,0.5373,0.0,0.0,0.7778,0.7773,0.6361,0.6231,1.0102,1.2455,1.6668,2.5596,3.0891,3.6617,4.4518,4.9972,5.4534,5.8269,6.1473,6.3832,6.5019,6.5896,6.634,6.6178,6.6128,6.5705,6.468,6.3782,6.3034,6.247,6.0918,6.0001,5.9727,5.9042,5.8447,5.7997,5.7997,5.796,5.7804,5.7061,5.6324,5.5519,5.545,5.5076,5.4432,5.4432,5.4093,5.345,5.2505,5.216,5.1912,5.0277,4.9182,4.8394,0.0,0.0,0.0,0.0,0.0,0.0,0.0,0.0,0.0,0.0,0.0,1.6,1.4613,1.3724,1.3198,1.3198,1.2783,1.2248,1.1712,1.1676,1.1552,1.1274,1.1016,1.0788,1.0566,0.9487,0.898,0.9113,0.8227,0.8276,0.9177,0.8677,0.8734,0.915,0.8139,0.737,0.6704,0.5103,0.4127,0.3577,0.3263,0.3309,0.3575,0.3163,0.3279,0.357,0.3289,0.3235,0.3421,0.4138,0.4354,0.4403,0.4864,0.0,0.0,0.0,0.5076,0.5328,0.6276,0.7076,0.7999,0.9856,0.9636,0.9534,1.1674,1.2745,1.3677,1.4684,1.5829,1.6058,1.4798,1.8583,2.3392,2.8348,3.4461,4.0635,4.6234,5.1849,5.6494,5.9795,6.2515,6.4445,6.5414,6.6057,6.6384,6.6269,6.6167,6.5667,6.4666,6.3523,6.2611,6.1966,6.0224,5.9292,5.9223,5.86,5.8226,5.7997,5.7997,5.7997,5.7997,5.7657,5.712,5.6344,5.5877,5.5502,5.5193,5.5219,5.5009,5.4601,5.3416,5.2892,5.2687,5.0744,4.9716,4.9283,0.0,0.0,0.0,0.0,0.0,0.0,0.0,0.0,0.0,0.0,0.0,1.5728,1.4396,0.0,0.0,0.0,1.2572,1.1838,1.0714,1.0538,1.0488,1.0429,0.9809,0.9563,0.9797,0.8899,0.842,0.8469,0.7948,0.8222,0.9252,0.8875,0.8962,0.9425,0.8369,0.7389,0.6416,0.5263,0.4305,0.359,0.3587,0.3826,0.4193,0.4058,0.4405,0.4832,0.408,0.3956,0.4199,0.4304,0.4539,0.482,0.5182,0.5309,0.0,0.0,0.0,0.6529,0.8423,0.9375,1.0535,1.3321,1.3536,1.3874,0.0,0.0,1.9495,2.0959,2.4318,2.5782,2.1815,2.572,3.0284,3.2467,3.8798,4.4738,4.86,5.3851,5.8363,6.101,6.3401,6.5102,6.5736,6.6178,6.6322,6.6101,6.5846,6.5282,6.432,6.3009,6.2079,6.1571,5.9678,5.8718,5.8821,5.8312,5.7997,5.7997,5.7997,5.7997,5.7997,5.7997,5.7694,5.7171,5.653,5.6154,5.5978,5.5998,5.5862,5.5556,5.4233,5.3673,5.3371,5.114,5.0267,5.0175,0.0,0.0,0.0,0.0,0.0,0.0,0.0,0.0,0.0,0.0,0.0,1.5339,1.4726,1.3804,1.302,1.2572,1.2128,1.1223,0.9777,0.934,0.9119,0.9119,0.9062,0.0,0.8519,0.8425,0.8117,0.7558,0.7975,0.8615,0.947,0.9252,0.957,1.0191,0.8605,0.7498,0.6708,0.5251,0.4525,0.4352,0.4406,0.4359,0.4374,0.594,0.6316,0.6073,0.5848,0.5882,0.5939,0.5054,0.4976,0.5277,0.5277,0.5309,0.5372,0.0,0.0,0.0,0.8345,0.8871,0.9681,1.3052,1.5456,1.7576,0.0,0.0,2.4893,2.5041,2.9103,3.2642,3.2371,3.3536,3.5553,3.8965,4.4361,4.9316,5.285,5.6845,6.0239,6.2687,6.4472,6.5765,6.6309,6.6387,6.6057,6.5226,6.4883,6.4282,6.3397,6.2136,6.1597,6.1878,5.9812,5.8868,5.9181,5.8364,5.7997,5.7997,5.7997,5.7997,5.7997,5.7997,5.7997,5.796,5.7923,5.7474,5.6832,5.6802,5.6379,5.5629,5.4771,5.4419,5.4154,5.1883,5.1058,5.0844,0.0,0.0,0.0,0.0,0.0,0.0,0.0,0.0,0.0,0.0,0.0,0.0,0.0,1.3882,1.3437,1.2985,1.2209,1.1375,1.0499,0.9975,0.9723,0.9723,0.9463,0.9266,0.9094,0.8622,0.8225,0.8018,0.7933,0.836,0.9243,0.9444,0.9534,0.9555,0.8247,0.7329,0.6696,0.512,0.0,0.4377,0.562,0.6533,0.7215,0.7999,0.9197,1.0242,0.0,0.0,0.7603,0.7424,0.644,0.534,0.5609,0.5672,0.5765,0.6152,0.6403,0.6781,0.7935,0.8431,0.9366,1.2494,1.5816,1.9149,2.227,2.689,3.0665,3.1734,3.5891,3.9499,4.0201,4.0063,4.0491,4.2402,4.7874,5.2734,5.516,5.8878,6.1592,6.2211,6.3238,6.3867,6.3787,6.3857,6.372,6.3338,6.3113,6.2246,6.0583,5.9764,5.9043,5.8353,5.7283,5.7007,5.7666,5.7886,5.7997,5.7997,5.7997,5.7997,5.7997,5.7997,5.7997,5.7997,5.7997,5.785,5.762,5.762,5.7474,5.7061,5.5706,5.5229,5.4901,5.259,5.1729,5.161,0.0,0.0,0.0,0.0,0.0,0.0,0.0,0.0,1.6814,1.6091,0.0,0.0,0.0,0.0,1.3917,1.302,1.19,1.0987,1.0465,0.9949,0.9671,0.9683,0.9403,0.9266,0.9266,0.8622,0.8233,0.8047,0.7817,0.8097,0.8872,0.9047,0.9165,0.919,0.7717,0.7105,0.0,0.0,0.0,0.518,0.7132,0.7969,0.8145,0.9722,1.0968,0.0,0.0,0.0,0.0,0.0,0.9152,0.7855,0.7204,0.6477,0.5955,0.639,0.6622,0.6948,0.7839,0.8346,0.9395,1.2622,1.5797,1.9491,2.4687,2.953,3.3508,3.6003,4.0467,4.4095,4.4543,4.5656,4.6623,4.7376,5.1456,5.5189,5.6911,5.9619,6.1366,6.1278,6.197,6.2411,6.2371,6.2435,6.2331,6.189,6.1728,6.0737,5.8596,5.8028,5.7225,5.6132,5.5754,5.5978,5.6785,5.7336,5.774,5.7997,5.7997,5.7997,5.7997,5.7997,5.7997,5.7997,5.7997,5.7997,5.7997,5.7997,5.785,5.751,5.642,5.5676,5.5017,5.3188,5.2306,5.1997,0.0,0.0,0.0,0.0,0.0,0.0,0.0,0.0,1.58,1.583,0.0,0.0,0.0,0.0,0.0,1.269,1.1206,1.0109,0.9609,0.911,0.8832,0.8847,0.8824,0.8837,0.8837,0.8513,0.8074,0.7589,0.7668,0.7898,0.8334,0.8109,0.8425,0.9139,0.7232,0.6895,0.7829,0.0,0.6814,0.677,0.0,0.849,0.7037,0.0,0.0,0.0,1.1357,1.222,0.0,1.2982,0.0,0.0,0.9978,0.7623,0.5931,0.6403,0.6539,0.6785,0.0,0.0,0.0,1.3381,0.0,0.0,2.6067,0.0,3.3076,3.7584,4.2631,4.6062,4.5718,5.0063,5.3792,5.3841,5.5256,5.6845,5.8068,5.8924,5.9663,6.0156,6.0813,6.1496,6.2256,6.238,6.1944,6.0965,6.0766,5.9753,5.7614,5.7056,5.6406,5.5544,5.5537,5.5941,5.6748,5.6785,5.7189,5.7997,5.7997,5.7997,5.7997,5.7997,5.7997,5.7997,5.796,5.796,5.796,5.796,5.751,5.6795,5.6759,5.575,5.4301,5.3597,5.2815,5.2029,0.0,0.0,0.0,0.0,0.0,1.9371,1.8296,1.6922,1.6143,0.0,0.0,0.0,1.4911,1.4531,1.4158,1.3676,1.2537,1.1586,1.1056,1.0123,0.9584,0.9598,0.9609,0.9588,0.9588,0.8965,0.8288,0.7518,0.7339,0.7146,0.6982,0.7508,0.7807,0.7842,0.7635,0.7277,0.6811,0.5628,0.0,0.676,0.8882,1.0479,0.0,0.0,0.0,0.0,0.0,1.6303,1.5695,0.0,1.3899,1.088,0.0,0.7525,0.6833,0.7234,0.7332,0.7437,0.814,0.0,0.0,0.0,0.0,0.0,0.0,0.0,2.8802,3.67,4.0068,4.3404,4.9103,5.215,5.4633,5.6917,5.8023,5.8524,5.8478,5.9844,6.0189,5.859,5.8927,5.9123,5.871,5.923,5.9165,0.0,5.8361,5.7548,5.5496,5.4651,5.4109,5.3849,5.4436,5.5133,5.5904,5.6528,5.7189,5.7997,5.7997,5.7997,5.7997,5.7997,5.7997,5.796,5.7354,5.7134,5.7134,5.7134,5.6978,5.6685,5.55,5.4789,5.4282,5.3506,5.3072,5.2889,0.0,0.0,2.0927,2.0088,2.0191,1.9941,1.8507,1.7667,1.7107,0.0,0.0,0.0,1.5467,1.5249,1.4828,1.4173,1.3044,1.2066,1.1266,1.0379,0.9893,0.9893,0.9893,0.9893,0.9893,0.9348,0.8585,0.7682,0.7337,0.6915,0.6439,0.6881,0.7075,0.7093,0.6951,0.6661,0.6142,0.4884,0.0,0.0,1.0356,0.0,0.0,1.5485,1.7211,0.0,0.0,0.0,1.8383,1.9439,1.6364,0.0,0.0,0.0,0.7634,0.766,0.7906,0.8274,0.8724,0.9091,0.9557,1.0325,0.0,0.0,0.0,0.0,0.0,4.0022,4.3975,4.7013,5.1069,5.3738,5.5865,5.74,5.8518,5.9054,5.8753,5.9008,5.871,5.7148,5.7312,5.7454,5.7213,5.7671,5.7703,5.7049,5.7073,5.6253,5.433,5.3563,5.3225,5.3225,5.3665,5.4436,5.5581,5.6051,5.6859,5.7997,5.7997,5.7997,5.7997,5.7997,5.7997,5.796,5.7171,5.6813,5.6765,5.6088,5.5786,5.5757,5.5153,5.4473,5.3888,5.3732,5.3524,5.3225,0.0,0.0,2.0905,2.0215,2.0607,2.0382,1.8447,1.8489,1.8401,0.0,1.7269,1.706,1.6641,1.6559,1.5887,1.4393,1.3231,1.21,1.0978,1.0302,0.9944,0.9893,0.9893,0.9893,0.9893,0.9563,0.8912,0.7895,0.7502,0.7005,0.6423,0.6249,0.6339,0.6619,0.5781,0.5516,0.5664,0.4937,0.0,0.7722,1.2402,1.3112,0.0,0.0,1.7538,1.6881,1.9956,2.095,2.1122,2.292,1.9898,0.0,0.0,0.0,0.0,0.0,0.8862,0.9863,0.985,1.0185,1.0748,1.1687,0.0,0.0,0.0,0.0,0.0,4.2652,4.7814,5.0315,4.9864,5.2555,5.4683,5.4049,5.5876,5.7616,5.8415,5.7396,5.6414,5.5965,5.6085,5.6407,5.7002,5.7126,5.7088,5.6857,5.6435,5.5496,5.3833,5.34,5.3225,5.3225,5.3225,5.4002,5.5551,5.5618,5.6381,5.7997,5.7997,5.7997,5.7997,5.7923,5.7886,5.785,5.6905,5.6536,5.6399,5.4865,5.4344,5.4454,5.5091,5.4454,5.3298,5.4007,5.3781,5.3225,1.9968,2.0338,2.0665,2.0703,2.1009,2.1188,2.0933,1.9849,1.9284,1.9998,1.892,1.7837,1.7297,1.6795,1.6182,1.5459,1.4387,1.3258,1.2149,1.1107,1.0354,0.9918,0.9893,0.9893,0.9893,0.9563,0.8919,0.7894,0.7501,0.6861,0.602,0.5967,0.5881,0.5746,0.5569,0.5393,0.5285,0.0,0.0,1.1254,1.2734,0.0,1.6314,2.0845,2.3134,2.4049,2.4639,2.4907,2.4647,2.3725,2.2326,2.0305,0.0,0.0,0.0,1.1592,0.0,0.0,0.0,0.0,0.0,0.0,0.0,0.0,0.0,1.6266,1.9206,0.0,2.8445,3.0639,3.5953,3.8028,3.9226,4.0062,4.4702,5.0241,5.6101,5.6996,5.6828,5.6192,5.6038,5.6028,5.6133,5.6665,5.6742,5.6011,5.5282,5.4409,5.3359,5.323,5.3225,5.3225,5.3225,5.4002,5.5551,5.5618,5.6381,5.7997,5.7997,5.7997,5.7997,5.7317,5.7061,5.6942,5.5477,5.4846,5.4791,5.3818,5.3818,5.4344,5.3897,5.3445,5.3225,5.3371,5.3335,5.3225,2.0534,2.0816,2.1133,2.1407,2.1663,2.178,2.1714,2.1238,2.0921,2.0872,1.96,1.85,1.7884,1.7314,1.6522,1.5392,1.4583,1.3508,1.2091,1.1185,1.0457,0.9918,0.9893,1.002,1.0302,0.9613,0.9017,0.8513,0.7711,0.6958,0.6254,0.6118,0.6718,0.7876,0.637,0.6531,0.787,0.0,0.8078,1.1162,1.4063,0.0,2.0235,2.357,2.531,2.6106,2.6953,2.7194,2.7138,2.6573,2.4054,0.0,0.0,2.093,1.9582,0.0,1.6243,1.7492,0.0,0.0,0.0,1.3317,0.0,0.0,0.0,0.0,2.0156,2.7283,2.8108,2.8868,3.314,3.4049,3.4702,3.6207,4.1832,4.6301,4.702,5.2647,5.655,5.609,5.6035,5.6001,5.5822,5.6126,5.6015,5.5172,5.4516,5.387,5.323,5.3225,5.3225,5.3225,5.3225,5.3781,5.5006,5.5397,5.6235,5.7437,5.7813,5.7813,5.74,5.6942,5.6593,5.6132,5.4899,5.4393,5.4344,5.3561,5.3408,5.3744,5.3335,5.3225,5.3225,5.3225,5.3225,5.3151,2.0805,2.1254,2.1564,2.1759,2.1905,2.1942,2.1744,2.2054,2.1932,2.0837,2.0021,1.9324,1.866,1.7839,1.6888,1.5684,1.4701,1.3588,1.2223,1.1503,1.1055,1.0716,1.02,1.0251,1.1003,0.9749,0.8972,0.8778,0.7862,0.7125,0.6586,0.6374,0.7521,0.9665,0.7917,0.8319,0.0,0.0,0.0,1.1981,0.0,1.9342,2.2089,2.519,2.6304,2.6575,2.8619,2.9456,2.9735,2.9668,2.6011,2.2066,2.4935,2.4123,0.0,0.0,0.0,0.0,0.0,0.0,0.0,0.0,0.0,1.5615,0.0,0.0,0.0,0.0,0.0,0.0,0.0,0.0,0.0,3.2224,0.0,0.0,0.0,4.5104,0.0,5.2225,5.4531,5.557,5.4149,5.3705,5.379,5.4434,5.2794,5.2195,5.3157,5.3225,5.3225,5.3225,5.3225,5.3597,5.4381,5.522,5.5941,5.6566,5.7354,5.7317,5.653,5.6438,5.5985,5.5312,5.4491,5.4154,5.4117,5.3445,5.3225,5.3225,5.3225,5.3225,5.3225,5.3225,5.3072,5.2889,1.9968,2.0632,2.1055,2.1021,2.0967,2.1045,2.1605,2.1276,2.0694,2.0009,2.0739,2.0868,1.9768,1.814,1.7377,1.8051,1.584,1.4323,1.4003,1.3257,1.3066,1.3591,1.1238,1.0612,1.2169,1.0179,0.8596,0.759,0.7477,0.7118,0.6611,0.6569,0.6892,0.76,1.0353,1.0481,0.0,0.0,1.4487,0.0,1.8823,1.8734,0.0,2.5178,2.7477,2.7921,3.134,3.3374,3.4011,0.0,2.9007,2.7477,0.0,2.5271,2.8587,1.9377,0.0,0.0,0.0,0.0,0.0,0.0,1.6666,0.0,0.0,0.0,1.5768,1.5515,0.0,0.0,0.0,0.0,0.0,0.0,0.0,0.0,2.7319,3.3262,0.0,3.8866,4.902,5.3822,4.8439,4.6499,4.8066,5.4056,4.815,4.692,5.2863,5.3225,5.3225,5.3225,5.3225,5.3597,5.4381,5.5202,5.5662,5.5743,5.653,5.6493,5.5706,5.5023,5.4638,5.4491,5.3671,5.3335,5.3335,5.3261,5.3225,5.3225,5.3225,5.3225,5.3225,5.3225,5.2815,5.2218,1.9866,2.018,2.0352,2.0321,2.0527,2.0797,2.1096,2.1482,2.1535,2.0963,2.1074,2.097,2.0418,1.9076,1.8208,0.0,0.0,1.5979,0.0,1.3931,1.3424,1.3124,1.133,1.0706,1.1399,0.9592,0.8395,0.7917,0.7275,0.6808,0.6611,0.6611,0.7708,0.9821,1.2593,0.0,1.5524,0.0,1.6273,0.0,0.0,0.0,0.0,2.6937,3.0067,3.1031,3.2517,3.4069,3.5064,0.0,3.0616,0.0,0.0,0.0,0.0,0.0,0.0,0.0,0.0,0.0,0.0,0.0,0.0,0.0,1.5266,0.0,1.4163,0.0,0.0,0.0,0.0,0.0,0.0,0.0,2.0337,0.0,0.0,0.0,0.0,0.0,0.0,0.0,4.5993,4.4825,4.6872,5.3987,4.7164,4.5771,5.2821,5.3225,5.3225,5.3225,5.3225,5.3597,5.4381,5.4754,5.514,5.5597,5.5933,5.5691,5.4869,5.4559,5.4154,5.3671,5.3335,5.3225,5.3225,5.3225,5.3225,5.3188,5.27,5.2852,5.3151,5.27,5.2364,5.1967,1.9292,1.9608,1.9739,1.9618,1.9983,2.0339,2.0408,2.1189,2.1634,2.1453,2.1032,2.096,2.1395,1.9805,0.0,0.0,1.8268,1.7189,0.0,1.4979,1.4478,1.4399,1.2409,1.1433,1.1827,0.9767,0.8502,0.8177,0.717,0.6808,0.7032,0.6851,0.8239,1.1032,1.3796,1.6854,1.9839,0.0,1.9447,2.1473,2.1697,2.2513,2.4108,2.9444,3.279,3.4739,3.4706,3.5735,3.6742,3.5563,3.2558,3.0164,3.4287,3.1986,2.7982,0.0,0.0,0.0,2.2247,0.0,0.0,0.0,0.0,0.0,0.0,0.0,0.0,0.0,0.0,0.0,0.0,0.0,0.0,0.0,0.0,1.9339,0.0,0.0,0.0,0.0,0.0,0.0,0.0,3.9888,4.1789,5.1026,4.4109,4.3483,5.2711,5.3225,5.3225,5.3225,5.2999,5.3261,5.4044,5.4069,5.4386,5.4911,5.5184,5.4828,5.4081,5.4081,5.3744,5.3225,5.3225,5.3225,5.3225,5.3225,5.3072,5.2889,5.2553,5.2498,5.2557,5.204,5.1673,5.1392,1.7896,1.8693,1.9284,1.8914,1.9061,1.9351,1.9671,1.9786,2.0021,2.0637,2.0649,2.1276,2.3008,0.0,0.0,0.0,0.0,1.7122,1.8068,0.0,1.709,1.9394,1.513,1.333,1.4632,1.1364,0.9063,0.781,0.7214,0.7336,0.8132,0.7502,0.79,0.9374,1.3606,1.6353,1.8045,2.1628,2.6025,3.0414,2.9318,3.0413,3.2793,0.0,3.5371,3.885,3.8918,0.0,0.0,3.6119,3.5448,3.5668,3.2092,3.39,0.0,0.0,0.0,0.0,0.0,0.0,0.0,1.9484,0.0,0.0,0.0,0.0,1.6066,0.0,0.0,0.0,0.0,0.0,0.0,0.0,0.0,0.0,0.0,0.0,0.0,0.0,0.0,0.0,0.0,0.0,2.9369,0.0,3.6812,3.8246,5.243,5.3225,5.3225,5.3225,5.2443,5.2443,5.3225,5.3243,5.3235,5.3298,5.4081,5.4007,5.3261,5.3261,5.3225,5.3225,5.3225,5.3225,5.3225,5.3225,5.2815,5.2218,5.2889,5.2359,5.1158,5.1106,5.0652,5.0066,1.8538,1.8814,1.8709,1.7653,1.8675,1.9902,2.0654,2.0503,2.0392,2.0596,2.0581,2.0725,2.1351,2.0271,1.995,0.0,0.0,1.9761,2.0699,1.8757,0.0,2.0194,1.6696,1.4584,1.44,1.2322,1.0612,0.9379,0.8295,0.8123,0.885,0.7729,0.8077,0.989,1.4671,1.9012,0.0,0.0,0.0,0.0,0.0,3.2043,3.5151,0.0,3.5156,3.7405,3.8704,4.005,4.1034,3.9603,3.8189,3.733,3.8198,3.6813,3.5185,3.6402,3.694,3.6526,3.3603,3.6411,3.7677,2.7265,2.6136,0.0,0.0,0.0,0.0,0.0,0.0,0.0,0.0,0.0,0.0,0.0,0.0,0.0,0.0,0.0,0.0,0.0,0.0,0.0,0.0,0.0,0.0,0.0,0.0,0.0,5.2674,5.3225,5.2962,5.2443,5.2663,5.2941,5.3225,5.3188,5.3469,5.4007,5.3708,5.3445,5.3225,5.3225,5.3225,5.3225,5.3225,5.3225,5.3225,5.3225,5.3036,5.2797,5.2074,5.1794,5.1822,5.1811,5.1373,5.0776,1.9249,1.908,1.8641,1.7864,1.9161,2.0509,2.1216,2.1651,2.1701,2.1013,2.1106,2.1252,2.1217,2.0604,2.05,0.0,2.0816,2.0815,2.1618,2.0354,0.0,2.1472,1.9499,1.8011,1.7279,1.5238,1.3497,1.2084,1.036,0.9701,1.0018,0.8594,0.8841,1.0586,1.4019,1.9194,2.5516,2.7414,3.0936,0.0,0.0,3.3969,0.0,0.0,3.5819,3.7042,4.0129,4.1781,4.271,4.3008,4.2307,4.1568,4.3256,4.1511,3.9212,4.1477,4.1566,4.0603,3.9076,4.2299,4.3733,3.389,3.279,3.1456,2.1256,0.0,1.8885,0.0,0.0,0.0,0.0,0.0,0.0,0.0,0.0,0.0,0.0,0.0,0.0,0.0,0.0,0.0,0.0,0.0,0.0,0.0,0.0,0.0,0.0,5.2364,5.2364,5.1584,5.2087,5.2471,5.2739,5.2794,5.3188,5.397,5.3445,5.3225,5.3225,5.3225,5.3225,5.3225,5.3225,5.3225,5.3225,5.3225,5.2889,5.2425,5.2019,5.1688,5.1444,5.1429,5.1327,5.1176,1.9866,1.9486,1.9093,1.9431,2.0305,2.1052,2.1335,2.3047,2.3662,2.183,2.2197,2.2589,2.2458,2.1002,2.0508,2.1861,2.089,2.0397,2.0969,2.1569,0.0,0.0,2.3463,2.326,2.2908,0.0,0.0,1.567,1.3165,1.1826,1.1603,1.0093,1.0032,1.1246,1.1824,0.0,2.5707,2.7777,3.3479,4.0891,3.7739,3.6488,3.6469,3.7271,3.7456,3.8055,4.3148,4.5081,4.5244,4.6035,4.715,4.8056,4.6956,4.7406,4.8425,4.8862,4.9647,4.9598,4.5571,4.5781,4.5594,3.9236,3.7435,3.5296,2.7647,2.6502,2.5959,0.0,0.0,0.0,0.0,0.0,0.0,0.0,0.0,0.0,0.0,0.0,0.0,0.0,0.0,0.0,0.0,0.0,0.0,0.0,0.0,0.0,0.0,0.0,5.1255,5.0733,5.0772,5.1143,5.1883,5.1956,5.2364,5.3072,5.3188,5.3188,5.3151,5.3188,5.3225,5.3225,5.3225,5.3225,5.3225,5.3188,5.2328,5.1286,5.2615,5.1892,5.0215,5.0215,5.0713,5.1329,2.0069,2.0331,2.0643,2.0733,2.0475,2.0733,2.2053,2.3025,2.3097,2.1778,2.2282,2.2311,2.0959,2.0415,2.0381,2.0943,2.0783,0.0,0.0,0.0,0.0,2.7149,2.5634,2.4614,2.4218,2.1199,1.9139,1.8182,1.4347,1.2436,1.2306,1.0931,1.07,1.1473,0.0,1.7494,2.5343,2.7019,3.2411,3.9698,3.831,3.7213,3.6656,4.0321,4.0715,3.9834,4.3685,4.5675,4.6584,4.6855,4.7489,4.8264,4.8834,4.9193,4.9572,5.0563,5.1166,5.1263,5.0167,5.0827,5.0625,4.588,4.2828,3.97,3.4645,3.322,3.2474,0.0,0.0,0.0,0.0,0.0,0.0,0.0,0.0,0.0,0.0,0.0,0.0,0.0,0.0,0.0,0.0,0.0,0.0,0.0,0.0,0.0,0.0,0.0,0.0,4.9774,5.0522,5.0698,5.0283,5.1475,5.1919,5.1621,5.27,5.2926,5.2364,5.2962,5.3225,5.3225,5.3225,5.3225,5.3188,5.259,5.2181,5.1821,5.1741,5.1683,5.1763,5.1763,5.2269,5.2944,2.1068,2.1887,0.0,2.2192,2.1984,2.1963,2.2405,2.3529,2.3682,2.1825,2.2531,2.2766,2.1775,2.1562,2.1837,2.299,2.299,0.0,2.5818,0.0,0.0,2.8284,2.7984,2.7696,2.7409,2.5528,0.0,2.091,1.7647,1.5151,1.3379,1.1567,1.1072,1.1722,0.0,1.7007,2.3445,2.9767,3.4677,3.8492,4.0494,4.0865,0.0,4.3355,4.4643,4.5076,4.6719,4.7591,4.8136,4.8702,4.9198,4.9651,5.0534,5.0543,5.0512,5.1803,5.2006,5.1993,5.2454,5.3549,5.3879,5.156,4.9564,4.6787,4.1677,3.9606,3.8242,3.65,3.603,3.561,0.0,0.0,0.0,0.0,0.0,0.0,0.0,0.0,0.0,0.0,0.0,0.0,0.0,0.0,0.0,0.0,0.0,0.0,0.0,0.0,0.0,4.8157,4.8343,4.8799,4.9811,4.9655,5.0247,5.1548,5.233,5.2642,5.259,5.2999,5.3225,5.3225,5.3225,5.2999,5.2663,5.2254,5.1756,5.1173,5.1218,5.1828,5.2809,5.2809,5.3079,5.3518,2.2432,0.0,0.0,0.0,0.0,2.3758,2.2791,2.4241,2.4547,2.1912,2.2957,2.3866,2.3436,2.3436,2.4219,2.5862,2.6004,2.6004,2.6004,2.7537,2.8443,2.8443,3.0257,3.1191,3.1191,3.0743,2.8233,0.0,2.1361,1.8238,1.4153,1.1964,1.1227,1.1859,0.0,0.0,0.0,3.3533,3.8162,3.8402,4.3357,4.5441,4.5715,4.6566,4.8649,5.1149,5.0951,5.0248,4.974,5.0832,5.1229,5.1289,5.1991,5.1664,5.1349,5.2924,5.2798,5.2312,5.328,5.4454,5.5437,5.5667,5.5569,5.4005,4.8451,4.5993,4.4189,4.1489,3.8637,3.826,4.3739,0.0,0.0,0.0,0.0,0.0,0.0,0.0,0.0,0.0,0.0,0.0,0.0,0.0,0.0,0.0,0.0,0.0,0.0,0.0,0.0,4.6574,4.5888,4.6656,4.9104,4.7751,4.8424,5.1257,5.1931,5.2467,5.2926,5.2999,5.2999,5.2926,5.2926,5.2553,5.1956,5.1835,5.1189,5.0249,5.0959,5.2169,5.3518,5.3518,5.3518,5.3518,2.3727,0.0,0.0,0.0,0.0,2.3625,2.4567,2.4443,2.3603,2.1701,2.3922,2.5171,2.3779,2.4696,2.5611,2.6033,2.6033,2.6491,2.7819,2.8165,2.904,3.0412,3.1836,3.2758,3.2758,3.2013,2.9507,0.0,2.1623,1.7498,1.2657,1.1555,1.1124,1.1285,0.0,0.0,2.784,3.3408,0.0,4.3255,4.5335,4.6732,4.7819,4.9587,5.0869,5.2063,5.3644,5.3084,5.1656,5.1289,5.1229,5.1503,5.3526,5.3196,5.2429,5.4567,5.4293,5.328,5.3416,5.3685,5.4171,5.5379,5.5182,5.4558,5.4034,5.3151,5.216,5.0993,5.0528,4.8911,4.4271,0.0,0.0,0.0,0.0,0.0,0.0,0.0,0.0,0.0,0.0,0.0,0.0,0.0,0.0,0.0,0.0,0.0,0.0,0.0,0.0,0.0,4.7331,0.0,0.0,0.0,4.9059,4.6632,5.0945,5.2462,5.1511,5.2029,5.1993,5.1475,5.1475,5.1402,5.1231,5.0627,5.0626,5.1014,5.1127,5.2169,5.3518,5.3518,5.3518,5.3518,2.6647,0.0,0.0,0.0,0.0,2.5063,2.57,2.5392,2.4767,2.4008,2.5299,2.6269,2.6244,2.7085,2.7984,2.875,2.9058,2.9521,3.0276,3.1054,3.1973,3.2779,3.3947,3.4755,3.5067,3.489,3.2169,2.6634,2.4025,1.9623,1.36,1.2349,1.1493,1.1315,0.0,2.2113,0.0,3.6752,4.2105,4.5572,4.8963,5.107,5.231,5.3242,5.4371,5.553,5.5862,5.5251,5.4427,5.3745,5.331,5.328,5.4851,5.4364,5.3542,5.5171,5.4669,5.3518,5.3518,5.4076,5.4818,5.5552,5.5705,5.5703,5.5623,5.4987,5.4179,5.3371,5.3524,5.17,4.4685,3.6748,0.0,0.0,0.0,0.0,0.0,0.0,0.0,0.0,0.0,0.0,0.0,0.0,0.0,0.0,0.0,0.0,0.0,0.0,0.0,0.0,0.0,0.0,4.6689,0.0,4.7679,4.7805,5.0353,5.1402,5.1098,5.1415,5.144,5.1105,5.1105,5.0875,5.0506,5.0179,5.0509,5.1281,5.1595,5.2472,5.3518,5.3518,5.3518,5.3518,0.0,2.8784,0.0,0.0,2.7566,2.7044,2.7146,2.692,2.6603,2.6409,2.6645,2.7462,2.8748,2.9394,3.0411,3.2018,3.2534,3.2852,3.3191,3.4351,3.5061,3.4962,3.6258,3.7196,3.7539,3.8258,3.5736,2.9683,2.7252,2.269,1.6104,1.358,1.2728,1.3532,2.0693,2.626,3.0858,4.0379,4.5504,4.7683,5.2476,5.4988,5.6003,5.6189,5.734,5.8659,5.7715,5.7268,5.7258,5.6829,5.57,5.4804,5.5852,5.5231,5.4228,5.5383,5.4635,5.3518,5.3518,5.4482,5.5504,5.5638,5.6284,5.6639,5.597,5.5244,5.4436,5.3628,5.3716,5.1865,4.508,4.0368,3.6596,0.0,0.0,0.0,0.0,0.0,0.0,0.0,0.0,0.0,0.0,0.0,0.0,0.0,0.0,0.0,0.0,0.0,0.0,0.0,0.0,4.4443,4.6457,0.0,4.6749,4.9005,4.9862,5.0458,5.0854,5.0841,5.0776,5.0611,5.0611,5.0311,4.978,5.0011,5.0487,5.1269,5.2032,5.2775,5.3518,5.3518,5.3518,5.3518,0.0,0.0,0.0,0.0,2.845,2.9268,2.9987,2.9361,2.8235,2.6743,2.7903,2.9067,2.9596,3.0937,3.2495,3.4073,3.4213,3.4896,3.629,3.6624,3.6682,3.6635,3.8583,3.9673,3.9722,4.1472,4.0217,3.5615,3.0684,2.5528,2.012,1.5171,1.5413,2.0173,2.2954,2.991,3.9653,4.2065,4.6384,5.18,5.406,5.54,5.6092,5.7238,5.8141,5.8875,5.9218,5.9305,5.9287,5.9557,5.7398,5.4825,5.5888,5.5222,5.4228,5.5383,5.4635,5.3518,5.3518,5.4097,5.4828,5.5525,5.6309,5.6876,5.6722,5.6051,5.5244,5.4436,5.4354,5.237,4.5515,4.6417,4.5197,3.5875,0.0,0.0,0.0,0.0,0.0,0.0,0.0,0.0,0.0,0.0,0.0,0.0,0.0,0.0,0.0,0.0,0.0,3.9966,0.0,4.0192,3.8309,4.5707,4.823,4.5898,4.9342,5.0669,5.0103,5.01,4.978,4.9215,4.9215,4.9182,4.9182,4.9814,5.0541,5.1263,5.2034,5.2775,5.3518,5.3518,5.3518,5.3518,3.1145,3.0896,3.0671,3.0458,2.9815,2.9808,3.1313,3.125,3.1188,3.1725,3.1321,3.1367,3.2495,3.3435,3.4613,3.6227,3.6531,3.7015,3.7708,3.8938,3.9616,3.9563,4.1286,4.2413,4.2722,4.2946,4.1697,3.9051,3.2502,2.7371,2.3683,2.059,2.1871,2.6995,3.1957,3.7256,4.2819,4.7509,5.1587,5.4922,5.6168,5.7276,5.8162,5.8672,5.9722,6.0935,6.0684,6.0561,6.0606,6.0748,5.9268,5.7263,5.7229,5.6197,5.508,5.5553,5.4635,5.3518,5.3518,5.4359,5.5306,5.5631,5.6629,5.7412,5.6905,5.6173,5.5367,5.4553,5.4466,5.364,5.0926,4.791,4.5879,4.5965,0.0,0.0,0.0,0.0,0.0,0.0,0.0,0.0,0.0,0.0,0.0,0.0,0.0,0.0,0.0,0.0,0.0,3.4359,0.0,4.4249,4.0032,4.6229,4.8787,4.7569,4.9086,4.9712,4.9413,4.9413,4.9249,4.9018,4.9018,4.9018,4.9086,5.0277,5.0977,5.1363,5.2505,5.3213,5.3518,5.3518,5.3518,5.3518,3.2542,3.2004,3.1837,3.275,3.2377,3.2331,3.3637,3.3758,3.4383,3.5862,3.4831,3.4345,3.5508,3.584,3.6751,3.8387,3.8712,3.9125,3.981,4.1261,4.2139,4.2356,4.3587,4.4694,4.547,4.491,4.4328,4.3747,3.7094,3.2639,3.006,2.6964,2.839,3.3776,3.9013,4.3105,4.6355,5.1809,5.4813,5.6074,5.7405,5.8554,5.9588,6.0147,6.1189,6.2347,6.1784,6.1649,6.1616,6.1369,6.0401,5.9208,5.8462,5.7229,5.5934,5.5758,5.4839,5.3788,5.3551,5.4601,5.5675,5.5695,5.684,5.785,5.7281,5.6456,5.5542,5.4742,5.4354,5.4208,5.4457,4.9827,4.6963,5.0057,4.7388,0.0,0.0,0.0,0.0,0.0,0.0,0.0,3.8201,0.0,0.0,0.0,0.0,0.0,0.0,0.0,0.0,0.0,0.0,0.0,4.1869,4.6586,4.9018,4.9018,4.9018,4.9018,4.9018,4.9018,4.9018,4.9018,4.9018,4.9018,4.9086,5.0577,5.1244,5.1363,5.291,5.3518,5.3518,5.3518,5.3518,5.3518,3.2959,3.4737,3.5927,3.4687,3.6422,3.7922,3.7634,3.7506,3.7663,3.8156,3.8082,3.8096,3.8188,3.8111,3.8805,4.0371,4.0571,4.1471,4.3548,4.3736,4.3966,4.4569,4.5105,4.613,4.758,4.8197,4.9092,5.059,4.6008,4.2695,4.0482,3.3854,3.4272,4.0518,4.2052,4.59,5.1444,5.3628,5.4622,5.4895,5.7465,5.8908,5.9834,6.1683,6.2381,6.2381,6.2381,6.2381,6.2313,6.1503,6.0774,5.9957,5.9174,5.7949,5.6655,5.5928,5.5178,5.4398,5.372,5.4601,5.5726,5.5713,5.6868,5.7997,5.7997,5.7061,5.599,5.5227,5.4093,5.3497,5.4319,5.3255,5.027,4.4353,4.7738,4.902,0.0,0.0,0.0,0.0,3.3705,3.1523,4.0312,0.0,0.0,0.0,0.0,0.0,0.0,0.0,0.0,4.1375,4.2488,0.0,4.1776,4.6586,4.9018,4.9018,4.9018,4.9018,4.9018,4.9018,4.9018,4.9018,4.9018,4.9018,4.9086,5.0577,5.1244,5.1363,5.291,5.3518,5.3518,5.3518,5.3518,5.3518,3.6564,3.7345,3.7846,3.7702,3.8321,3.8868,3.9123,3.9228,3.9658,4.0805,4.0948,4.1353,4.2421,4.1236,4.1046,4.2658,4.3075,4.3574,4.43,4.5617,4.6569,4.6692,4.8197,4.9265,4.9714,4.9908,5.0696,5.2238,4.6778,4.3598,4.2816,4.0662,4.2395,4.7336,4.8825,5.1177,5.4186,5.5875,5.7253,5.8502,5.9836,6.056,6.0875,6.1998,6.2381,6.2381,6.2381,6.2381,6.2347,6.2099,6.1503,6.0829,6.0007,5.809,5.5996,5.5808,5.4801,5.3788,5.3551,5.4601,5.5692,5.5677,5.6868,5.7997,5.7997,5.708,5.616,5.6014,5.4802,5.3743,5.3741,5.3031,5.1597,4.9075,5.01,5.0503,4.8467,0.0,4.6014,4.312,3.8616,3.7414,0.0,3.407,0.0,0.0,0.0,0.0,0.0,0.0,0.0,0.0,4.3562,0.0,4.184,4.6586,4.9018,4.9018,4.9018,4.9018,4.9018,4.9018,4.9018,4.9018,4.9018,4.9018,4.9086,5.0577,5.1244,5.1363,5.291,5.3518,5.3518,5.3518,5.3518,5.3518,3.8792,3.9186,3.9449,3.9933,4.0036,4.0176,4.0693,4.0622,4.0739,4.1832,4.1971,4.2487,4.3851,4.2953,4.2818,4.397,4.4941,4.5551,4.577,4.7545,4.8603,4.8846,5.0064,5.0953,5.1594,5.1518,5.231,5.3799,5.0054,4.8109,4.8018,4.7996,4.9615,5.2699,5.3904,5.5137,5.6329,5.7853,5.9089,6.0197,6.0974,6.147,6.1751,6.2245,6.2381,6.2381,6.2381,6.2381,6.2381,6.2381,6.193,6.1099,6.0047,5.8073,5.6029,5.5774,5.4871,5.3822,5.3551,5.4364,5.5352,5.5641,5.6685,5.7657,5.796,5.7092,5.628,5.6555,5.4988,5.3514,5.3404,5.264,5.1814,5.1286,5.1211,5.0842,4.9826,4.8166,4.563,0.0,0.0,0.0,0.0,3.846,3.7051,0.0,0.0,0.0,0.0,0.0,0.0,3.9831,4.6418,4.8259,4.457,4.7502,4.9018,4.9018,4.9018,4.9018,4.9018,4.9018,4.9018,4.9018,4.9018,4.9018,4.9086,5.0577,5.1244,5.1363,5.291,5.3315,5.3079,5.3416,5.3281,5.3079,4.0173,4.0714,4.1157,4.1635,4.1531,4.1681,4.2183,4.1806,4.1455,4.1455,4.1455,4.194,4.2972,4.3639,4.4244,4.4744,4.6115,4.725,4.7863,4.927,5.0335,5.0803,5.0977,5.1657,5.3082,5.3213,5.39,5.537,5.5179,5.516,5.5258,5.507,5.5553,5.6577,5.7329,5.7823,5.8163,5.9622,6.0248,6.0315,6.1088,6.1784,6.2381,6.2381,6.2381,6.2381,6.2381,6.2381,6.2381,6.2381,6.1964,6.1088,5.9522,5.8035,5.6727,5.5894,5.511,5.4364,5.372,5.4093,5.4815,5.5548,5.6317,5.7208,5.7997,5.7212,5.6499,5.6994,5.4874,5.3022,5.3347,5.2226,5.1211,5.1211,5.1055,5.0078,4.7656,4.7035,4.4743,3.9119,3.8103,3.9167,4.2472,4.2151,4.4189,0.0,0.0,0.0,0.0,0.0,3.8294,5.07,5.0311,4.9616,4.9018,4.9018,4.9018,4.9018,4.9018,4.9018,4.9018,4.9018,4.9018,4.9018,4.9018,4.9018,4.9086,5.0543,5.1112,5.1262,5.2809,5.2944,5.2337,5.3078,5.291,5.2438,4.4402,4.4491,4.4426,4.455,4.3811,4.3263,4.3388,4.2936,4.2585,4.2585,4.3413,4.4115,4.4401,4.5475,4.6141,4.625,4.7415,4.8699,4.9956,5.1421,5.2347,5.2427,5.352,5.4268,5.4678,5.4678,5.5239,5.6597,5.6496,5.6836,5.7488,5.7508,5.7515,5.7615,5.8858,5.953,5.9655,6.1189,6.1818,6.1818,6.2066,6.2279,6.2381,6.2381,6.2381,6.2381,6.2381,6.2381,6.2381,6.2381,6.2313,6.1751,5.9655,5.8383,5.7261,5.5417,5.433,5.3754,5.3551,5.4432,5.5448,5.5646,5.6725,5.7997,5.886,5.8336,5.7712,5.794,5.6071,5.4254,5.3659,5.2344,5.1367,5.1367,4.9687,4.8125,4.7383,4.5529,4.3858,4.2936,4.2431,4.3428,4.6557,4.6358,4.5317,0.0,0.0,0.0,4.4657,4.1268,4.2923,5.0864,4.9848,4.9182,4.9018,4.9018,4.9018,4.9018,4.9018,4.9018,4.9018,4.9018,4.9018,4.9018,4.9018,4.9018,4.9052,4.9977,5.0345,5.0492,5.1967,5.2135,5.1598,5.2286,5.2428,5.2371,4.613,4.5648,4.5095,4.5095,4.374,4.2685,4.2685,4.25,4.2365,4.2365,4.3465,4.4474,4.4908,4.5581,4.6487,4.7679,4.8342,4.9282,5.0738,5.2261,5.3331,5.3989,5.4738,5.5179,5.5179,5.5711,5.6627,5.7861,5.8342,5.8874,5.9343,5.9935,6.0114,5.9968,6.0808,6.1155,6.1189,6.2032,6.2381,6.2381,6.2381,6.2381,6.2381,6.2381,6.2381,6.2381,6.2381,6.2381,6.2381,6.2381,6.1964,6.1021,5.9097,5.7735,5.6541,5.4635,5.3822,5.3518,5.3518,5.4093,5.4832,5.5518,5.6861,5.8263,5.92,5.871,5.825,5.888,5.6819,5.4757,5.4362,5.2695,5.1406,5.1406,4.9219,4.7455,4.7312,4.4976,4.3926,4.5571,4.5419,4.648,4.9855,4.982,4.8726,4.6843,4.7139,0.0,4.7362,4.6477,4.751,5.1001,4.9746,4.9018,4.9018,4.9018,4.9018,4.9018,4.9018,4.9018,4.9018,4.9018,4.9018,4.9018,4.9018,4.9018,4.9052,4.978,5.0067,5.0219,5.1386,5.1327,5.0794,5.1503,5.16,5.1355,4.61,4.5271,4.4593,4.4518,4.2811,4.143,4.1544,4.1647,4.1796,4.1887,4.3026,4.4177,4.501,4.54,4.6461,4.874,4.9009,4.9649,5.0909,5.2209,5.3532,5.5119,5.5179,5.537,5.5711,5.6732,5.785,5.9083,6.0102,6.0707,6.0875,6.1964,6.2381,6.2381,6.2313,6.2245,6.2245,6.2099,6.2032,6.2066,6.2167,6.2133,6.2066,6.2167,6.2133,6.2032,6.2032,6.1998,6.193,6.193,6.0909,5.9488,5.803,5.6718,5.5416,5.3957,5.3518,5.3518,5.3518,5.3686,5.42,5.5677,5.7061,5.8263,5.92,5.8823,5.8519,5.9427,5.731,5.5225,5.5106,5.3281,5.1484,5.0586,4.8555,4.6892,4.637,4.4636,4.453,4.753,4.7853,4.9144,5.239,5.2364,5.248,5.3151,5.3225,5.3225,5.3225,5.1846,5.1131,5.107,4.9746,4.9018,4.9018,4.9018,4.9018,4.9018,4.9018,4.9018,4.9018,4.9018,4.9018,4.9018,4.9018,4.9018,4.9052,4.9712,4.9943,5.0011,5.0776,5.0574,5.0026,5.0764,5.0611,5.0187,4.507,4.4744,4.4468,4.4016,4.2861,4.229,4.2814,4.2574,4.2545,4.3081,4.4349,4.5173,4.5373,4.6836,4.794,4.8327,4.8951,4.9846,5.1046,5.1387,5.2506,5.4899,5.4988,5.5992,5.8206,5.8446,5.907,6.0373,6.0491,6.1122,6.2099,6.2313,6.2381,6.2381,6.1751,6.147,6.1436,6.0774,6.046,6.0528,6.1189,6.1088,6.0528,6.1189,6.1054,6.046,6.046,6.0035,5.9555,5.9555,5.8964,5.7953,5.6494,5.5894,5.5416,5.3957,5.3518,5.3518,5.3518,5.4398,5.5726,5.7266,5.785,5.8263,5.92,5.9273,5.9119,5.875,5.7794,5.6627,5.5351,5.4297,5.1914,4.6758,4.5469,4.4351,4.2034,4.3124,4.5477,4.9163,5.1155,5.2552,5.3487,5.3261,5.3072,5.3188,5.3225,5.3225,5.3225,5.1846,5.1131,5.107,4.9746,4.9018,4.9018,4.9018,4.9018,4.9018,4.9018,4.9018,4.9018,4.9018,4.9018,4.9018,4.9018,4.9018,4.9018,4.9086,4.9182,4.9249,4.9977,4.982,4.9232,4.9983,5.0209,5.0113,4.4794,4.4392,4.4091,4.384,4.2886,4.2276,4.2618,4.3145,4.3633,4.4373,4.5924,4.7227,4.7933,4.8773,4.9494,4.9823,5.0152,5.0849,5.2119,5.2458,5.3806,5.6352,5.6866,5.7924,5.9766,5.9729,6.0315,6.1537,6.1537,6.1818,6.2381,6.291,6.291,6.2448,6.2595,6.2411,6.2002,6.1578,6.1442,6.1476,6.1824,6.152,6.0852,6.1215,6.057,5.9532,5.9532,5.9043,5.8429,5.8428,5.7645,5.6588,5.5894,5.5144,5.4364,5.372,5.3763,5.4103,5.4083,5.5209,5.6527,5.7229,5.7694,5.8263,5.92,5.9386,5.9388,5.9311,5.8304,5.7109,5.6094,5.4844,5.2617,4.8359,4.7525,4.6976,4.5674,4.6219,4.7949,5.1334,5.239,5.2999,5.3408,5.3298,5.3225,5.3225,5.3225,5.3225,5.3225,5.1846,5.1131,5.107,4.9746,4.9018,4.9018,4.9018,4.9018,4.9018,4.9018,4.9018,4.9018,4.9018,4.9018,4.9018,4.9018,4.9018,4.9018,4.9018,4.9018,4.9018,4.9351,4.9283,4.9018,4.9351,4.9514,4.9514,4.4418,4.4116,4.3915,4.3664,4.2911,4.2393,4.2595,4.3824,4.4995,4.5832,4.7556,4.9194,5.0331,5.0601,5.09,5.1409,5.1588,5.2181,5.3365,5.4372,5.5764,5.7856,5.8987,6.0114,6.1021,6.1054,6.1537,6.2696,6.2696,6.2696,6.273,6.3396,6.3273,6.2565,6.3058,6.2927,6.2363,6.2156,6.2086,6.2086,6.2328,6.1884,6.1143,6.1101,6.0164,5.871,5.8549,5.7933,5.7111,5.7124,5.6268,5.5178,5.5178,5.4398,5.3518,5.3518,5.4125,5.4943,5.5284,5.6097,5.6942,5.7134,5.7584,5.8263,5.92,5.9386,5.9504,5.9911,5.8771,5.7539,5.6992,5.5625,5.3476,4.9922,4.9781,4.9826,4.9088,4.9048,5.0199,5.3136,5.3084,5.2926,5.3188,5.3225,5.3225,5.3225,5.3225,5.3225,5.3225,5.1846,5.094,5.0632,4.9548,4.9018,4.9018,4.9018,4.9018,4.9018,4.9018,4.9018,4.9018,4.9018,4.9018,4.9018,4.9018,4.9018,4.9018,4.9018,4.9018,4.9018,4.9018,4.9018,4.9018,4.9018,4.9018,4.9018,4.3413,4.389,4.4242,4.3212,4.2961,4.3153,4.3859,4.511,4.6473,4.7835,4.9228,5.0361,5.1079,5.1678,5.2067,5.2127,5.2695,5.3572,5.4638,5.6518,5.7851,5.8493,6.0859,6.2133,6.2279,6.2279,6.2696,6.3611,6.3611,6.3645,6.3679,6.3713,6.3345,6.2566,6.1931,6.1615,6.1558,6.0835,6.0565,6.0602,6.1287,6.1126,6.0467,6.0423,5.94,5.7993,5.7261,5.6064,5.4873,5.4873,5.433,5.3686,5.3686,5.3585,5.3518,5.3518,5.4499,5.5925,5.735,5.7334,5.7061,5.773,5.796,5.8263,5.92,5.9386,5.9504,5.9911,5.9238,5.8437,5.789,5.7031,5.4453,4.8476,4.9456,5.0107,4.7451,4.8733,5.1026,5.4049,5.3981,5.3597,5.3225,5.3225,5.3225,5.3225,5.3225,5.3225,5.3225,5.1846,5.0498,4.9209,4.9052,4.9018,4.9018,4.9018,4.9018,4.9018,4.9018,4.9018,4.9018,4.9018,4.9018,4.9018,4.9018,4.9018,4.9018,4.9018,4.9018,4.9018,4.9018,4.9018,4.9018,4.9018,4.9018,4.9018,4.3162,4.3313,4.3463,4.3062,4.2986,4.3235,4.3781,4.5154,4.656,4.7847,4.931,5.081,5.2276,5.2665,5.3144,5.3982,5.4281,5.5226,5.7204,5.7974,5.922,6.0893,6.1874,6.2381,6.2381,6.1964,6.1852,6.2245,6.2263,6.2301,6.2336,6.3377,6.3444,6.2662,6.2975,6.2805,6.2315,6.2008,6.1898,6.1898,6.1665,6.1103,6.0354,5.9809,5.8363,5.6549,5.6235,5.5178,5.389,5.389,5.3754,5.3518,5.3518,5.3518,5.3585,5.4059,5.4569,5.5376,5.6891,5.7474,5.7657,5.7923,5.8226,5.8603,5.9237,5.9647,5.9873,5.9988,5.9316,5.8555,5.8008,5.7187,5.5234,5.1133,5.258,5.3263,5.0406,5.1617,5.3236,5.4371,5.3897,5.3371,5.3225,5.3225,5.3225,5.3225,5.3225,5.3225,5.3225,5.183,5.0424,4.908,4.9018,4.9018,4.9018,4.9018,4.9018,4.9018,4.9018,4.9018,4.9018,4.9018,4.9018,4.9018,4.9018,4.9018,4.9018,4.9018,4.9018,4.9018,4.9018,4.9018,4.9018,4.9018,4.9018,4.9018,4.3112,4.3112,4.3187,4.3011,4.2986,4.331,4.4,4.5475,4.6948,4.8415,4.9882,5.1439,5.3025,5.3174,5.3729,5.5024,5.5115,5.5896,5.7962,5.8233,5.9411,6.1953,6.1784,6.1683,6.1683,6.1155,6.1032,6.1341,6.1406,6.143,6.1475,6.2654,6.2768,6.2008,6.2645,6.2608,6.2045,6.2045,6.2045,6.2008,6.1435,6.0885,6.0274,5.9481,5.8049,5.6383,5.5924,5.4907,5.3822,5.3551,5.3518,5.3518,5.3518,5.3518,5.3585,5.4093,5.4627,5.5189,5.6221,5.7229,5.7997,5.7997,5.8336,5.8821,5.9318,5.9551,5.9758,5.995,5.9082,5.8203,5.7969,5.7187,5.5937,5.3906,5.5073,5.5472,5.3409,5.393,5.4509,5.4482,5.3708,5.3225,5.3225,5.3225,5.3225,5.3225,5.3225,5.3072,5.2889,5.1735,5.0543,4.9317,4.9086,4.9018,4.9018,4.9018,4.9018,4.9018,4.9018,4.9018,4.9018,4.9018,4.9018,4.9018,4.9018,4.9018,4.9018,4.9018,4.9018,4.9018,4.9018,4.9018,4.9018,4.9018,4.9018,4.9018,4.3187,4.3413,4.3614,4.3062,4.2986,4.3492,4.4833,4.6188,4.7857,4.9954,5.1385,5.2456,5.3114,5.3174,5.3627,5.4792,5.4885,5.5312,5.6408,5.6956,5.8432,6.1144,6.0494,6.0114,6.0114,6.0114,6.0545,6.1483,6.1483,6.1506,6.1579,6.1579,6.1126,6.0418,6.0418,6.0418,6.0418,6.0418,6.0418,6.0432,6.0415,6.0407,6.0296,5.9504,5.875,5.7898,5.6272,5.5213,5.4499,5.3754,5.3518,5.3518,5.3518,5.3518,5.3518,5.3518,5.4544,5.5683,5.5709,5.6816,5.7997,5.7997,5.8336,5.8842,5.9278,5.9081,5.9042,5.9835,5.8615,5.75,5.7851,5.7187,5.6523,5.625,5.6212,5.6071,5.5742,5.4989,5.4509,5.4482,5.3708,5.3225,5.3225,5.3225,5.3225,5.3225,5.3225,5.2889,5.2145,5.1489,5.0741,5.0011,4.9317,4.9018,4.9018,4.9018,4.9018,4.9018,4.9018,4.9018,4.9018,4.9018,4.9018,4.9018,4.9018,4.9018,4.9018,4.9018,4.9018,4.9018,4.9018,4.9018,4.9018,4.9018,4.9018,4.9018,4.3037,4.3112,4.3162,4.3011,4.3797,4.4666,4.552,4.7295,4.8966,4.9925,5.0875,5.1768,5.2426,5.2486,5.2858,5.3693,5.3723,5.4293,5.5799,5.5845,5.6546,5.8096,5.8446,5.8579,5.8579,5.8059,5.8174,5.8987,5.9055,5.9423,5.9962,6.0482,6.0642,6.0367,6.0367,6.0367,6.0367,6.0367,6.0367,6.0331,5.9799,5.9578,5.9412,5.8115,5.7101,5.6313,5.525,5.446,5.3788,5.3551,5.3518,5.3518,5.3518,5.3518,5.3584,5.4092,5.4548,5.5168,5.626,5.649,5.6685,5.773,5.8107,5.8317,5.8448,5.8481,5.8581,5.9018,5.8208,5.75,5.7851,5.7187,5.6523,5.625,5.6212,5.6071,5.5742,5.4989,5.4509,5.4482,5.3708,5.3225,5.3225,5.3225,5.3225,5.3225,5.3225,5.2663,5.1475,5.122,5.0541,4.9311,4.9086,4.9018,4.9018,4.9018,4.9018,4.9018,4.9018,4.9018,4.9018,4.9018,4.9018,4.9018,4.9018,4.9018,4.9018,4.9018,4.9018,4.9018,4.9018,4.9018,4.9018,4.9018,4.9018,4.9018,4.3011,4.2986,4.2986,4.2986,4.3713,4.4557,4.5441,4.6719,4.7847,4.8748,4.9814,5.053,5.0943,5.1512,5.2137,5.297,5.362,5.4141,5.4528,5.481,5.5141,5.5455,5.5938,5.643,5.7012,5.691,5.7012,5.7494,5.7855,5.8254,5.8765,5.9214,5.9465,5.9467,5.9467,5.9467,5.9467,5.9467,5.9467,5.943,5.8897,5.875,5.8621,5.7695,5.685,5.6078,5.5299,5.4565,5.3881,5.3618,5.3518,5.3518,5.3518,5.3518,5.3651,5.4406,5.479,5.527,5.6183,5.6317,5.6291,5.6867,5.7344,5.7645,5.7634,5.772,5.7857,5.8115,5.7517,5.7031,5.7344,5.6953,5.6523,5.625,5.6212,5.6071,5.5742,5.5143,5.4661,5.4519,5.3897,5.3371,5.3225,5.3225,5.3225,5.3225,5.3225,5.2852,5.1956,5.1394,5.0716,4.9841,4.9283,4.9018,4.9018,4.9018,4.9018,4.9018,4.9018,4.9018,4.9018,4.9018,4.9018,4.9018,4.9018,4.9018,4.9018,4.9018,4.9018,4.9018,4.9018,4.9018,4.9018,4.9018,4.9018,4.8951,4.3087,4.2986,4.2986,4.2986,4.3073,4.3602,4.4833,4.5155,4.5661,4.6888,4.8283,4.9075,4.9075,5.0265,5.1453,5.2479,5.3725,5.4055,5.2935,5.3756,5.4018,5.3551,5.3518,5.4127,5.545,5.6268,5.6641,5.6698,5.7546,5.796,5.7997,5.7997,5.7997,5.7997,5.7997,5.7997,5.7997,5.7997,5.7997,5.7997,5.7997,5.7997,5.7997,5.795,5.7449,5.6668,5.5893,5.5144,5.4356,5.3717,5.3518,5.3484,5.3483,5.3516,5.3615,5.4371,5.5051,5.5628,5.5666,5.6127,5.6397,5.5729,5.6116,5.6685,5.6792,5.6862,5.6977,5.7247,5.6729,5.6289,5.6562,5.6601,5.6523,5.625,5.6212,5.6071,5.5742,5.5357,5.4969,5.4535,5.4096,5.3634,5.3261,5.3225,5.3225,5.3225,5.3225,5.3188,5.3072,5.1882,5.1115,5.1008,4.9746,4.9052,4.9018,4.9018,4.9018,4.9018,4.9018,4.9018,4.9018,4.9018,4.9018,4.9018,4.9018,4.9018,4.9018,4.9018,4.9018,4.9018,4.9018,4.9018,4.9018,4.9018,4.8951,4.8726,4.2762,4.2986,4.2986,4.2986,4.3907,4.4617,4.4941,4.5978,4.6785,4.7094,4.7914,4.8413,4.8413,4.9174,4.9764,5.0005,4.99,5.0383,5.1653,5.1502,5.1933,5.345,5.3518,5.3619,5.3991,5.4669,5.5382,5.5974,5.6744,5.7437,5.7997,5.7997,5.7997,5.7997,5.7997,5.7997,5.7997,5.7997,5.7997,5.7997,5.7997,5.7997,5.795,5.7351,5.6668,5.5836,5.5084,5.4391,5.3717,5.3551,5.3518,5.3516,5.3421,5.3404,5.3575,5.4295,5.4594,5.49,5.5458,5.5294,5.4969,5.5096,5.5061,5.5206,5.5815,5.6071,5.6186,5.6417,5.6417,5.6406,5.6562,5.6601,5.6523,5.625,5.6212,5.6071,5.5742,5.5357,5.494,5.4537,5.4088,5.3634,5.3261,5.3225,5.3225,5.3225,5.3225,5.2962,5.2364,5.2037,5.1398,5.0271,4.9943,4.9514,4.9018,4.9018,4.9018,4.9018,4.9018,4.9018,4.9018,4.9018,4.9018,4.9018,4.9018,4.9018,4.9018,4.9018,4.9018,4.9018,4.9018,4.9018,4.9018,4.9018,4.8523,4.7784,4.2737,4.2986,4.2986,4.2986,4.3602,4.3913,4.3656,4.4332,4.4626,4.4362,4.5761,4.6854,4.6854,4.8272,4.9134,4.8835,4.8944,4.9312,5.0137,5.0778,5.1569,5.2674,5.3247,5.3518,5.3518,5.4567,5.5139,5.5186,5.6347,5.7098,5.7474,5.785,5.7997,5.7997,5.7997,5.7997,5.7997,5.7997,5.7997,5.7997,5.7997,5.7997,5.795,5.7546,5.6927,5.6204,5.5872,5.473,5.343,5.2634,5.2401,5.2465,5.2777,5.2883,5.3077,5.4184,5.4481,5.4556,5.492,5.473,5.4381,5.4428,5.4439,5.4658,5.5285,5.5665,5.5982,5.6149,5.6319,5.6445,5.6562,5.6601,5.6523,5.625,5.6212,5.6071,5.5742,5.5357,5.4951,5.4566,5.4071,5.3634,5.3261,5.3225,5.3225,5.3225,5.3225,5.3036,5.2627,5.2291,5.1765,5.1034,5.0355,4.9814,4.948,4.9182,4.9018,4.9018,4.9018,4.9018,4.9018,4.9018,4.9018,4.8984,4.8523,4.8326,4.8293,4.7833,4.7637,4.7637,4.7637,4.7637,4.7637,4.7637,4.7045,4.6262,4.1776,4.2251,4.2451,4.2351,4.2574,4.2534,4.2082,4.2007,4.1856,4.1404,4.333,4.4738,4.4738,4.7124,4.8507,4.8177,4.8895,4.9264,4.9116,5.0681,5.1822,5.2203,5.318,5.372,5.372,5.4975,5.5409,5.4769,5.6319,5.7085,5.7098,5.7694,5.7997,5.7997,5.7997,5.8033,5.8107,5.8033,5.8033,5.8107,5.8033,5.7997,5.796,5.785,5.7364,5.6696,5.6551,5.5111,5.3065,5.1643,5.1217,5.1312,5.2062,5.2288,5.2542,5.3922,5.4267,5.4266,5.4232,5.4265,5.4211,5.3982,5.4264,5.4672,5.4962,5.5395,5.5784,5.5938,5.6092,5.625,5.6367,5.6484,5.6523,5.625,5.6212,5.6071,5.5742,5.5331,5.4956,5.4549,5.4048,5.3597,5.3225,5.3225,5.3225,5.3225,5.3225,5.3225,5.3225,5.2627,5.2181,5.1919,5.0806,5.006,4.9814,4.9283,4.9018,4.9018,4.9018,4.9018,4.9018,4.9018,4.8951,4.872,4.7962,4.7521,4.7307,4.6551,4.6191,4.6191,4.6191,4.6191,4.6158,4.5995,4.5437,4.4929,3.8037,3.9356,4.0122,3.9666,4.0635,4.153,4.1455,4.1455,4.143,4.1354,4.219,4.277,4.277,4.4629,4.6281,4.7342,4.7602,4.8332,5.0087,5.0411,5.1438,5.3179,5.4025,5.4432,5.4432,5.5247,5.5617,5.5563,5.7097,5.7859,5.785,5.796,5.7997,5.7997,5.7997,5.8263,5.8603,5.8189,5.8263,5.8603,5.8143,5.7997,5.7923,5.7226,5.6478,5.5794,5.5058,5.3814,5.2373,5.1473,5.1217,5.1337,5.1983,5.2216,5.2343,5.3145,5.339,5.3353,5.3366,5.3629,5.3944,5.4326,5.4693,5.4957,5.4639,5.4818,5.5056,5.508,5.5279,5.5469,5.5469,5.6094,5.6523,5.625,5.6212,5.6071,5.5742,5.5341,5.4941,5.4531,5.3764,5.3261,5.3225,5.3225,5.3225,5.3225,5.3225,5.3225,5.3225,5.3072,5.2517,5.125,5.102,5.0353,4.9148,4.9052,4.9018,4.9018,4.9018,4.9018,4.9018,4.9018,4.8557,4.7799,4.7637,4.7172,4.6392,4.6222,4.6191,4.6191,4.6191,4.6191,4.6052,4.5326,4.4939,4.4728,3.8343,3.9118,3.9642,4.022,4.0873,4.1229,4.0927,4.0877,4.0777,4.045,4.126,4.1987,4.1987,4.4049,4.6107,4.7958,4.8157,4.8759,5.032,5.0912,5.1637,5.2547,5.3919,5.4603,5.4626,5.5771,5.638,5.638,5.7061,5.7402,5.74,5.7813,5.7997,5.7997,5.7997,5.8263,5.8694,5.8502,5.8501,5.864,5.8023,5.7537,5.7198,5.6025,5.5593,5.5483,5.4279,5.3411,5.2679,5.1542,5.1153,5.1255,5.1896,5.213,5.2256,5.3003,5.3225,5.312,5.2853,5.331,5.3865,5.4065,5.4618,5.5135,5.5275,5.4703,5.4318,5.4787,5.4718,5.4726,5.5195,5.5234,5.5221,5.5452,5.5453,5.5549,5.5665,5.5183,5.4491,5.386,5.3408,5.3225,5.3225,5.3225,5.3225,5.3225,5.2852,5.259,5.259,5.2218,5.1773,5.114,5.0709,5.0223,4.9548,4.9215,4.9018,4.9018,4.9018,4.9018,4.8984,4.8489,4.7995,4.7575,4.65,4.579,4.5361,4.4789,4.4558,4.4558,4.4558,4.4558,4.4527,4.4127,4.3957,4.3927]},{"header":{"parameterUnit":"m.s-1","parameterCategory":1,"la1":30.6,"la2":28.766,"lo1":-90.7593,"lo2":-88.6598,"dx":0.0162,"dy":0.0183,"nx":116,"ny":114,"refTime":"2023-01-06T06:00:00:Z","depth":0,"parameterNumber":3,"parameterNumberName":"V-component_of_WINDS"},"data":[0.0,0.0,0.0,0.0,0.0,0.0,0.0,0.0,0.0,0.0,0.0,0.0,0.0,0.0,0.0,0.0,0.0,0.0,0.0,0.0,0.0,0.0,0.0,0.0,0.0,0.0,0.0,0.0,0.0,0.0,0.0,0.0,0.0,0.0,0.0,0.0,0.0,0.0,0.0,0.0,0.0,0.0,0.0,0.0,0.0,0.0,0.0,0.0,0.0,0.0,0.0,0.0,0.0,0.0,0.0,0.0,0.0,0.0,0.0,0.0,0.0,0.0,0.0,0.0,0.0,0.0,0.0,0.0,0.0,0.0,0.0,0.0,0.0,0.0,0.0,0.0,0.0,0.0,0.0,0.0,0.0,0.0,0.0,0.0,0.0,0.0,0.0,0.0,0.0,0.0,0.0,0.0,0.0,0.0,0.0,0.0,0.0,0.0,0.0,0.0,0.0,0.0,0.0,0.0,0.0,0.0,0.0,0.0,0.0,0.0,0.0,0.0,0.0,0.0,0.0,0.0,0.0,0.0,0.0,0.0,0.0,0.0,0.0,0.0,0.0,0.0,0.0,0.0,0.0,0.0,0.0,0.0,0.0,0.0,0.0,0.0,0.0,0.0,0.0,0.0,0.0,0.0,0.0,0.0,0.0,0.0,0.0,0.0,0.0,0.0,0.0,0.0,0.0,0.0,0.0,0.0,0.0,0.0,0.0,0.0,0.0,0.0,0.0,0.0,0.0,0.0,0.0,0.0,0.0,0.0,0.0,0.0,0.0,0.0,0.0,0.0,0.0,0.0,0.0,0.0,0.0,0.0,0.0,0.0,0.0,0.0,0.0,0.0,0.0,0.0,0.0,0.0,0.0,0.0,0.0,0.0,0.0,0.0,0.0,0.0,0.0,0.0,0.0,0.0,0.0,0.0,0.0,0.0,0.0,0.0,0.0,0.0,0.0,0.0,0.0,0.0,0.0,0.0,0.0,0.0,0.0,0.0,0.0,0.0,0.0,0.0,0.0,0.0,0.0,0.0,0.0,0.0,0.0,0.0,0.0,0.0,0.0,0.0,0.0,0.0,0.0,0.0,0.0,0.0,0.0,0.0,0.0,0.0,0.0,0.0,0.0,0.0,0.0,0.0,0.0,0.0,0.0,0.0,0.0,0.0,0.0,0.0,0.0,0.0,0.0,0.0,0.0,0.0,0.0,0.0,0.0,0.0,0.0,0.0,0.0,0.0,0.0,0.0,0.0,0.0,0.0,0.0,0.0,0.0,0.0,0.0,0.0,0.0,0.0,0.0,0.0,0.0,0.0,0.0,0.0,0.0,0.0,0.0,0.0,0.0,0.0,0.0,0.0,0.0,0.0,0.0,0.0,0.0,0.0,0.0,0.0,0.0,0.0,0.0,0.0,0.0,0.0,0.0,0.0,0.0,0.0,0.0,0.0,0.0,0.0,0.0,0.0,0.0,0.0,0.0,0.0,0.0,0.0,0.0,0.0,0.0,0.0,0.0,0.0,0.0,0.0,0.0,0.0,0.0,0.0,0.0,0.0,0.0,0.0,0.0,0.0,0.0,0.0,0.0,0.0,0.0,0.0,0.0,0.0,0.0,0.0,0.0,0.0,0.0,0.0,0.0,0.0,0.0,0.0,0.0,0.0,0.0,0.0,0.0,0.0,0.0,0.0,0.0,0.0,0.0,0.0,0.0,0.0,0.0,0.0,0.0,0.0,0.0,0.0,0.0,0.0,0.0,0.0,0.0,0.0,0.0,0.0,0.0,0.0,0.0,0.0,0.0,0.0,0.0,0.0,0.0,0.0,0.0,0.0,0.0,0.0,0.0,0.0,0.0,0.0,0.0,0.0,0.0,0.0,0.0,0.0,0.0,0.0,0.0,0.0,0.0,0.0,0.0,0.0,0.0,0.0,0.0,0.0,0.0,0.0,0.0,0.0,0.0,0.0,0.0,0.0,0.0,0.0,0.0,0.0,0.0,0.0,0.0,0.0,0.0,0.0,0.0,0.0,0.0,0.0,0.0,0.0,0.0,0.0,0.0,0.0,0.0,0.0,0.0,0.0,0.0,0.0,0.0,0.0,0.0,0.0,0.0,0.0,0.0,0.0,0.0,0.0,0.0,0.0,0.0,0.0,0.0,0.0,0.0,0.0,0.0,0.0,0.0,0.0,0.0,0.0,0.0,0.0,0.0,0.0,0.0,0.0,0.0,0.0,0.0,0.0,0.0,0.0,0.0,0.0,0.0,0.0,0.0,0.0,0.0,0.0,0.0,0.0,0.0,0.0,0.0,0.0,0.0,0.0,0.0,0.0,0.0,0.0,0.0,0.0,0.0,0.0,0.0,0.0,0.0,0.0,0.0,0.0,0.0,0.0,0.0,0.0,0.0,0.0,0.0,0.0,0.0,0.0,0.0,0.0,0.0,0.0,0.0,0.0,0.0,0.0,0.0,0.0,0.0,0.0,0.0,0.0,0.0,0.0,0.0,0.0,0.0,0.0,0.0,0.0,0.0,0.0,0.0,0.0,0.0,0.0,0.0,0.0,0.0,0.0,0.0,0.0,0.0,0.0,0.0,0.0,0.0,0.0,0.0,0.0,0.0,0.0,0.0,0.0,0.0,0.0,0.0,0.0,0.0,0.0,0.0,0.0,0.0,0.0,0.0,0.0,0.0,0.0,0.0,0.0,0.0,0.0,0.0,0.0,0.0,0.0,0.0,0.0,0.0,0.0,0.0,0.0,0.0,0.0,0.0,0.0,0.0,0.0,0.0,0.0,0.0,0.0,0.0,0.0,0.0,0.0,0.0,0.0,0.0,0.0,0.0,0.0,0.0,0.0,0.0,0.0,0.0,0.0,0.0,0.0,0.0,0.0,0.0,0.0,0.0,0.0,0.0,0.0,0.0,0.0,0.0,0.0,0.0,0.0,0.0,0.0,0.0,0.0,0.0,0.0,0.0,0.0,0.0,0.0,0.0,0.0,0.0,0.0,0.0,0.0,0.0,0.0,0.0,0.0,0.0,0.0,0.0,0.0,0.0,0.0,0.0,0.0,0.0,0.0,0.0,0.0,0.0,0.0,0.0,0.0,0.0,0.0,0.0,0.0,0.0,0.0,0.0,0.0,0.0,0.0,0.0,0.0,0.0,0.0,0.0,0.0,0.0,0.0,0.0,0.0,0.0,0.0,0.0,0.0,0.0,0.0,0.0,0.0,0.0,0.0,0.0,0.0,0.0,0.0,0.0,0.0,0.0,0.0,0.0,0.0,0.0,0.0,0.0,0.0,0.0,0.0,0.0,0.0,0.0,0.0,0.0,0.0,0.0,0.0,0.0,0.0,0.0,0.0,0.0,0.0,0.0,0.0,0.0,0.0,0.0,0.0,0.0,0.0,0.0,0.0,0.0,0.0,0.0,0.0,0.0,0.0,0.0,0.0,0.0,0.0,0.0,0.0,0.0,0.0,0.0,0.0,0.0,0.0,0.0,0.0,0.0,0.0,0.0,0.0,0.0,0.0,0.0,0.0,0.0,0.0,0.0,0.0,0.0,0.0,0.0,0.0,0.0,0.0,0.0,0.0,0.0,0.0,0.0,0.0,0.0,0.0,0.0,0.0,0.0,0.0,0.0,0.0,0.0,0.0,0.0,0.0,0.0,0.0,0.0,0.0,0.0,0.0,0.0,0.0,0.0,0.0,0.0,0.0,0.0,0.0,0.0,0.0,0.0,0.0,0.0,0.0,0.0,0.0,0.0,0.0,0.0,0.0,0.0,0.0,0.0,0.0,0.0,0.0,0.0,0.0,0.0,0.0,0.0,0.0,0.0,0.0,0.0,0.0,0.0,0.0,0.0,0.0,0.0,0.0,0.0,0.0,0.0,0.0,0.0,0.0,0.0,0.0,0.0,0.0,0.0,0.0,0.0,0.0,0.0,0.0,0.0,0.0,0.0,0.0,0.0,0.0,0.0,0.0,0.0,0.0,0.0,0.0,0.0,0.0,0.0,0.0,0.0,0.0,0.0,0.0,0.0,0.0,0.0,0.0,0.0,0.0,0.0,0.0,0.0,0.0,0.0,0.0,0.0,0.0,0.0,0.0,0.0,0.0,0.0,0.0,0.0,0.0,0.0,0.0,0.0,0.0,0.0,0.0,0.0,0.0,0.0,0.0,0.0,0.0,0.0,0.0,0.0,0.0,0.0,0.0,0.0,0.0,0.0,0.0,0.0,0.0,0.0,0.0,0.0,0.0,0.0,0.0,0.0,0.0,0.0,0.0,0.0,0.0,0.0,0.0,0.0,0.0,0.0,0.0,0.0,0.0,0.0,0.0,0.0,0.0,0.0,0.0,0.0,0.0,0.0,0.0,0.0,0.0,0.0,0.0,0.0,0.0,0.0,0.0,0.0,0.0,0.0,0.0,0.0,0.0,0.0,0.0,0.0,0.0,0.0,0.0,0.0,0.0,0.0,0.0,0.0,0.0,0.0,0.0,0.0,0.0,0.0,0.0,0.0,0.0,0.0,0.0,0.0,0.0,0.0,0.0,0.0,0.0,0.0,0.0,0.0,0.0,0.0,0.0,0.0,0.0,0.0,0.0,0.0,0.0,0.0,0.0,0.0,0.0,0.0,0.0,0.0,0.0,0.0,0.0,0.0,0.0,0.0,0.0,0.0,0.0,0.0,0.0,0.0,0.0,0.0,0.0,0.0,0.0,0.0,0.0,0.0,0.0,0.0,0.0,0.0,0.0,0.0,0.0,0.0,0.0,0.0,0.0,0.0,0.0,0.0,0.0,0.0,0.0,0.0,0.0,0.0,0.0,0.0,0.0,0.0,0.0,0.0,0.0,0.0,0.0,0.0,0.0,0.0,0.0,0.0,0.0,0.0,0.0,0.0,0.0,0.0,0.0,0.0,0.0,0.0,0.0,0.0,0.0,0.0,0.0,0.0,0.0,0.0,0.0,0.0,0.0,0.0,0.0,0.0,0.0,0.0,0.0,0.0,0.0,0.0,0.0,0.0,0.0,0.0,0.0,0.0,0.0,0.0,0.0,0.0,0.0,0.0,0.0,0.0,0.0,0.0,0.0,0.0,0.0,0.0,0.0,0.0,0.0,0.0,0.0,0.0,0.0,0.0,0.0,0.0,0.0,0.0,0.0,0.0,0.0,0.0,0.0,0.0,0.0,0.0,0.0,0.0,0.0,0.0,0.0,0.0,0.0,0.0,0.0,0.0,0.0,0.0,0.0,0.0,0.0,0.0,0.0,0.0,0.0,0.0,0.0,0.0,0.0,0.0,0.0,0.0,0.0,0.0,0.0,0.0,0.0,0.0,0.0,0.0,0.0,0.0,0.0,0.0,0.0,0.0,0.0,0.0,0.0,0.0,0.0,0.0,0.0,0.0,0.0,0.0,0.0,0.0,0.0,0.0,0.0,0.0,0.0,0.0,0.0,0.0,0.0,0.0,0.0,0.0,0.0,0.0,0.0,0.0,0.0,0.0,0.0,0.0,0.0,0.0,0.0,0.0,0.0,0.0,0.0,0.0,0.0,0.0,0.0,0.0,0.0,0.0,0.0,0.0,0.0,0.0,0.0,0.0,0.0,0.0,0.0,0.0,0.0,0.0,0.0,0.0,0.0,0.0,0.0,0.0,0.0,0.0,0.0,0.0,0.0,0.0,0.0,0.0,0.0,0.0,0.0,0.0,0.0,0.0,0.0,0.0,0.0,0.0,0.0,0.0,0.0,0.0,0.0,0.0,0.0,0.0,0.0,0.0,0.0,0.0,0.0,0.0,0.0,0.0,0.0,0.0,0.0,0.0,0.0,0.0,0.0,0.0,0.0,0.0,0.0,0.0,0.0,0.0,0.0,0.0,0.0,0.0,0.0,0.0,0.0,0.0,0.0,0.0,0.0,0.0,0.0,0.0,0.0,0.0,0.0,0.0,0.0,0.0,0.0,0.0,0.0,0.0,0.0,0.0,0.0,0.0,0.0,0.0,0.0,0.0,0.0,0.0,0.0,0.0,0.0,0.0,0.0,0.0,0.0,0.0,0.0,0.0,0.0,0.0,0.0,0.0,0.0,0.0,0.0,0.0,0.0,0.0,0.0,0.0,0.0,0.0,0.0,0.0,0.0,0.0,-1.653,-1.4098,0.0,0.0,0.0,0.0,0.0,0.0,0.0,0.0,0.0,0.0,0.0,0.0,0.0,0.0,0.0,0.0,0.0,0.0,0.0,0.0,0.0,0.0,0.0,0.0,0.0,0.0,0.0,0.0,0.0,0.0,0.0,0.0,0.0,0.0,0.0,0.0,0.0834,0.1239,0.4346,0.6556,0.7889,0.6828,0.3779,-0.0835,0.0,0.0,0.0,0.0,0.0,0.0,0.0,0.0,0.0,0.0,0.0,0.0,0.0,0.0,0.0,0.0,0.0,0.0,0.0,0.0,0.0,0.0,0.0,0.0,0.0,0.0,0.0,0.0,0.0,0.0,0.0,0.0,0.0,0.0,0.0,0.0,0.0,0.0,0.0,0.0,0.0,0.0,0.0,0.0,0.0,0.0,0.0,0.0,0.0,0.0,0.0,0.0,0.0,0.0,0.0,0.0,0.0,0.0,0.0,0.0,0.0,0.0,0.0,0.0,0.0,0.0,0.0,0.0,0.0,0.0,-1.8803,-1.762,0.0,0.0,0.0,0.0,0.0,0.0,0.0,0.0,0.0,0.0,0.0,0.0,0.0,0.0,0.0,0.0,0.0,0.0,0.0,0.0,0.0,0.0,0.0,0.0,0.0,0.0,0.0,0.0,0.0,0.0,0.0,0.0,0.0,0.0,0.0,0.1376,0.2982,0.6246,1.1616,1.4886,1.6125,1.5894,1.1204,0.28,0.0999,0.0,0.0,0.0,0.0,0.0,0.0,0.0,0.0,0.0,0.0,0.0,0.0,0.0,0.0,0.0,0.0,0.0,0.0,0.0,0.0,0.0,0.0,0.0,0.0,0.0,0.0,0.0,0.0,0.0,0.0,0.0,0.0,0.0,0.0,0.0,0.0,0.0,0.0,0.0,0.0,0.0,0.0,0.0,0.0,0.0,0.0,0.0,0.0,0.0,0.0,0.0,0.0,0.0,0.0,0.0,0.0,0.0,0.0,0.0,0.0,0.0,0.0,0.0,-1.6976,-1.7682,-1.8983,-1.9787,-2.1318,-2.319,-2.138,-2.2014,-2.403,-2.0488,0.0,0.0,0.0,0.0,0.0,0.0,0.0,0.0,0.0,0.0,0.0,0.0,0.0,0.0,0.0,0.0,0.0,0.0,0.0,0.0,0.0,0.0,0.0,0.0,0.0,0.0,0.0,0.0,0.0,0.0,0.0,0.0,0.1731,0.173,0.5517,1.3259,1.6657,1.8419,1.8594,1.8566,1.668,1.3113,1.0417,0.7534,0.4698,0.0,0.0,0.0,0.0,0.0,0.0,0.0,0.0,0.0,0.0,0.0,0.0,0.0,0.0,0.0,0.0,0.0,0.0,0.0,0.0,0.0,0.0,0.0,0.0,0.0,0.0,0.0,0.0,0.0,0.0,0.0,0.0,0.0,0.0,0.0,0.0,0.0,0.0,0.0,0.0,0.0,-1.1204,-0.7405,0.0,0.0,0.0,0.0,0.0,0.0,0.0,0.0,0.0,0.0,0.0,0.0,0.0,-1.0794,-1.3044,-1.4088,-1.6027,-1.8829,-1.8983,-1.9723,-2.1134,-2.1506,-2.3144,-2.5666,-2.6169,0.0,-2.5177,-2.4559,0.0,0.0,0.0,0.0,0.0,0.0,0.0,0.0,0.0,0.0,0.0,0.0,0.0,0.0,0.0,0.0,0.0,0.0,0.0,0.0,0.0,0.9943,1.2901,0.7849,0.743,0.5518,0.1032,0.0281,0.0,0.0,0.0,0.2308,0.2299,0.4986,1.0416,1.8661,2.0611,2.2346,2.3941,2.3399,2.2255,2.0664,1.9397,1.5501,0.9718,0.7387,0.0,0.0,0.0,0.0,0.0,0.0,0.0,0.0,0.0,0.0,0.0,0.0,0.0,0.0,0.0,0.0,0.0,0.0,0.0,0.0,0.0,0.0,0.0,0.0,0.0,0.0,0.0,0.0,0.0,0.0,0.0,0.0,0.0,0.0,0.0,0.0,0.0,0.0,0.0,-0.4913,-0.8112,-0.7036,-0.3791,-0.1788,0.0,0.0,0.0,0.0,0.0,0.0,0.0,0.0,0.0,-0.9982,-1.0194,-1.1048,-1.2675,-1.3164,-1.4402,-1.6296,-1.7624,-1.8898,-2.0195,-2.2029,-2.4042,-2.6198,-2.7656,-2.851,-2.8731,-2.7471,-2.5872,-2.4016,0.0,0.0,0.0,0.0,-2.3154,-2.3512,0.0,0.0,0.0,0.0,0.0,0.0,0.0,0.0,0.0,0.0,0.0,0.0,0.5933,1.6591,2.1769,1.6998,1.6569,1.3299,0.5425,0.2203,0.0487,0.0329,0.1748,0.2614,0.2783,0.855,1.5062,2.2185,2.4012,2.5949,2.8065,2.7326,2.6493,2.5624,2.5926,2.232,1.5742,1.1713,0.8731,0.6288,0.0,0.0,0.0,0.0,0.0,0.0,0.0,0.0,0.0,0.0,0.0,0.0,0.0,0.0,0.0,0.0,0.0,0.0,0.0,0.0,0.0,0.0,0.0,0.0,0.0,0.0,0.0,0.0,0.0,0.0,0.0,0.0,0.0,0.0,0.0,0.0,0.0,-0.2185,-0.4352,-0.5861,-0.4277,-0.2571,0.0,0.0,0.0,0.0,0.0,0.0,-0.6297,-0.5763,-0.651,-0.9,-0.9382,-1.0297,-1.1676,-1.1817,-1.2565,-1.4058,-1.6242,-1.79,-1.9116,-2.2146,-2.4352,-2.5884,-2.8061,-3.0107,-3.1835,-3.0085,-2.8996,-2.8333,-2.7063,-2.649,-2.6565,-2.7973,-2.831,-2.8611,0.0,0.0,0.0,0.0,0.0,0.0,0.0,0.0,0.0,0.0,0.0,1.7127,1.069,1.3627,1.8679,2.5275,2.58,2.2692,1.5258,0.6801,0.1853,0.1258,0.1811,0.2403,0.2972,1.142,1.8248,2.3192,2.6938,2.8829,2.8939,2.8876,2.8346,2.7433,2.8346,2.6961,2.3633,1.9227,1.6259,1.3933,0.7389,0.0,0.0,0.0,0.0,0.0,0.0,0.0,0.0,0.0,0.0,0.0,0.0,0.0,0.0,0.0,0.0,0.0,0.0,0.0,0.0,0.0,0.0,0.0,0.0,0.0,0.0,0.0,0.0,0.0,0.0,0.0,0.0,0.0,0.0,0.0,0.0,0.0,0.0,-0.4602,-0.3931,0.0,0.0,0.0,0.0,-0.0374,-0.1753,-0.3407,-0.4926,-0.4693,-0.572,-0.8477,-0.6652,-0.6806,-0.9087,-1.0154,-1.1798,-1.4058,-1.6242,-1.79,-1.9116,-2.2146,-2.4039,-2.4989,-2.7801,-3.0597,-3.3126,-3.2401,-3.1106,-2.9648,-3.0066,-2.9746,-2.9188,-3.0792,-3.2238,-3.366,0.0,0.0,0.0,0.0,0.0,0.0,0.0,0.0,0.0727,0.2752,1.3299,1.8118,1.1601,1.711,2.1705,2.2892,2.5154,2.4285,1.9039,1.1974,0.6363,0.2751,0.3047,0.7137,1.5283,2.0194,2.4743,2.9016,3.096,3.1401,3.0381,3.0381,2.9715,2.8474,2.8848,2.8393,2.7273,2.5275,2.2221,1.8379,1.5913,1.1654,0.0,0.0,0.0,0.0,0.0,0.0,0.0,0.0,0.0,0.0,0.0,0.0,0.0,0.0,0.0,0.0,0.0,0.0,0.0,0.0,0.0,0.0,0.0,0.0,0.0,0.0,0.0,0.0,0.0,0.0,0.0,0.0,0.0,0.0,0.0,0.0,0.0,-0.1815,-0.0704,0.0,-0.0559,-0.2122,-0.2519,-0.1028,-0.1511,-0.2363,-0.3691,-0.2327,-0.2373,-0.416,-0.5,-0.5802,-0.6593,-0.9517,-1.1345,-1.2209,-1.6399,-1.8648,-1.9246,-2.345,-2.589,-2.6852,-2.9963,-3.2224,-3.3797,-3.5244,-3.5733,-3.5646,-3.641,-3.6498,-3.6367,-3.7662,-3.847,-3.9229,0.0,0.0,0.0,0.0,0.0,0.0,0.0,0.0517,0.1955,0.4876,1.3414,1.775,1.3819,2.0149,2.4049,2.2523,2.4876,2.431,1.916,1.4794,0.9761,0.3817,0.5541,1.1998,2.344,2.5463,2.8505,3.2616,3.3238,3.3093,3.2405,3.1894,3.136,3.0924,3.045,3.0182,3.0214,3.0046,2.7371,2.3237,2.3344,1.83,1.0643,0.0,0.0,0.0,0.0,0.0,0.0,0.0,0.0,0.0,0.0,0.0,0.0,0.0,0.0,0.0,0.0,0.0,0.0,0.0,0.0,0.0,0.0,0.0,0.0,0.0,0.0,0.0,0.0,0.0,0.0,0.0,0.0,0.0,0.0,0.0,-0.1918,0.0345,0.0676,0.1148,0.2281,-0.021,-0.1339,0.0145,0.031,0.0,-0.0732,0.0087,0.009,-0.1094,-0.3555,-0.5031,-0.5527,-0.8901,-1.0847,-1.1466,-1.623,-1.8742,-1.9418,-2.424,-2.6744,-2.7485,-3.1035,-3.3198,-3.4368,-3.7344,-3.9076,-3.9895,-4.0046,-4.0087,-4.0238,-4.1464,-4.207,-4.2477,0.0,0.0,0.0,0.0,0.0,0.0,0.0,0.1545,0.4554,0.969,1.398,1.6899,1.7757,2.211,2.5016,2.5016,2.5955,2.3427,1.6177,1.5135,1.1642,0.4557,0.9438,1.6686,2.6106,2.6785,2.9116,3.3544,3.3606,3.4,3.4705,3.3273,3.3341,3.4622,3.3262,3.2656,3.268,3.336,3.1763,2.8825,2.9175,2.3666,1.5377,0.0,0.0,0.0,0.0,0.0,0.0,0.0,0.0,0.0,0.0,0.0,0.0,0.0,0.0,0.0,0.0,0.0,0.0,0.0,0.0,0.0,0.0,0.0,0.0,0.0,0.0,0.0,0.0,0.0,0.0,0.0,0.0,0.0,-0.7,-0.2714,0.0382,0.1636,0.0,0.0079,0.3381,0.1814,0.1475,0.3554,0.3757,0.3789,0.3867,0.2585,0.1397,0.0284,-0.2372,-0.4411,-0.5766,-0.8283,-1.0404,-1.196,-1.5617,-1.8164,-1.9729,-2.4361,-2.6573,-2.6798,-3.0944,-3.3467,-3.492,-3.8552,-4.0796,-4.1853,-4.0667,-4.0257,-4.0391,-4.1816,-4.2682,-4.3415,0.0,0.0,0.0,0.0,0.0,0.0,0.0,0.1916,0.5255,1.0566,1.4482,1.7263,1.8554,2.2457,2.53,2.6025,2.6677,2.4929,1.9836,1.6999,1.383,0.9989,1.8578,2.4741,2.739,3.114,3.3697,3.4951,3.5491,3.5644,3.5388,3.5519,3.5284,3.4707,3.4303,3.3816,3.3411,3.4651,3.4518,3.3453,3.245,3.0322,2.7404,0.0,0.0,0.0,0.0,0.0,0.0,0.0,0.0,0.0,0.0,0.0,0.0,0.0,0.0,0.0,0.0,0.0,0.0,0.0,0.0,0.0,0.0,0.0,0.0,0.0,0.0,0.0,0.0,0.0,0.0,0.0,0.0466,-0.1824,-0.1791,-0.1363,-0.0314,0.1586,0.2821,0.3909,0.4937,0.4506,0.4848,0.6426,0.6537,0.6177,0.5265,0.3953,0.2756,0.155,-0.2034,-0.411,-0.4484,-0.9229,-1.1826,-1.2292,-1.6585,-1.9388,-2.0845,-2.5185,-2.7695,-2.8856,-3.3302,-3.5411,-3.6074,-3.991,-4.1629,-4.2109,-4.3046,-4.3335,-4.3498,-4.4753,-4.5944,-4.6931,0.0,0.0,0.0,0.0,0.0,0.0,0.0,0.1612,0.5307,1.2128,1.4784,1.7391,2.1102,2.3973,2.6,2.6892,2.5591,2.3159,1.9368,1.6038,1.5504,1.848,2.4504,2.8876,3.103,3.398,3.5519,3.5519,3.6228,3.6596,3.6546,3.6692,3.6799,3.6771,3.5877,3.5397,3.5407,3.6197,3.6159,3.5501,3.4826,3.3162,3.0891,2.8869,2.5843,2.266,2.2636,2.246,2.1723,1.7999,0.0,0.0,0.0,0.0,0.0,0.0,0.0,0.0,0.0,0.0,0.0,0.0,0.0,0.0,0.0,0.0,0.0,0.0,0.0,0.0,0.0,0.0,0.0,0.0,0.2178,0.0972,0.1437,0.1057,0.1333,0.3105,0.4589,0.5727,0.6259,0.6409,0.6752,0.7496,0.7597,0.7361,0.6798,0.4861,0.3546,0.2934,-0.1617,-0.4085,-0.416,-0.8674,-1.1475,-1.2802,-1.6625,-1.9456,-2.1528,-2.6134,-2.8685,-2.967,-3.4245,-3.6212,-3.6498,-4.0399,-4.1981,-4.2173,0.0,0.0,0.0,0.0,-4.7219,-4.8306,0.0,0.0,0.0,0.0,0.0,0.0,0.0,0.101,0.4989,1.3826,1.4903,1.744,2.426,2.6,2.6918,2.767,2.3867,2.0118,1.6958,1.4865,1.7969,2.7274,2.8283,3.0779,3.5559,3.5619,3.5683,3.5748,3.6508,3.7203,3.7905,3.7431,3.8081,3.9742,3.7684,3.7154,3.7891,3.7789,3.7051,3.6059,3.647,3.3721,2.9734,3.2993,3.043,2.5801,3.1448,3.263,3.1094,2.8534,0.0,0.0,0.0,0.0,0.0,0.0,0.0,0.0,0.0,0.0,0.0,0.0,0.0,0.0,0.0,0.0,0.0,0.0,0.0,0.0,0.0,0.0,0.0,0.0,0.2284,0.0561,0.3446,0.4214,0.475,0.5379,0.5663,0.6293,0.7329,0.7543,0.7631,0.7645,0.7665,0.7787,0.8052,0.5354,0.0,0.0,0.0,-0.4293,-0.448,-0.7419,-1.0409,-1.3372,-1.5822,-1.8758,-2.1912,-2.6853,-2.9209,-2.9828,-3.4428,-3.6405,-3.6693,-4.0615,-4.2366,-4.2684,-4.4073,-4.4665,-4.4961,-4.6014,-4.7219,-4.8306,0.0,0.0,0.0,0.0,0.0,0.0,0.0,0.1022,0.4976,1.3838,1.4955,1.7543,2.4284,2.6458,2.7537,2.767,2.4786,2.1598,1.8572,2.2294,2.5546,2.7588,3.176,3.4707,3.6384,3.6384,3.6692,3.7354,3.8076,3.8492,3.869,3.9235,3.9593,3.9742,3.8674,3.8368,3.8581,3.8566,3.8069,3.7341,3.7432,3.5872,3.3499,3.3701,3.3186,3.2327,3.2605,3.2917,3.2914,3.1071,2.7135,2.2591,1.9909,1.3746,0.0,0.0,0.0,0.0,0.0,0.0,0.0,0.0,0.0,0.0,0.0,0.0,0.0,0.0,0.0,0.0,0.0,0.0,0.0,0.6884,0.6125,0.5692,0.5294,0.7935,0.8877,0.5866,0.6531,0.7315,0.7712,0.7753,0.7821,0.7943,0.8072,0.8167,0.8221,0.5624,0.4136,0.4223,-0.1406,-0.448,-0.445,-0.8633,-1.1502,-1.3372,-1.4961,0.0,-2.2311,-2.5366,-2.822,-3.0868,-3.5574,-3.7703,-3.8084,-4.2036,-4.456,-4.5764,-4.4913,-4.5161,-4.6112,-4.6318,-4.7219,-4.8306,0.0,0.0,0.0,0.0,0.0,0.0313,0.1204,0.1466,0.429,1.1967,1.2452,1.4166,1.9399,2.0818,2.1499,2.1888,2.1209,2.0414,1.9482,2.454,2.8802,3.1489,3.4468,3.6228,3.66,3.6964,3.7381,3.7822,3.8525,3.8908,3.8908,4.0002,4.0607,4.0788,4.0451,4.0311,4.0385,4.0236,3.9547,3.8575,3.8598,3.7492,3.5697,3.4665,3.4525,3.4613,3.3271,3.306,3.308,3.0948,2.8546,2.5882,2.2288,1.773,1.3047,0.0,0.0,0.0,0.0,0.0,0.0,0.0,0.0,0.0,0.0,0.0,0.0,0.0,0.0,1.2864,0.0,0.0,1.0698,0.7683,0.8414,0.9156,0.8627,1.0278,1.0612,0.7838,0.8808,0.9465,0.8975,0.9649,0.9581,0.835,0.9043,0.9227,0.8486,0.5776,0.4226,0.4302,-0.1431,-0.4543,-0.447,-0.8307,-1.1245,-1.3535,-1.504,-1.8077,-2.2573,-2.5887,-2.8946,-3.1973,-3.6234,-3.8393,-3.9178,-4.2683,-4.5596,-4.7706,-4.6666,-4.6795,-4.7665,-4.7997,-4.8706,-4.9554,0.0,0.0,0.0,0.0,0.0,0.0624,0.2417,0.2049,0.3821,1.0039,0.993,1.0707,1.4496,1.5119,1.5151,1.5088,1.8005,1.9887,2.0026,2.5667,3.105,3.5533,3.6259,3.6722,3.7084,3.7674,3.8076,3.8278,3.8929,3.9301,3.9301,4.0474,4.1429,4.2078,4.1867,4.1869,4.2124,4.1492,4.0565,3.9457,3.9554,3.8552,3.6821,3.5509,3.5033,3.4905,3.3664,3.2771,3.1994,3.0001,2.8139,2.5883,2.1708,1.9767,1.8192,1.3755,1.2706,0.0,0.0,0.0,0.0,0.0,0.0,0.0,0.0,0.0,1.0049,0.9635,1.1126,1.1562,0.8597,1.086,1.1992,0.8417,0.9962,1.1594,1.1589,1.2098,1.1994,1.0632,1.1048,1.1134,1.0529,1.1216,1.0893,0.9093,0.975,0.9844,0.8743,0.5923,0.4322,0.4511,-0.1351,-0.4514,-0.4514,-0.7986,-1.1101,-1.377,-1.5566,-1.8769,-2.2955,-2.7401,-3.0726,-3.3356,-3.7391,-4.0,-4.1644,-4.3952,-4.6742,-4.9535,-4.911,-4.931,-4.9933,-4.9847,-5.0235,-5.0802,0.0,0.0,0.0,0.0,0.0,0.0595,0.2414,0.26,0.4478,0.9933,0.974,1.0548,1.4235,1.5455,1.4769,1.1674,1.9949,2.3867,2.0261,2.9164,3.5202,3.6415,3.6569,3.7231,3.8603,3.8745,3.9156,3.985,4.0397,4.0651,4.0698,4.1385,4.2159,4.2992,4.1489,4.1492,4.2504,4.0976,4.0053,3.9567,3.9609,3.8514,3.6813,3.5736,3.4888,3.4168,3.371,3.1752,2.9389,2.9658,2.7423,2.4534,2.4505,2.26,2.0029,1.8151,1.6295,1.4622,1.3333,1.1129,0.9454,1.0483,0.9332,0.9036,0.0,0.0,0.8252,0.592,0.8211,0.9596,0.6316,0.9079,1.1288,0.9394,1.1532,1.2961,1.1848,1.3767,1.4987,1.39,1.1776,1.0806,1.2044,1.0203,0.9391,1.0335,0.955,0.8858,0.8906,0.6093,0.4586,0.4661,-0.1396,-0.4664,-0.4664,-0.9191,-1.2311,-1.3891,-1.6882,-2.0019,-2.3553,-2.9349,-3.303,-3.5137,-4.0611,-4.4676,-4.7331,-4.7659,-4.9458,-5.2056,-5.2599,-5.3298,-5.3616,-5.0813,-5.0235,-5.0802,0.0,0.0,0.0,0.0,0.0,0.0436,0.168,0.2338,0.3531,0.5812,0.5803,0.6179,0.7743,0.819,0.7787,0.6229,1.393,1.9113,1.9696,3.0156,3.623,3.5984,3.7191,3.8181,3.8722,3.9597,4.0217,4.0577,4.115,4.1533,4.173,4.2325,4.2734,4.2797,4.2159,4.1663,4.1219,4.0256,3.9442,3.8828,3.8814,3.8027,3.6798,3.591,3.4952,3.3746,3.1315,2.8818,0.0,2.7154,2.5335,2.3058,2.4098,2.2894,2.0728,1.9285,1.8386,1.7218,1.421,1.2167,1.0796,1.0397,0.9624,0.9512,1.1483,1.0606,0.8948,0.7485,0.8432,0.9314,0.88,1.0637,1.219,0.0,1.3417,1.4502,1.4181,1.5217,1.5932,1.555,1.414,1.3466,1.4101,1.398,1.3093,1.1507,1.1594,1.1019,0.9305,0.624,0.4657,0.4688,-0.1404,-0.4688,-0.4688,-0.8617,-1.1879,-1.4432,-1.6819,-2.0544,-2.5687,-3.0768,-3.594,-4.1057,-4.4192,-4.7154,-4.9812,-4.9316,-5.0924,-5.3576,-5.3455,-5.4107,-5.4994,-5.3689,-5.3346,-5.3592,0.0,0.0,0.0,0.0,0.0403,0.0873,0.1238,0.2081,0.2734,0.2835,0.2971,0.3066,0.3104,0.293,0.2808,0.271,0.7612,1.3067,1.8596,3.0011,3.6428,3.6182,3.7728,3.8718,3.9002,4.0124,4.0863,4.13,4.1902,4.2178,4.2195,4.2673,4.2717,4.2238,4.1852,4.1094,4.0071,3.9476,3.8741,3.7942,3.7908,3.723,3.6182,3.5378,3.4574,3.3425,3.0469,2.6773,2.3229,2.2848,2.161,2.0416,2.1584,2.1436,2.0628,1.9731,1.9624,1.8945,1.4855,1.3258,1.2189,0.9925,0.9713,0.9944,0.9604,0.9808,0.9933,0.948,0.9454,0.9967,1.1264,1.2382,1.3333,1.4007,1.4888,1.5591,1.5805,1.6086,1.6326,1.65,1.62,1.6147,1.638,1.6547,1.5678,1.3231,1.325,1.2364,1.0244,0.6715,0.4729,0.4753,-0.1427,-0.478,-0.478,-0.8606,-1.2225,-1.5579,-1.7839,-2.1978,-2.794,-3.3138,-3.9386,-4.6152,-4.7084,-4.8847,-5.1135,-5.0608,-5.2119,-5.4803,-5.4237,-5.4943,-5.6235,-5.6235,-5.5978,-5.5574,0.0,0.0,0.0,0.0,0.1449,0.2332,0.1442,0.2081,0.2693,0.2719,0.2892,0.3025,0.3104,0.285,0.2697,0.2704,0.3165,0.7456,1.6945,2.8832,3.619,3.7695,3.7834,3.8504,3.9984,4.0112,4.0871,4.2356,4.2812,4.2658,4.1925,4.2133,4.195,4.137,3.9751,3.9228,3.9567,3.8625,3.7825,3.7152,3.7118,3.613,3.4595,3.3836,3.3466,3.3266,3.2667,2.6523,1.8401,1.6458,1.5871,1.6116,1.6812,1.8182,1.9636,2.0035,2.0029,1.905,1.5153,1.4356,1.3599,0.9383,0.9479,1.0267,0.9156,0.9751,1.0535,1.0509,1.0787,1.1373,1.2533,1.3235,1.4056,1.5206,1.5631,1.5818,1.5832,1.6086,1.6486,1.7061,1.7395,1.7916,0.0,1.5977,1.4703,1.6074,1.3477,1.1859,1.1913,0.7293,0.4714,0.4906,-0.1614,-0.5136,-0.5136,-1.0127,-1.4318,-1.7706,-2.0704,-2.468,-2.9648,-3.6993,-4.3455,-4.8666,-4.8748,-4.9946,-5.1888,-5.1855,-5.3377,-5.5653,-5.5653,-5.6561,-5.7923,-5.7923,-5.6932,-5.5574,0.0,0.0,0.0,0.0,0.0973,0.188,0.2186,0.2603,0.2835,0.2724,0.2768,0.0,0.0,0.0,0.0,0.0,0.2769,0.4554,0.8588,2.5611,3.5798,3.63,3.8253,3.9568,4.0089,4.0861,4.1492,4.2003,4.2925,4.3491,4.3627,4.1591,4.0311,3.9779,3.8804,3.7956,3.713,3.6179,3.5346,3.4701,3.46,3.4241,3.3692,3.3105,3.3069,3.315,0.0,2.291,1.1544,1.2801,1.2393,1.1984,1.5714,1.7015,1.7416,1.8654,1.8608,1.7804,1.6096,1.4419,1.2664,1.037,1.007,1.0264,1.0067,1.0356,1.1079,1.2856,1.3467,1.4241,1.6423,1.6476,1.6364,1.666,1.6192,1.5899,1.6099,1.654,1.6994,1.7395,1.805,0.0,0.0,0.0,0.0,1.6807,1.4844,1.324,1.2235,0.7533,0.4913,0.486,-0.1624,-0.5045,-0.5097,-0.9076,-1.3421,-1.8101,-2.5629,-3.1601,-3.6062,-4.0488,-4.5196,-4.9852,-4.9852,-5.1005,-5.2939,-5.2939,-5.4068,-5.5724,-5.5724,-5.6632,-5.7997,-5.7997,-5.7666,-5.7189,0.0,0.0692,0.1288,0.1278,0.1636,0.0,0.0,0.0,0.0,0.0,0.0,0.0,0.0,0.0,0.0,0.0,0.0,0.311,0.4109,1.6906,2.7339,3.3732,3.5866,3.6922,3.6886,3.8702,4.0157,4.1348,4.2043,4.2574,4.2852,4.1012,3.9602,3.8609,3.7296,3.6395,3.5806,3.4604,3.311,3.1555,3.1196,3.0414,2.9483,2.9555,2.9986,0.0,3.1025,2.0662,0.7059,0.8976,0.9472,0.9872,1.2929,1.4626,1.5778,1.7065,1.7666,1.7489,1.5523,1.4002,1.2564,1.0761,1.0836,1.1517,1.1815,1.2283,1.3274,1.5548,1.6288,1.7003,1.8505,1.8351,1.8161,1.8724,1.778,1.716,1.7792,1.8043,1.828,1.8646,1.8823,1.9185,0.0,0.0,0.0,1.791,1.5784,1.4123,1.3168,0.8488,0.5598,0.4893,-0.038,-0.384,-0.5175,-0.8059,-1.2706,-1.92,-2.9432,-3.601,-3.9196,-4.2644,-4.6575,-5.0801,-5.0801,-5.2113,-5.4264,-5.4264,-5.4999,-5.6114,-5.6114,-5.6993,-5.8238,-5.8238,-5.8332,-5.8461,0.0146,0.2015,0.3598,0.0,0.0,0.0,0.0,0.0,0.0,0.0,0.0,0.0,0.0,0.0,0.0,0.0,0.0,0.0,0.351,0.4112,1.2012,2.9073,2.9832,2.9826,2.9795,3.2542,3.5506,3.8594,3.8633,3.8973,3.9649,4.0223,3.9485,3.7536,3.5204,3.4663,3.5475,3.3942,3.1386,2.8255,2.7281,2.5105,2.2656,2.4022,2.507,2.6167,2.8972,1.9332,0.522,0.512,0.7257,0.9767,0.9007,1.1444,1.4775,1.5702,1.7307,1.7907,1.3696,1.3362,1.3455,1.0625,1.1851,1.3872,1.4255,1.5416,1.6862,1.8379,1.9222,1.9548,0.0,0.0,1.9333,2.0854,1.9915,1.9305,2.0321,2.0138,2.0106,0.0,0.0,0.0,0.0,0.0,0.0,1.9386,1.6408,1.4619,1.4619,1.0176,0.6786,0.4906,0.1678,-0.1703,-0.5388,-0.7568,-1.2791,-2.0899,-3.189,-3.7879,-3.9196,-4.3565,-4.7707,-5.1559,-5.163,-5.3275,-5.583,-5.583,-5.6311,-5.7021,-5.7021,-5.7737,-5.8825,-5.8825,-5.9103,-5.9323,0.0,0.0,0.0,0.0,0.0,0.0,0.0,0.0,0.0,0.0,0.0,0.0,0.0,0.0,0.0,0.0,0.0,0.0,0.2965,0.3489,0.5862,1.0463,1.1064,1.1085,1.0648,1.1362,1.216,1.2995,1.3459,2.1669,3.6982,3.6878,3.5438,3.2967,3.3367,3.3685,3.3905,3.347,3.2174,3.0142,2.6627,2.3602,2.1808,2.7326,2.9543,2.8356,1.7576,1.0831,0.6831,0.5527,0.7856,1.1425,1.2214,1.3504,1.5172,1.7394,1.736,1.637,1.5105,1.4828,1.4584,1.3628,1.4968,1.649,1.6487,1.7311,1.8479,2.034,2.0963,2.1194,0.0,0.0,0.0,1.8868,1.8877,0.0,1.816,2.0366,0.0,2.1103,0.0,2.227,2.1684,2.1259,0.0,0.0,1.6646,1.4711,1.4711,1.0336,0.6928,0.5059,0.1826,-0.1711,-0.5335,-1.35,-1.8632,-2.0899,-3.189,-3.7879,-3.9297,-4.4259,-4.8666,-5.2461,-5.3238,-5.5124,-5.7552,-5.7552,-5.8009,-5.8697,-5.8697,-5.9468,-6.058,-6.058,-6.0489,-6.0297,0.0,0.0,0.0,0.0,0.0,0.0,0.0,0.0,0.0,0.0,0.0,0.0,0.0,0.0,0.0,0.0,0.0,0.0,0.0,0.3006,0.3343,0.3602,0.3921,0.4055,0.3983,0.4009,0.3855,0.3619,0.3951,1.018,2.1815,2.2592,2.2135,2.065,2.2415,2.3222,2.3444,2.6862,2.5896,0.0,0.0,2.0496,1.8051,2.0946,2.1967,2.0765,1.2462,1.0616,1.1736,0.9129,0.9947,1.2135,1.2888,1.3765,1.4683,1.5649,1.5166,1.4248,1.4168,1.3996,1.4156,1.5122,1.5966,1.6756,1.7697,1.8807,1.9964,2.1283,2.1925,2.2099,2.1651,2.0616,2.0055,0.0,0.0,0.0,2.1324,2.2993,2.3878,0.0,2.3579,0.0,2.2702,2.204,2.1377,0.0,1.8508,1.6507,1.5054,1.2607,0.93,0.5246,0.3296,-0.053,-0.6544,-1.6827,-2.1948,-2.2058,-3.287,-3.8686,-3.9921,-4.5636,-5.0073,-5.3469,-5.4703,-5.6551,-5.8673,-5.9006,-5.9417,-5.9765,-5.9765,-6.0517,-6.1501,-6.1501,-6.1651,-6.1773,0.0,0.0,0.0,0.0,0.0,0.0,0.0,0.0,0.0,0.3592,0.3584,0.3581,0.0,0.0,0.0,0.0,0.0,0.0,0.0,0.0,0.3067,0.3579,0.3604,0.3851,0.4369,0.4378,0.4076,0.3458,0.3627,0.3639,0.3542,0.5751,0.6779,0.688,0.9013,0.9835,1.0116,1.7107,1.6195,1.0431,1.5975,1.6305,1.3204,0.0,1.0202,1.0328,1.1803,1.4669,1.7224,1.3551,1.229,1.2291,1.2298,1.3019,1.3659,1.2608,1.2307,1.2293,1.2275,1.2639,1.3578,1.573,1.6053,1.6471,1.8509,2.0061,2.1269,2.1974,2.243,2.2376,2.1211,2.0182,2.0481,2.3348,0.0,2.3327,2.6052,2.6173,2.5975,2.6136,2.5041,2.43,2.4016,2.2749,2.185,2.1861,2.1174,1.9376,1.5887,1.5187,1.1818,0.5391,0.4121,-0.0266,-0.8228,-1.8674,-2.4024,-2.4374,-3.5001,-4.0421,-4.1474,-4.7632,-5.192,-5.4601,-5.6275,-5.793,-5.96,-6.0444,-6.0809,-6.0713,-6.0713,-6.1336,-6.2219,-6.2219,-6.2756,-6.3424,0.0,0.0,0.0,0.0,0.0,0.0,0.0,0.0,0.0,0.0,0.3585,0.3581,0.0,0.0,0.0,0.0,0.0,0.0,0.0,0.0,0.0,0.3602,0.3591,0.3671,0.3745,0.3764,0.3442,0.2869,0.3841,0.3838,0.2891,0.4726,0.5583,0.5665,0.7396,0.7404,0.6353,0.9046,0.9396,0.8359,1.064,1.1162,1.0578,1.0154,0.0,0.0,1.4221,1.6261,1.7253,1.3544,1.2285,1.2308,1.2273,1.2469,1.2593,1.2333,1.2263,1.2303,1.2276,1.4617,1.6759,1.5683,1.7584,1.9742,2.0165,2.1043,0.0,0.0,2.2785,2.1814,2.1534,2.1301,2.0541,1.8542,2.1322,2.3969,2.447,2.6503,2.7351,0.0,2.6933,2.6902,2.5179,2.4086,0.0,0.0,2.3551,2.3288,1.7812,1.3646,0.9588,0.5475,-0.1859,-0.7012,-0.9974,-2.1199,-2.7437,-2.8859,-3.9571,-4.4776,-4.5115,-5.0749,-5.4394,-5.6231,-5.8461,-6.0048,-6.1281,-6.2509,-6.2771,-6.2401,-6.2401,-6.3007,-6.3955,-6.3955,-6.4127,-6.4308,0.0,0.0,0.0,0.0,0.0,0.0,0.0,0.3875,0.4081,0.4083,0.4615,0.4673,0.3703,0.3591,0.3611,0.0,0.0,0.0,0.0,0.0,0.0,0.3602,0.0,0.0,0.3585,0.3578,0.3302,0.2693,0.0,0.3746,0.4074,0.4906,0.5753,0.659,0.7346,0.7261,0.6642,0.8207,0.8838,0.8899,0.9611,1.0587,1.1714,0.0,0.0,0.0,0.0,1.725,1.7316,1.3982,1.2618,1.2277,1.2333,1.2331,1.2281,1.233,1.3731,1.5289,1.5238,1.6624,1.8478,2.0532,2.2388,2.3932,2.5146,0.0,0.0,0.0,2.23,2.1996,2.1092,2.1285,0.0,1.88,2.1086,2.3798,2.595,2.7399,0.0,2.7276,2.7853,2.7975,0.0,2.5345,2.3748,2.2498,2.465,2.3308,1.7224,1.1698,0.773,0.5464,-0.2388,-0.9156,-1.4447,-2.2583,-2.8431,-3.2281,-4.1227,-4.6326,-4.7951,-5.2441,-5.5886,-5.844,-6.0413,-6.1675,-6.2463,-6.3531,-6.3892,-6.3637,-6.3637,-6.4099,-6.4765,-6.4765,-6.4963,-6.5218,0.0,0.0,0.0,0.0,0.0,0.0,0.0,0.4518,0.5049,0.4919,0.5702,0.5738,0.4356,0.3818,0.3623,0.0,0.0,0.0,0.0,0.0,0.0,0.0,0.0,0.0,0.0,0.0,0.0,0.2874,0.3395,0.0,0.0,0.0,0.0,0.0,0.7535,0.7685,0.7812,0.9267,1.0154,0.0,0.0,1.1858,0.0,0.0,0.0,0.0,0.0,1.7809,1.7559,1.5859,1.4486,1.3483,1.3521,1.3802,1.4148,1.4476,1.6741,1.9083,1.9065,1.9435,2.0797,2.4803,2.6479,2.7683,2.9426,2.7106,0.0,2.1137,2.1488,2.1875,2.0553,0.0,2.1272,0.0,2.2086,2.409,2.7778,2.8301,2.8264,0.0,0.0,0.0,2.8295,2.6955,0.0,2.6382,2.6355,2.3323,1.6255,1.1445,0.7842,0.5436,-0.0795,-0.7417,-1.4169,-2.3354,-3.0449,-3.5758,-4.3172,-4.7644,-4.9726,-5.4278,-5.7898,-6.0522,-6.2083,-6.2872,-6.3152,-6.4143,-6.4481,-6.437,-6.437,-6.4696,-6.5099,-6.5099,-6.5446,-6.5897,0.0,0.0,0.0,0.0,0.0,0.0,0.0,0.5785,0.6659,0.623,0.6213,0.6225,0.609,0.4569,0.3622,0.0,0.0,0.0,0.0,0.0,0.0,0.0,0.0,0.0,0.0,0.0,0.0,0.3524,0.5579,0.0,0.0,0.0,0.0,0.0,0.0,0.7687,0.7784,0.9275,0.0,0.0,0.0,0.0,0.0,0.0,0.0,0.0,0.0,1.7803,1.816,0.0,0.0,1.7321,1.7452,1.8567,2.0142,2.1647,0.0,0.0,2.2591,2.4122,2.5369,2.3827,2.6468,2.9572,2.9766,0.0,2.097,2.0662,2.0565,2.0492,2.0346,2.0372,2.1381,0.0,2.4886,2.5764,2.8004,2.8295,0.0,0.0,0.0,0.0,2.8275,2.9536,3.0379,3.0405,3.0392,2.6116,1.6382,1.5443,1.2056,0.5569,0.159,-0.0919,-0.1668,-2.3434,-3.6464,-4.0415,-4.7882,-5.0755,-4.9577,-5.779,-6.1724,-6.206,-6.3264,-6.3491,-6.3195,-6.4509,-6.4765,-6.437,-6.437,-6.4696,-6.5099,-6.5099,-6.5446,-6.5897,0.0,0.0,0.0,0.0,0.0,0.0,0.4416,0.5712,0.6634,0.6761,0.6814,0.6635,0.631,0.5026,0.3972,0.3649,0.0,0.0,0.0,0.0,0.0,0.0,0.0,0.0,0.0,0.0,0.4269,0.566,0.6547,0.0,0.0,0.0,0.0,0.0,0.0,0.9928,1.1058,1.1634,0.0,0.0,0.0,0.0,0.0,0.0,0.0,0.0,0.0,0.0,1.7992,1.9176,0.0,0.0,1.7844,1.9592,0.0,0.0,2.345,2.3392,2.4787,2.5807,2.6775,2.7881,3.0675,3.3208,3.3228,0.0,2.059,2.0614,2.0558,2.0455,2.0313,2.194,2.3735,2.5082,2.5295,2.6283,2.9173,2.883,0.0,0.0,2.8331,0.0,0.0,0.0,3.0882,3.0856,3.084,3.0699,3.027,2.3106,1.3859,0.2524,0.0803,0.0,0.0,-1.6053,-3.0023,-4.1906,-4.9813,-5.3201,-5.2605,-5.7055,-6.0878,-6.4012,-6.4472,-6.4853,-6.515,-6.5647,-6.5781,-6.5597,-6.5482,-6.5532,-6.5685,-6.5608,-6.5717,-6.5897,0.0,0.0,0.0,0.0,0.0,0.381,0.4403,0.5365,0.6113,0.6336,0.6618,0.6754,0.6343,0.6608,0.5931,0.3774,0.3605,0.0,0.0,0.0,0.0,0.0,0.0,0.0,0.0,0.0,0.5382,0.7011,0.7001,0.7004,0.0,0.0,0.8785,1.0333,0.0,0.0,0.0,0.0,0.0,0.0,0.0,0.0,0.0,0.0,0.0,0.0,0.0,0.0,0.0,0.0,0.0,1.7902,1.8374,2.0007,2.2066,2.3964,2.4324,2.4471,2.6046,2.7226,2.8588,3.0926,3.3543,3.4955,0.0,0.0,2.0603,2.0607,2.0615,2.0568,2.0416,2.3132,2.5415,2.544,2.5351,2.6126,2.8575,2.803,0.0,0.0,0.0,3.3752,3.914,3.4387,3.0852,3.0949,3.249,3.5577,4.0421,3.052,2.0192,1.0187,0.3488,0.0,0.0,-1.7867,-3.3634,-4.6947,-5.1467,-5.4281,-5.5649,-5.7775,-6.1286,-6.5688,-6.5601,-6.5882,-6.6411,-6.6411,-6.6411,-6.6372,-6.6256,-6.6183,-6.6167,-6.609,-6.6013,-6.5936,0.0,0.0,0.0,0.0,0.0,0.0,0.4416,0.5006,0.5218,0.4594,0.5578,0.6323,0.6323,0.9832,0.9893,0.4098,0.3599,0.0,0.0,0.0,0.0,0.0,0.0,0.0,0.0,0.0,0.698,0.7011,0.6995,0.7019,0.7032,0.9266,1.0288,1.0389,0.0,0.0,0.0,0.0,0.0,0.0,0.0,0.0,0.0,0.0,0.0,0.0,0.0,0.0,0.0,0.0,0.0,0.0,0.0,2.0282,2.0978,2.4297,2.5825,2.6478,2.6509,2.8913,3.1467,3.1479,3.353,3.3718,0.0,2.291,2.0595,2.0611,2.0586,2.0585,2.0601,2.3384,2.5702,2.5688,2.5468,2.5302,2.5322,2.5326,0.0,0.0,0.0,3.959,3.9673,3.4387,3.093,3.0954,3.6303,4.0617,4.2811,3.683,3.3241,3.3049,1.1519,0.0,0.0,-3.3796,-5.3194,-5.7674,-5.3295,-5.3582,-5.7994,-6.1255,-6.4266,-6.6858,-6.6523,-6.6413,-6.6504,-6.6504,-6.6465,-6.6387,-6.6387,-6.6415,-6.6423,-6.6423,-6.6269,-6.609,0.0,0.0,0.0,0.0,0.0,0.0,0.0,0.5919,0.4876,0.5094,0.5453,0.5552,0.5094,0.6934,0.7929,0.7193,0.6376,0.0,0.0,0.0,0.0,0.0,0.0,0.0,0.0,0.7773,0.7006,0.7006,0.7825,0.9177,1.1041,1.1902,1.293,1.4063,1.4098,1.4713,0.0,0.0,0.0,0.0,0.0,0.0,0.0,0.0,0.0,0.0,0.0,0.0,0.0,0.0,0.0,0.0,0.0,0.0,0.0,2.1584,2.3689,2.6298,2.913,3.0698,3.196,3.3801,3.6445,3.6312,2.7339,2.2848,2.0542,2.0421,2.0498,2.1324,2.3632,2.4956,2.5691,2.5707,2.5619,2.5579,0.0,0.0,0.0,3.0624,3.4568,3.7849,0.0,0.0,3.6889,3.6899,4.4493,5.0375,5.3017,4.4773,3.9971,3.9981,1.3987,0.0,0.0,-3.4067,-5.1933,-5.3314,-5.4952,-5.8651,-6.4077,-6.5123,-6.6057,-6.6893,-6.6796,-6.6761,-6.6761,-6.6761,-6.6755,-6.6731,-6.6731,-6.6745,-6.672,-6.6461,-6.626,-6.6089,0.0,0.0,0.0,0.0,0.0,0.0,0.0,0.7301,0.6239,0.6644,0.6707,0.6561,0.6155,0.6407,0.6988,0.8051,0.7833,0.0,0.0,0.0,0.0,0.0,0.0,0.0,0.9778,0.8392,0.7815,0.8109,0.9964,1.2064,1.4272,1.5318,1.5643,1.5299,1.5085,1.5273,0.0,0.0,0.0,0.0,0.0,0.0,1.7296,0.0,0.0,0.0,0.0,0.0,0.0,0.0,0.0,0.0,0.0,0.0,0.0,0.0,2.2035,2.4269,2.8098,2.8695,2.8773,3.1078,3.2635,3.2111,2.6554,2.2806,2.045,2.0335,2.1474,2.3157,2.5297,2.5691,2.5694,2.5702,2.789,2.9599,0.0,0.0,0.0,3.3941,0.0,0.0,4.444,4.1758,4.1146,4.465,5.0229,5.3116,5.2333,5.2106,5.2047,5.2006,1.8195,0.0,0.0,-3.7993,-5.7139,-5.7178,-5.9961,-6.3251,-6.6869,-6.584,-6.5767,-6.6503,-6.6516,-6.6527,0.0,-6.6513,-6.6606,-6.6711,-6.6862,-6.6609,-6.611,-6.5894,-6.5595,-6.5255,0.0,0.0,0.0,0.0,0.0,0.0,0.0,0.8816,0.877,0.8777,0.8789,0.882,0.881,0.7734,0.7004,0.6981,0.0,0.0,0.0,0.0,0.0,0.0,0.0,0.0,0.9081,0.8764,0.9049,0.9938,1.329,1.5745,1.7364,1.93,1.8312,1.4925,1.5675,1.5941,1.5891,0.0,0.0,0.0,1.6857,1.7052,0.0,0.0,0.0,0.0,0.0,0.0,0.0,0.0,0.0,0.0,0.0,0.0,0.0,0.0,0.0,0.0,0.0,2.3926,2.3186,2.4746,2.3959,2.3195,2.4617,2.2536,0.0,2.0318,2.2959,2.5401,2.5615,2.5654,2.5688,2.5688,3.1052,3.5234,3.5239,3.3675,0.0,0.0,4.068,0.0,5.1768,4.5349,4.4228,5.2804,5.4104,5.1607,4.5031,5.8118,6.5855,6.6073,2.3107,0.0,0.0,-4.3363,-6.5207,-6.5193,-6.5922,-6.6247,-6.6172,-6.3888,-6.3739,-6.5337,-6.5332,-6.5464,-6.5646,-6.5437,-6.559,-6.6035,-6.6322,-6.5686,-6.4623,-6.4701,-6.4333,-6.3865,0.0,0.0,0.0,0.0,0.0,0.0,0.0,0.0,0.0,0.0,0.8777,0.8791,0.8817,0.7722,0.6987,0.0,0.0,0.0,0.0,0.0,0.0,0.0,0.0,0.0,0.994,0.8288,0.8311,1.0215,1.7509,2.2385,2.4934,2.2281,2.0279,1.8979,1.8249,1.7422,1.658,1.6649,0.0,0.0,1.7175,1.7532,0.0,0.0,0.0,0.0,1.8471,1.9004,0.0,0.0,0.0,0.0,0.0,0.0,0.0,0.0,2.0744,2.1366,2.2069,0.0,2.2889,2.3277,2.3088,2.2566,0.0,2.0888,2.0319,2.0294,2.097,2.2344,2.49,2.5381,2.5381,2.5396,2.6767,2.7811,2.7816,3.9581,0.0,5.0109,5.0222,4.8307,4.3457,4.7373,5.1176,5.3331,5.9872,6.3031,6.1367,5.7211,5.5821,5.7873,2.0234,0.0,0.0,-3.2362,-4.8643,-4.8667,-5.6379,-6.0012,-6.0081,-6.1982,-6.1708,-5.9762,-5.976,-6.1185,-6.3341,-6.0858,-6.0735,-6.2107,-6.2213,-6.2043,-6.1909,-6.2934,-6.3415,-6.3755,0.0,0.0,0.0,0.0,0.0,0.0,0.0,0.0,0.0,0.0,0.0,0.8815,0.8811,0.822,0.0,0.0,0.0,0.0,0.0,0.0,0.0,0.0,0.0,0.8855,0.9541,0.8889,0.9501,1.1507,1.7315,2.2401,2.6531,2.3655,2.1626,2.0376,1.8958,1.7801,1.7027,1.7027,1.7296,1.7715,1.7715,0.0,0.0,0.0,0.0,0.0,1.8734,1.9307,0.0,2.0245,2.1116,2.199,0.0,0.0,0.0,0.0,2.0459,2.0911,2.0851,2.2076,2.3389,2.3266,2.3016,2.2504,2.1325,2.0672,2.0312,2.0294,2.0925,2.213,2.4401,2.6348,2.7113,2.5572,2.5298,2.8312,3.7035,0.0,5.3498,5.3514,5.6865,5.5742,4.6898,5.0524,5.4528,5.7094,6.4714,6.6993,6.1807,5.614,5.3684,5.5111,1.9279,0.0,0.0,-2.8612,-4.2997,-4.3042,-4.8478,-5.342,-5.7916,-5.9722,-5.9564,-5.7936,-5.7894,-5.8898,-6.0431,-5.8718,-5.8607,-5.9516,-5.9488,-6.0056,-6.0876,-6.1593,-6.2066,-6.2341,0.0,0.0,0.0,0.0,0.0,0.0,0.0,0.0,0.0,0.0,0.0,0.0,0.0,0.0,0.0,0.0,0.0,0.0,0.0,0.0,0.0,0.0,0.8955,0.9528,0.8946,0.9835,1.1032,1.2512,1.629,2.0566,2.5106,2.4316,2.279,2.063,1.896,1.7927,1.7439,1.7439,1.776,1.8287,1.8287,0.0,0.0,0.0,0.0,0.0,0.0,0.0,0.0,2.1165,2.2134,2.2813,2.1877,0.0,0.0,0.0,0.0,0.0,2.0403,2.2623,2.4623,2.3677,2.3132,2.2697,2.2218,2.138,2.0696,2.0696,2.1735,2.3122,2.453,2.7763,2.9544,2.7657,2.9253,3.5348,4.8631,5.0914,5.1408,5.1884,5.9499,6.2062,5.5395,5.4727,5.6913,6.2095,6.751,6.6068,5.5731,5.3307,5.3173,5.5102,1.931,0.0,0.0,-2.7616,-4.1468,-4.1484,-4.1537,-4.6431,-5.5596,-5.5645,-5.5834,-5.6238,-5.6298,-5.6678,-5.7327,-5.7316,-5.7619,-5.8014,-5.8005,-5.8952,-6.0376,-6.0372,-6.0441,-6.0612,0.0,0.0,0.0,0.0,0.0,0.0,0.0,0.0,0.0,0.0,0.0,0.0,0.0,0.0,0.0,0.0,0.0,0.0,0.0,0.0,0.0,0.9868,0.8307,0.83,1.0022,1.024,1.041,1.0714,1.9881,2.4205,2.3919,2.5358,2.4427,2.1475,2.0237,1.9104,1.8044,1.8044,1.8232,1.8545,1.8545,0.0,0.0,0.0,0.0,0.0,0.0,0.0,0.0,1.9858,2.1143,2.2611,2.0404,0.0,0.0,0.0,0.0,0.0,2.0996,2.4671,2.7293,2.2933,2.2342,2.2774,2.2697,2.2543,2.2427,2.2427,2.2265,2.3237,2.6844,2.846,3.0837,3.5837,4.7186,5.0999,3.8593,0.0,4.1976,4.4697,5.3437,5.9568,6.0346,6.0425,6.2022,6.582,6.4712,6.1374,5.5472,4.49,4.3962,5.4787,1.9294,0.0,0.0,-2.3215,-3.4863,-3.4805,-3.4847,-3.8526,-4.5245,-4.5277,-4.6611,-4.8936,-4.8942,-5.0966,-5.4161,-5.4164,-5.5694,-5.798,-5.8028,-5.816,-5.8437,-5.8418,-5.8929,-5.9737,0.0,0.0,0.0,0.0,0.0,0.0,0.0,0.0,0.0,0.0,0.0,0.0,0.0,0.0,0.0,0.0,0.0,0.0,0.0,0.0,1.2615,1.1886,1.2047,1.1551,1.033,1.2085,1.3258,1.3655,2.1681,2.6435,2.7856,2.6196,2.3917,2.111,2.0504,1.9464,1.8225,1.8333,1.8584,1.8807,0.0,0.0,0.0,0.0,0.0,0.0,0.0,0.0,0.0,0.0,2.1033,2.2078,2.0572,0.0,0.0,0.0,0.0,0.0,2.1205,2.3512,2.5784,2.6189,2.8327,3.0309,3.0309,2.9957,2.8623,2.4914,2.579,2.7753,2.9406,3.3071,3.6455,3.8393,5.1132,5.7557,4.8187,4.9332,5.1675,5.3163,5.8928,6.3277,6.4404,6.1539,6.0974,6.4237,5.4343,4.7197,4.4915,3.5331,2.8427,2.5426,0.8809,-0.4043,-1.2249,-1.855,-2.3676,-2.7821,-3.162,-3.6095,-4.131,-4.2478,-4.4522,-4.7329,-4.7306,-4.8364,-5.0352,-5.2539,-5.433,-5.5593,-5.5566,-5.5608,-5.5562,-5.544,-5.6249,-5.7479,0.0,0.0,0.0,0.0,0.0,0.0,0.0,0.0,0.0,0.0,0.0,0.0,0.0,0.0,0.0,0.0,0.0,0.0,0.0,1.3468,1.3794,1.3973,1.6662,1.6134,1.1834,1.5401,1.8209,1.9995,2.4673,2.8152,3.039,2.6188,2.2952,2.0734,2.0552,1.97,1.8393,1.8622,1.8843,1.9051,0.0,0.0,0.0,0.0,0.0,0.0,0.0,0.0,0.0,0.0,0.0,0.0,0.0,0.0,0.0,2.0944,2.0612,2.0773,2.1581,2.301,2.5266,2.9386,3.2226,3.463,3.6806,3.6221,3.4066,2.9999,3.1953,3.4069,3.3083,3.9182,0.0,4.1094,5.2146,6.0501,5.9062,6.0503,6.2001,6.2802,6.4732,6.5618,6.4843,6.0628,5.8374,5.9631,4.4967,3.5137,3.3077,2.4012,1.307,0.0428,0.0,-0.652,-1.9843,-1.4349,-1.5942,-2.4887,-3.0307,-3.4449,-3.7725,-3.937,-4.211,-4.5493,-4.556,-4.5483,-4.5841,-5.0277,-5.2085,-5.2032,-5.2034,-5.2618,-5.3368,-5.253,-5.3441,-5.5114,0.0,0.0,0.0,0.0,0.0,0.0,0.0,0.0,0.0,0.0,0.0,0.0,0.0,0.0,0.0,0.0,0.0,0.0,0.0,1.5097,1.6271,1.6288,2.0655,2.088,1.615,2.0633,2.5454,3.041,3.0856,2.9831,2.7363,2.4586,2.2377,2.0772,2.0778,2.0078,1.8931,1.8984,1.9084,1.9292,1.9292,0.0,0.0,0.0,0.0,0.0,0.0,0.0,0.0,0.0,0.0,0.0,0.0,0.0,2.2467,2.2435,2.1953,2.162,2.2466,2.5624,2.893,3.0103,2.8251,2.8411,3.7116,3.6628,3.5507,3.9745,4.1512,4.1459,3.8721,4.6095,5.1236,4.7299,5.5072,6.158,6.147,6.1599,6.2915,6.6134,6.4526,6.1921,5.8805,5.8171,5.6224,5.234,4.2037,3.2428,2.4233,0.9765,0.1266,0.0,0.0,-0.3765,-1.1467,-1.103,-1.7293,-3.0301,-3.081,-3.1238,-3.156,-3.1698,-3.4886,-4.0253,-4.0227,-4.0266,-4.0673,-4.5636,-4.776,-4.7707,-4.776,-5.0124,-5.3141,-5.033,-5.104,-5.3392,0.0,0.0,0.0,0.0,0.0,0.0,0.0,0.0,0.0,0.0,0.0,0.0,0.0,0.0,0.0,0.0,0.0,0.0,0.0,1.3999,1.5675,1.8377,2.022,2.1078,2.0898,2.4311,2.7885,3.1533,2.6553,2.5018,2.6566,2.3079,2.1305,2.1028,2.0569,2.0115,1.9722,1.9352,1.9522,2.0005,1.9491,1.9323,0.0,0.0,0.0,0.0,0.0,0.0,0.0,0.0,2.0307,2.0779,2.079,2.1563,2.2424,2.2029,2.1701,2.1696,2.2543,2.6267,2.9994,3.03,3.0618,3.3144,4.1996,4.3013,4.2922,4.5901,4.724,4.6947,4.4101,0.0,5.0567,5.4974,5.909,6.1686,6.1686,6.3553,6.4775,6.4388,6.1644,5.9263,5.804,5.5408,4.9917,4.078,3.2535,2.6356,2.3012,0.8308,0.0,0.0,0.0,-0.3386,-1.0645,-1.0685,-1.5445,-2.4789,-2.4763,-2.6952,-3.0897,-3.091,-3.2175,-3.4428,-3.8083,-3.9649,-3.9803,-4.1796,-4.4425,-4.7288,-4.7341,-4.9833,-5.3107,-5.0107,-4.9664,-5.0841,0.0,0.0,0.0,0.0,0.0,0.0,0.0,0.0,0.0,0.0,0.0,0.0,0.0,0.0,0.0,0.0,0.0,0.0,1.3957,1.401,1.536,1.8353,1.9271,2.0527,2.2332,2.3374,2.6397,3.1502,2.5418,2.3314,2.4922,2.2281,2.1368,2.1943,2.1048,2.0789,2.1007,2.0087,2.0005,2.0429,1.9601,1.9323,0.0,0.0,0.0,0.0,0.0,0.0,0.0,0.0,2.0223,2.0578,2.076,2.1606,2.2498,2.2055,2.2466,2.3197,2.3505,2.6353,2.9643,3.1546,3.3112,3.6795,4.6624,4.7442,4.7416,5.2043,5.2443,5.1512,5.0105,0.0,0.0,5.663,6.0389,6.2773,6.3281,6.4222,6.4358,6.2933,5.9889,5.7348,5.5908,5.3001,4.5369,3.1182,2.5612,2.0784,1.5867,0.573,0.0,0.0,-0.2173,-0.573,-1.0636,-1.2824,-1.6379,-2.1089,-2.1053,-2.4515,-3.0873,-3.0917,-3.0948,-3.1077,-3.5223,-3.6983,-3.7116,-3.8901,-4.1786,-4.5032,-4.6668,-4.9047,-5.1221,-4.8315,-4.7963,-4.9316,0.0,0.0,0.0,0.0,0.0,0.0,0.0,0.0,1.2891,1.2891,1.2939,0.0,0.0,0.0,0.0,0.0,0.0,0.0,1.5707,1.5791,1.5802,1.5802,1.8273,1.9667,1.9671,1.7205,2.0988,3.1447,2.9264,2.6031,2.192,2.2254,2.2842,2.3623,2.2356,2.2244,2.2887,2.12,2.0503,2.0429,1.9638,1.9323,1.9323,0.0,0.0,0.0,0.0,0.0,0.0,0.0,2.0414,2.0289,2.1956,2.2622,2.2812,2.2774,2.4582,2.639,2.5495,2.5967,2.8152,3.4027,3.4913,3.7688,5.0313,4.8621,4.7495,5.8543,5.7598,5.5255,5.6797,5.6013,5.4061,5.0946,5.8339,6.5059,6.663,6.3154,6.0953,6.2474,5.9644,5.5974,5.1591,5.1031,4.3094,2.4239,2.2727,1.612,0.0857,0.0,-0.0,-0.014,-0.6935,-1.0717,-1.0636,-1.7673,-2.1107,-2.1101,-2.1078,-2.4456,-3.0847,-3.0819,-3.0878,-3.0935,-3.0923,-3.0862,-3.1313,-3.7263,-3.9699,-4.0174,-4.523,-4.7213,-4.6966,-4.426,-4.5724,-4.8978,0.0,0.0,0.0,0.0,0.0,0.0,0.0,0.0,1.2891,1.2891,1.3286,0.0,0.0,0.0,0.0,0.0,0.0,0.0,1.573,1.58,1.58,1.579,1.6541,1.7421,1.8339,2.1697,2.4977,2.8122,2.4692,2.2932,2.2821,2.224,2.2438,2.3196,2.2795,2.2464,2.2061,2.096,2.091,2.1458,2.051,2.0209,2.0344,0.0,0.0,0.0,0.0,0.0,0.0,0.0,0.0,0.0,2.0765,2.1816,2.2658,2.2081,2.2851,2.3851,2.362,2.9497,3.5341,3.4018,4.0767,4.867,5.2341,5.1358,5.1967,6.0169,6.0988,5.9599,5.7499,6.0039,6.062,5.4889,5.9658,6.3912,6.3465,6.2634,5.9253,5.1678,4.48,4.3424,5.0549,3.915,2.6734,1.5832,1.4937,1.0574,0.0566,0.0,-0.2358,-0.7323,-0.9588,-1.0754,-1.0658,-1.7658,-2.1155,-2.1069,-2.1155,-2.2075,-2.4055,-2.4061,-2.6542,-3.0917,-3.0937,-3.0888,-3.0994,-3.275,-3.5993,-3.9878,-4.1352,-4.299,-4.44,-4.3554,-4.4025,-4.537,0.0,0.0,0.0,0.0,0.0,0.0,1.2227,1.2832,1.3142,1.292,1.3387,1.427,0.0,0.0,0.0,1.5918,1.5073,1.4858,1.574,1.5802,1.5802,1.5826,1.58,1.7,1.9549,2.195,2.2589,2.144,2.0194,2.0652,2.2634,2.2987,2.3595,2.4447,2.4447,2.3969,2.318,2.2422,2.2025,2.1888,2.1399,2.1034,2.0765,0.0,0.0,0.0,0.0,0.0,0.0,0.0,0.0,0.0,1.9212,2.0196,2.1397,2.185,2.3581,2.5842,2.8259,3.4347,4.0374,4.1797,4.784,5.4069,5.6613,5.7081,5.8181,6.2509,6.3521,6.3029,6.1208,6.3386,6.4007,5.9553,6.1734,6.2787,5.9483,5.9164,5.5847,4.678,3.8645,3.6497,4.3397,2.8571,1.6504,1.2,0.8765,0.4875,0.0283,0.0,-0.3322,-1.0419,-1.0638,-1.208,-1.4742,-1.904,-2.1067,-2.1109,-2.1109,-2.1159,-2.1135,-2.1115,-2.4651,-3.0945,-3.0858,-3.0839,-3.0888,-3.0913,-3.436,-3.9442,-3.7112,-3.801,-4.0579,-4.0563,-4.0547,-4.0855,0.0,0.0,0.0,0.0,0.0,0.0,1.2968,1.3505,1.3695,1.319,1.351,1.4243,0.0,0.0,0.0,1.7876,1.6038,1.5068,1.5741,1.5802,1.5802,1.5826,1.601,1.8082,2.2209,1.9345,1.6352,1.3394,1.6339,1.9126,2.1759,2.4046,2.5601,2.6502,2.6502,2.5988,2.5127,2.4373,2.3149,2.1775,2.1966,2.1556,2.077,2.0051,0.0,0.0,0.0,0.0,0.0,0.0,0.0,0.0,1.7689,1.8273,1.9434,2.1782,2.5678,3.0451,3.6095,3.9643,4.4058,5.3593,5.5198,5.6083,6.2215,6.4224,6.4844,6.5051,6.5154,6.5511,6.6418,6.5953,6.5094,6.4093,6.3838,6.1657,5.5598,5.3822,5.1311,4.6206,3.891,3.4019,3.3473,2.141,1.2767,1.0766,0.404,-0.0288,-0.0993,-0.0979,-0.3989,-1.0443,-1.1311,-1.4426,-2.0093,-2.0799,-2.1133,-2.1109,-2.1109,-2.1128,-2.1148,-2.1107,-2.4632,-3.0876,-3.0917,-3.0898,-3.0859,-3.0849,-3.4054,-3.8404,-3.3033,-3.2858,-3.5622,-3.5625,-3.6018,-3.6366,0.0,0.0,0.0,0.0,0.0,0.0,1.36,1.4097,1.463,1.4903,1.4967,1.5446,1.6585,1.6839,0.0,1.7292,1.7116,1.6667,1.5831,1.58,1.5802,1.5826,1.7761,1.9942,2.2248,1.932,1.6362,1.3394,1.6365,1.8843,2.0916,2.3297,2.4864,2.5658,2.5658,2.485,2.3382,2.1396,2.083,2.1204,2.0515,2.0637,2.1058,2.0111,1.8806,0.0,0.0,0.0,0.0,0.0,0.0,0.0,1.7654,1.826,1.9119,1.9665,2.4779,3.069,3.27,4.1022,4.9946,5.339,5.8453,6.3145,6.5241,6.5887,6.5824,6.5207,6.5748,6.6331,6.657,6.646,6.5812,6.4293,6.2485,6.0017,5.6353,5.1773,4.7858,4.5315,3.8265,3.3578,3.3442,3.06,2.143,0.3882,0.1012,-0.2726,-0.8734,-0.8676,-0.9114,-1.0652,-1.5952,-1.6901,-1.3001,-1.8314,-2.1155,-2.1109,-2.1109,-2.1082,-2.1141,-2.1067,-2.4667,-3.0858,-3.0957,-3.0898,-3.0859,-3.0849,-3.164,-3.2683,-3.1398,-3.0537,-3.0028,-3.0077,-3.2758,-3.6413,0.0,0.0,0.0,0.0,0.0,0.0,0.0,0.0,1.5219,1.546,1.5381,1.575,1.6866,1.7004,0.0,0.0,1.7486,1.7152,1.5858,1.5823,1.6359,1.7605,1.9758,2.1373,2.2275,2.0753,1.8278,1.4843,1.7314,1.9448,2.1227,2.3236,2.462,2.5421,2.5421,2.4263,2.2372,2.1204,2.0583,2.0364,2.0017,2.0218,2.0525,1.9221,1.7974,1.6818,1.6009,0.0,0.0,0.0,0.0,0.0,0.0,0.0,1.7415,1.941,2.3438,2.8782,3.5912,4.3402,5.068,5.6905,6.2146,6.5876,6.6115,6.6327,6.6309,6.5723,6.6075,6.6484,6.6502,6.6231,6.5371,6.3351,6.1334,5.8733,5.4908,4.8774,4.4376,4.3778,3.4594,2.9553,3.3102,2.7024,1.4971,-0.4049,-0.5512,-0.7347,-1.1348,-1.1094,-1.0646,-1.0658,-1.4244,-1.4353,-1.0684,-1.7569,-2.1129,-2.1109,-2.1109,-2.1056,-2.1186,-2.4316,-2.7624,-3.0878,-3.0957,-3.0898,-3.0879,-3.0856,-3.0915,-3.0897,-3.0913,-2.9888,-2.8263,-2.8277,-3.0088,-3.2869,0.0,0.0,0.0,0.0,0.0,0.0,0.0,0.0,0.0,1.5941,1.5591,1.5798,1.6987,1.6783,1.6637,0.0,0.0,0.0,1.5885,1.6019,1.7113,1.9264,2.125,2.2058,2.1528,2.1045,1.9492,1.6885,1.8502,2.0282,2.2257,2.3572,2.4632,2.5384,2.511,2.3842,2.1799,2.1384,2.0437,1.9251,1.9411,1.9448,1.925,1.796,1.6888,1.5965,1.5369,1.5094,1.4967,1.4942,0.0,0.0,0.0,0.0,1.5592,1.9195,2.2182,2.6809,3.831,4.4525,5.0299,6.098,6.5113,6.6453,6.6081,6.6204,6.633,6.6057,6.6209,6.6371,6.6244,6.5659,6.4381,6.1875,5.9866,5.6917,5.2131,4.522,4.0522,3.9821,3.01,2.5106,2.9216,1.6292,0.2319,-1.0655,-1.1549,-1.1619,-1.1578,-1.1107,-1.107,-1.1701,-1.1652,-1.1881,-1.2523,-1.8244,-2.1129,-2.1109,-2.1109,-2.1128,-2.1327,-2.67,-2.9823,-3.0849,-3.0936,-3.0918,-3.0859,-3.0859,-3.0937,-3.0956,-3.0897,-2.9819,-2.8331,-2.8329,-2.8336,-2.8917,0.0,0.0,0.0,0.0,0.0,0.0,0.0,0.0,0.0,0.0,1.6715,1.6395,1.7508,1.6606,1.5948,1.5948,1.5998,1.5985,1.5836,0.0,0.0,1.8046,2.0773,2.1094,1.8458,1.5879,1.6013,1.8912,1.9163,2.0879,2.3866,2.4097,2.4632,2.5348,2.4043,2.291,2.1708,1.9183,1.7995,1.7747,1.7202,1.6983,1.6938,1.6728,1.5657,1.4332,1.4845,1.4589,1.4059,1.4587,1.4813,0.0,0.0,0.0,1.513,1.6404,2.1712,2.7563,2.9395,4.0489,5.3468,6.1701,6.51,6.6423,0.0,0.0,6.5713,6.5674,6.6061,6.6231,6.5633,6.483,6.3311,6.03,5.7191,5.3278,4.7949,4.1932,3.5584,2.8893,2.7691,2.4024,1.531,0.0575,-0.9323,-1.1372,-1.166,-1.1586,-1.155,-1.1246,-1.2681,-1.5865,-1.5471,-1.664,-1.9695,-2.0618,-2.1129,-2.1109,-2.1109,-2.1096,-2.1182,-2.2047,-2.552,-3.0933,-3.0895,-3.0844,-3.0953,-3.0953,-3.0917,-3.0859,-3.0928,-2.9812,-2.8333,-2.8301,-2.8252,-2.8364,0.0,0.0,0.0,0.0,0.0,0.0,0.0,0.0,0.0,0.0,0.0,1.6425,1.7262,1.6428,1.5799,1.5799,1.5786,1.6107,1.6882,1.7474,1.7789,1.7782,1.908,1.9165,1.7849,1.4891,1.4655,1.723,1.7542,1.9615,2.3297,2.2903,2.3675,2.5311,2.3307,2.1713,2.0329,1.7229,1.5959,1.5971,1.4721,1.6826,2.0273,1.5899,1.6115,1.8367,1.4835,1.3605,1.3721,1.397,1.4354,1.4747,1.4643,0.0,0.0,0.0,1.8617,2.3545,3.2286,4.3451,5.4336,6.1362,6.4479,6.5758,6.5372,6.4813,6.4344,6.4242,6.3486,6.3227,6.4095,6.2735,6.0938,5.91,5.4882,5.018,4.5633,3.9071,3.2617,2.6466,2.3529,1.757,0.6155,-0.5054,-1.1556,-1.1536,-1.1667,-1.1579,-1.1402,-1.3213,-1.4455,-1.5306,-1.7982,-1.9265,-1.91,-2.0464,-2.1049,-2.1109,-2.1109,-2.1109,-2.1109,-2.1128,-2.2644,-2.5381,-2.5465,-2.544,-2.5737,-2.936,-3.0964,-3.0892,-3.084,-2.7828,-2.332,-2.3259,-2.5468,-2.831,0.0,0.0,0.0,0.0,0.0,0.0,0.0,0.0,0.0,0.0,0.0,1.6145,1.6781,0.0,0.0,0.0,1.5805,1.6072,1.6656,1.7365,1.7805,1.7794,1.7787,1.7432,1.6715,1.4521,1.3944,1.5046,1.5941,1.8146,2.1534,2.1692,2.3045,2.521,2.3309,2.1459,1.9602,1.6567,1.5264,1.5247,1.5087,1.8395,2.2901,1.8306,1.9469,2.2734,1.6213,1.4266,1.4644,1.3756,1.3969,1.4616,1.4533,1.4488,0.0,0.0,0.0,1.9234,3.3166,4.1854,4.9037,5.7701,6.1056,6.2582,0.0,0.0,6.2785,6.2641,6.0953,6.0008,6.1603,5.9865,5.7867,5.6806,5.1956,4.6938,4.2809,3.5982,2.9577,2.4804,2.0142,1.3097,0.2439,-0.5499,-1.0504,-1.1358,-1.1462,-1.1511,-1.1341,-1.4113,-1.5334,-1.4782,-1.896,-2.0362,-1.8688,-2.0221,-2.1109,-2.1109,-2.1109,-2.1109,-2.1109,-2.1109,-2.1141,-2.1091,-2.1136,-2.1135,-2.1488,-2.6411,-2.8463,-2.846,-2.8382,-2.4743,-1.9426,-1.9375,-2.3173,-2.8243,0.0,0.0,0.0,0.0,0.0,0.0,0.0,0.0,0.0,0.0,0.0,1.5541,1.607,1.595,1.5794,1.5805,1.5805,1.5166,1.3706,1.6258,1.78,1.78,1.7785,0.0,1.37,1.3483,1.3442,1.3496,1.5401,1.7092,1.8586,2.1279,2.3392,2.491,2.4469,2.2906,2.0493,1.8162,1.6743,1.6385,2.0509,2.1914,2.1991,2.625,2.7086,2.5297,1.9901,1.7968,1.7496,1.4372,1.386,1.4499,1.4499,1.4488,1.4464,0.0,0.0,0.0,2.5875,2.9475,3.4041,4.8711,5.3028,5.5322,0.0,0.0,6.1227,6.1208,5.9341,5.7695,5.7803,5.609,5.4228,5.2659,4.7989,4.3059,3.8574,3.2161,2.6036,2.0823,1.8487,1.4129,0.6239,-0.1593,-0.7526,-1.0915,-1.1295,-1.1335,-1.1179,-1.2783,-1.4504,-1.6435,-1.7859,-1.9554,-2.1394,-2.1243,-2.1109,-2.1109,-2.1109,-2.1109,-2.1109,-2.1109,-2.1109,-2.1096,-2.1082,-2.1061,-2.1107,-2.152,-2.1642,-2.1633,-2.1575,-2.0753,-1.9443,-1.9398,-2.3134,-2.8328,0.0,0.0,0.0,0.0,0.0,0.0,0.0,0.0,0.0,0.0,0.0,0.0,0.0,1.583,1.5802,1.5823,1.6575,1.6021,1.3559,1.4379,1.4972,1.4972,1.4998,1.4476,1.342,1.3404,1.3422,1.3411,1.4093,1.564,1.8044,1.9688,2.1539,2.3355,2.2355,2.1438,2.0455,1.6489,0.0,1.5649,1.9763,2.4172,2.8153,2.7004,3.056,3.5139,0.0,0.0,2.1176,2.0535,1.7693,1.4476,1.4332,1.4307,1.427,1.4065,1.4381,1.6471,2.4242,2.7363,3.0876,4.0867,4.7268,5.1559,5.3435,5.6376,5.8594,5.7843,5.5267,5.2895,5.192,5.1976,5.1594,5.0087,4.4255,3.8666,3.4972,2.8717,2.2875,1.8428,1.7537,1.3284,0.3203,-0.2509,-0.6979,-1.0599,-1.0987,-1.1396,-1.2188,-1.3935,-1.5545,-1.7147,-1.875,-2.0047,-2.0989,-2.1069,-2.1109,-2.1109,-2.1109,-2.1109,-2.1109,-2.1109,-2.1109,-2.1109,-2.1109,-2.1056,-2.1115,-2.1115,-2.1061,-2.1051,-2.1105,-2.0375,-1.9442,-1.9401,-2.3167,-2.8314,0.0,0.0,0.0,0.0,0.0,0.0,0.0,0.0,1.4297,1.4236,0.0,0.0,0.0,0.0,1.5799,1.5794,1.6606,1.5911,1.3039,1.2849,1.301,1.3389,1.3061,1.2871,1.2871,1.2843,1.3049,1.3393,1.2389,1.3409,1.634,1.7661,1.9432,2.1391,1.959,1.9654,0.0,0.0,0.0,1.6429,2.2449,2.7339,3.0938,3.0602,3.4264,0.0,0.0,0.0,0.0,0.0,2.5144,2.1292,1.8406,1.554,1.3298,1.3398,1.3806,1.5335,2.0422,2.2777,2.5638,3.3314,3.8612,4.3017,4.7173,5.0382,5.2851,5.3883,5.1563,4.8972,4.7766,4.6867,4.6017,4.4958,3.9842,3.4486,3.042,2.5,2.0087,1.6563,1.5451,1.1145,0.1225,-0.4229,-0.8068,-1.0496,-1.0745,-1.1394,-1.2722,-1.4468,-1.6409,-1.8374,-1.9607,-2.0374,-2.0668,-2.0869,-2.1015,-2.1109,-2.1109,-2.1109,-2.1109,-2.1109,-2.1109,-2.1109,-2.1109,-2.1109,-2.1109,-2.1109,-2.1056,-2.1074,-2.1094,-2.0402,-1.9348,-1.9359,-2.1934,-2.536,0.0,0.0,0.0,0.0,0.0,0.0,0.0,0.0,1.3257,1.3283,0.0,0.0,0.0,0.0,0.0,1.5811,1.571,1.4571,1.1972,1.1818,1.2269,1.3303,1.2371,1.178,1.178,1.1825,1.2316,1.3345,1.0362,1.0434,1.3401,1.5331,1.7274,1.9054,1.6534,1.773,2.151,0.0,1.872,1.8985,0.0,3.1412,2.9886,0.0,0.0,0.0,3.2982,3.2255,0.0,3.4723,0.0,0.0,2.6337,1.8067,1.1577,1.23,1.2494,1.2761,0.0,0.0,0.0,2.5843,0.0,0.0,4.317,0.0,4.3894,4.9202,4.7975,4.5861,4.5321,4.0903,3.7317,3.7177,3.4527,3.0544,2.5249,2.1301,1.7815,1.5138,1.2234,0.7823,0.1087,-0.6281,-1.0644,-1.0339,-1.0578,-1.1344,-1.2641,-1.449,-1.6842,-2.0079,-2.0214,-2.0361,-2.0655,-2.0668,-2.0815,-2.1109,-2.1109,-2.1109,-2.1109,-2.1109,-2.1109,-2.1109,-2.1096,-2.1096,-2.1096,-2.1096,-2.1074,-2.1094,-2.108,-2.0429,-1.9496,-1.9376,-1.9354,-1.9453,0.0,0.0,0.0,0.0,0.0,1.4009,1.5082,1.471,1.4471,0.0,0.0,0.0,1.5576,1.5719,1.5794,1.5802,1.4047,1.2589,1.1856,1.18,1.1942,1.223,1.1972,1.1788,1.1788,1.2172,1.2173,1.1745,0.9828,1.0065,1.2341,1.3614,1.4917,1.6167,1.6007,1.6344,1.6965,1.4953,0.0,1.8698,2.5613,3.1094,0.0,0.0,0.0,0.0,0.0,4.449,4.2258,0.0,3.7174,2.7622,0.0,1.4929,1.2201,1.2917,1.2636,1.2256,1.3154,0.0,0.0,0.0,0.0,0.0,0.0,0.0,3.6536,4.0227,3.9033,3.7235,3.7002,3.5011,3.1701,2.6844,2.6596,2.6057,2.3035,1.8296,1.5007,1.4473,0.7889,0.2581,0.0384,-0.6356,-1.0432,0.0,-1.1344,-1.2758,-1.3965,-1.6709,-1.8631,-1.9599,-1.9813,-2.0067,-2.0347,-2.0575,-2.0815,-2.1109,-2.1109,-2.1109,-2.1109,-2.1109,-2.1109,-2.1096,-2.1159,-2.1078,-2.1078,-2.1078,-2.1162,-2.1053,-2.0201,-2.0213,-2.0565,-1.9739,-1.9448,-1.9381,0.0,0.0,1.2574,1.3806,1.4138,1.4488,1.5256,1.5223,1.5268,0.0,0.0,0.0,1.6017,1.6862,1.7439,1.7425,1.5006,1.2996,1.1872,1.1784,1.179,1.179,1.179,1.179,1.179,1.2128,1.2205,1.2058,0.9781,0.9218,1.0255,1.1451,1.2379,1.2995,1.3424,1.3657,1.3556,1.1718,0.0,0.0,2.7155,0.0,0.0,4.2834,4.7609,0.0,0.0,0.0,4.6372,4.9986,4.1542,0.0,0.0,0.0,1.2042,1.2623,1.247,1.2324,1.3057,1.3043,1.3094,1.4081,0.0,0.0,0.0,0.0,0.0,3.5878,3.4823,3.2766,3.2378,2.9634,2.605,2.2034,2.0579,1.9616,1.8384,1.5673,1.2747,0.9948,0.4133,-0.0877,-0.3875,-0.7849,-1.0175,-1.0059,-1.1612,-1.3505,-1.5451,-1.8052,-1.9372,-1.9372,-1.9533,-1.9813,-2.0093,-2.0401,-2.0695,-2.1109,-2.1109,-2.1109,-2.1109,-2.1109,-2.1109,-2.1096,-2.1091,-2.0819,-2.0381,-2.0414,-2.0443,-2.0294,-1.9666,-1.9826,-2.0282,-1.969,-1.9349,-1.9372,0.0,0.0,1.2686,1.3828,1.4496,1.4944,1.5206,1.5583,1.5926,0.0,1.6531,1.6692,1.6282,1.831,1.9706,1.972,1.7321,1.4679,1.1981,1.1799,1.1798,1.179,1.179,1.179,1.179,1.1809,1.2211,1.3075,1.0047,0.8349,0.7968,0.9308,0.9903,0.9953,1.0013,1.0428,1.1056,1.0066,0.0,1.7043,3.0505,3.4381,0.0,0.0,4.6907,4.515,4.8179,4.8181,4.7722,5.367,4.6593,0.0,0.0,0.0,0.0,0.0,1.2774,1.3451,1.3557,1.3455,1.3512,1.4562,0.0,0.0,0.0,0.0,0.0,3.258,3.1798,2.949,2.8789,2.4367,2.0718,2.0074,1.6154,1.3169,1.3352,1.3251,1.0711,0.3791,0.0979,-0.2956,-0.9411,-1.0073,-1.0066,-1.0025,-1.161,-1.3965,-1.7103,-1.8648,-1.9372,-1.9372,-1.9372,-1.9522,-1.9945,-2.0106,-2.0521,-2.1109,-2.1109,-2.1109,-2.1109,-2.1082,-2.1069,-2.1056,-2.1135,-2.0438,-1.942,-1.9429,-1.9378,-1.9417,-1.9374,-1.9417,-1.9399,-1.9391,-1.9442,-1.9372,1.1587,1.2341,1.3292,1.4496,1.5475,1.6405,1.741,1.7178,1.7287,1.8245,1.8755,1.9045,1.8959,1.9406,1.9718,1.9697,1.7299,1.466,1.1991,1.1808,1.1806,1.182,1.179,1.179,1.179,1.1809,1.1571,1.1067,0.9999,0.9063,0.8325,0.8602,0.8802,0.8891,0.8956,0.9155,0.9486,0.0,0.0,2.0514,2.6254,0.0,3.7077,4.6006,5.1058,5.3388,5.4064,5.4027,5.3158,4.9186,4.5523,4.0726,0.0,0.0,0.0,1.6632,0.0,0.0,0.0,0.0,0.0,0.0,0.0,0.0,0.0,1.4391,1.5073,0.0,1.8738,1.7868,1.8916,1.8445,1.7056,1.4187,1.303,1.276,1.3469,1.1985,0.824,0.1471,-0.1345,-0.4532,-0.9394,-0.9992,-1.0005,-0.9876,-1.2509,-1.5601,-1.8765,-1.9243,-1.9372,-1.9372,-1.9372,-1.9522,-1.9945,-2.0106,-2.0521,-2.1109,-2.1109,-2.1109,-2.1109,-2.1146,-2.1051,-2.1148,-2.1157,-2.0506,-1.9402,-1.9455,-1.9455,-1.9378,-1.9351,-1.9452,-1.9372,-1.9426,-1.9412,-1.9372,1.1855,1.2756,1.379,1.4989,1.6103,1.717,1.8059,1.8139,1.8267,1.8793,1.9345,2.0189,2.1503,2.0452,1.969,1.97,1.8498,1.6606,1.3971,1.2531,1.1819,1.182,1.179,1.1784,1.1799,1.1818,1.1594,1.1144,1.0232,0.9234,0.815,0.8156,0.9121,1.0791,0.9225,0.9683,1.1559,0.0,1.3511,1.8949,2.76,0.0,4.1719,4.9694,5.3969,5.5667,5.5262,5.5144,5.443,4.9976,4.4767,0.0,0.0,3.0596,2.5987,0.0,1.9617,2.03,0.0,0.0,0.0,1.3144,0.0,0.0,0.0,0.0,1.3983,1.7298,1.6392,1.5349,1.6523,1.5338,1.3582,1.1939,1.1405,1.1116,1.0964,0.8928,0.5694,0.0612,-0.3918,-0.7373,-0.9592,-0.9897,-1.0508,-1.2105,-1.448,-1.6856,-1.9243,-1.9372,-1.9372,-1.9372,-1.9372,-1.9442,-1.9614,-2.0026,-2.0468,-2.1047,-2.1042,-2.1042,-2.1034,-2.1148,-2.0738,-2.0292,-2.0253,-1.9932,-1.9378,-1.9362,-1.9439,-1.9429,-1.9412,-1.9372,-1.9372,-1.9372,-1.9372,-1.9345,1.2012,1.3088,1.4273,1.5236,1.6432,1.7532,1.8084,1.8505,1.8649,1.8598,1.9249,2.0542,2.2636,2.098,1.9686,1.9718,1.9246,1.8032,1.5929,1.3291,1.1803,1.1797,1.1785,1.1792,1.1799,1.2311,1.207,1.1036,1.0018,0.8957,0.7884,0.7907,0.954,1.2426,1.1099,1.1771,0.0,0.0,0.0,1.9551,0.0,3.7756,4.2888,5.108,5.4231,5.4186,5.4108,5.3969,5.3369,5.0618,4.4158,3.7461,3.8581,3.3509,0.0,0.0,0.0,0.0,0.0,0.0,0.0,0.0,0.0,1.293,0.0,0.0,0.0,0.0,0.0,0.0,0.0,0.0,0.0,1.0548,0.0,0.0,0.0,0.6339,0.0,0.0342,-0.5852,-0.9674,-0.9183,-0.9228,-1.0699,-1.4331,-1.5138,-1.6582,-1.9216,-1.9372,-1.9372,-1.9372,-1.9372,-1.9376,-1.9391,-1.9826,-2.0361,-2.1149,-2.1159,-2.1146,-2.1136,-2.0821,-2.0239,-1.9451,-1.943,-1.9443,-1.943,-1.9452,-1.9372,-1.9372,-1.9372,-1.9372,-1.9372,-1.9372,-1.9448,-1.9381,1.1587,1.3271,1.4674,1.4925,1.6308,1.7581,1.8129,1.7852,1.7753,1.8175,1.9171,1.9889,2.0116,1.9883,1.9727,1.9699,1.7592,1.6118,1.5828,1.3315,1.1817,1.1814,1.1791,1.1786,1.1803,1.4139,1.3048,0.8356,0.8195,0.8045,0.7914,0.7899,0.8743,1.0509,1.5866,1.6063,0.0,0.0,2.627,0.0,3.1482,3.2124,0.0,4.4729,4.8813,4.9101,5.1393,5.1638,5.0186,0.0,4.3618,4.0929,0.0,3.3536,3.6754,2.1239,0.0,0.0,0.0,0.0,0.0,0.0,1.2673,0.0,0.0,0.0,1.0289,0.9742,0.0,0.0,0.0,0.0,0.0,0.0,0.0,0.0,0.5807,0.6165,0.0,0.0254,-0.591,-0.9007,-0.7023,-0.7053,-0.9234,-1.4232,-1.1782,-1.2792,-1.911,-1.9372,-1.9372,-1.9372,-1.9372,-1.9376,-1.9391,-1.9412,-1.9985,-2.1119,-2.1136,-2.1122,-2.1105,-2.0027,-1.9483,-1.943,-1.9402,-1.9412,-1.9412,-1.9386,-1.9372,-1.9372,-1.9372,-1.9372,-1.9372,-1.9372,-1.9354,-1.9394,1.1528,1.3105,1.4384,1.4428,1.611,1.7451,1.7702,1.7787,1.815,1.9042,2.0799,2.2586,2.4119,2.4307,2.7905,0.0,0.0,3.5473,0.0,2.2845,1.3424,1.1869,1.77,1.8084,1.1908,1.1431,1.0139,0.7882,0.7904,0.7901,0.7914,0.7914,0.8194,0.8882,1.2375,0.0,2.8152,0.0,1.872,0.0,0.0,0.0,0.0,4.7369,5.0791,5.0391,5.1536,5.1229,5.0077,0.0,4.332,0.0,0.0,0.0,0.0,0.0,0.0,0.0,0.0,0.0,0.0,0.0,0.0,0.0,0.9914,0.0,0.851,0.0,0.0,0.0,0.0,0.0,0.0,0.0,0.6805,0.0,0.0,0.0,0.0,0.0,0.0,0.0,-0.6464,-0.8916,-1.1578,-1.434,-1.4871,-1.6321,-1.9225,-1.9372,-1.9372,-1.9372,-1.9372,-1.9376,-1.9391,-1.9389,-1.9933,-2.1064,-2.0496,-2.0133,-2.0107,-1.9589,-1.9443,-1.9402,-1.9412,-1.9372,-1.9372,-1.9372,-1.9372,-1.9359,-1.9442,-1.9367,-1.9345,-1.9442,-1.9448,-1.9948,1.1194,1.2552,1.3693,1.3865,1.5473,1.6841,1.7124,1.7467,1.8396,2.0181,2.226,2.4325,2.6303,2.7135,0.0,0.0,4.7591,5.0638,0.0,3.0374,1.5662,1.3022,2.025,2.0415,1.1982,0.9228,0.7894,0.7896,0.7894,0.7901,0.7913,0.7916,0.7888,0.7942,0.9305,2.0175,3.6922,0.0,1.9278,1.178,1.4566,2.6594,4.3492,4.8523,5.1224,5.2238,5.1696,5.0799,4.9882,4.9628,4.3403,3.6592,4.2152,3.6634,2.8474,0.0,0.0,0.0,1.7776,0.0,0.0,0.0,0.0,0.0,0.0,0.0,0.0,0.0,0.0,0.0,0.0,0.0,0.0,0.0,0.0,0.5682,0.0,0.0,0.0,0.0,0.0,0.0,0.0,-0.8297,-1.0807,-1.2841,-1.338,-1.5292,-1.9185,-1.9372,-1.9372,-1.9372,-1.9421,-1.9386,-1.9404,-1.9679,-2.0064,-2.0667,-1.9813,-1.9416,-1.9417,-1.9417,-1.9429,-1.9372,-1.9372,-1.9372,-1.9372,-1.9372,-1.9448,-1.9381,-1.9388,-2.0415,-2.1636,-1.9976,-2.0485,-2.2479,1.0332,1.1511,1.2764,1.3305,1.4364,1.5393,1.6361,1.6529,1.787,2.1558,2.2933,2.363,2.3722,0.0,0.0,0.0,0.0,5.3088,5.3228,0.0,1.8407,1.5775,1.6014,1.4805,1.1849,0.9243,0.7913,0.7879,0.7907,0.7901,0.7887,0.7905,0.79,0.7971,0.9307,1.7384,3.0943,4.5859,3.8044,1.5164,1.0238,2.507,4.9544,0.0,4.7153,5.3228,5.118,0.0,0.0,4.7715,4.3775,3.8417,3.3087,3.3606,0.0,0.0,0.0,0.0,0.0,0.0,0.0,1.194,0.0,0.0,0.0,0.0,0.7322,0.0,0.0,0.0,0.0,0.0,0.0,0.0,0.0,0.0,0.0,0.0,0.0,0.0,0.0,0.0,0.0,0.0,-0.4062,0.0,-0.2736,-0.4866,-1.8695,-1.9372,-1.9372,-1.9372,-1.9347,-1.9347,-1.9372,-2.0438,-2.0568,-1.9399,-1.9417,-1.9391,-1.9386,-1.9386,-1.9372,-1.9372,-1.9372,-1.9372,-1.9372,-1.9372,-1.9354,-1.9394,-1.9381,-2.2902,-2.7345,-2.1562,-2.3083,-2.8038,1.0703,1.1083,1.1634,1.2246,1.3506,1.5065,1.695,1.6826,1.696,1.8222,1.9962,2.1744,2.3403,2.752,3.4037,0.0,0.0,5.3207,5.3226,3.5462,0.0,1.4404,3.1072,3.1817,1.3137,1.1242,0.9639,0.7905,0.7307,0.703,0.7071,0.8547,0.8437,0.7055,0.7516,1.3437,0.0,0.0,0.0,0.0,0.0,3.4212,3.5614,0.0,5.0442,5.244,5.1831,5.035,4.8686,4.8905,4.6328,4.2754,4.1504,3.6493,3.1266,3.2777,3.0723,2.7275,2.4526,2.3758,2.2083,1.5269,1.4487,0.0,0.0,0.0,0.0,0.0,0.0,0.0,0.0,0.0,0.0,0.0,0.0,0.0,0.0,0.0,0.0,0.0,0.0,0.0,0.0,0.0,0.0,0.0,0.0,0.0,-1.9172,-1.9372,-1.9408,-1.9347,-1.9428,-1.9008,-1.8197,-1.9359,-1.9726,-1.9391,-1.9415,-1.9452,-1.9372,-1.9372,-1.9372,-1.9372,-1.9372,-1.9372,-1.9372,-1.9372,-1.9435,-1.974,-2.3731,-2.4152,-2.2667,-2.4574,-2.6601,-2.829,1.1113,1.1016,1.1145,1.1936,1.3292,1.4969,1.6876,1.7145,1.6955,1.6566,2.5378,3.2262,3.3955,3.7171,4.2978,0.0,5.4228,5.4939,5.488,3.7487,0.0,1.4758,4.0426,4.2174,1.4954,1.3014,1.1077,0.862,0.8058,0.7377,0.6662,0.8861,0.8726,0.6647,0.7415,1.1362,1.8709,3.879,4.7865,0.0,0.0,3.9773,0.0,0.0,4.463,5.1692,5.1827,5.091,4.9567,5.0135,4.8883,4.6778,4.5383,3.905,3.2757,3.5582,3.2768,2.8299,2.6731,2.5921,2.3993,1.7548,1.6438,1.5257,0.8805,0.0,0.7155,0.0,0.0,0.0,0.0,0.0,0.0,0.0,0.0,0.0,0.0,0.0,0.0,0.0,0.0,0.0,0.0,0.0,0.0,0.0,0.0,0.0,0.0,-1.9448,-1.9448,-1.9415,-1.8958,-1.8581,-1.8288,-1.8955,-1.9359,-1.9377,-1.9452,-1.9372,-1.9372,-1.9372,-1.9372,-1.9372,-1.9372,-1.9372,-1.9372,-1.9372,-1.9381,-1.9731,-2.3569,-2.4102,-2.3039,-2.6915,-2.8745,-2.925,1.1528,1.125,1.1303,1.232,1.3696,1.5017,1.615,1.7446,1.7993,1.6979,3.8063,5.3217,5.323,5.3317,5.3425,5.3435,5.6246,5.8002,5.8006,3.7929,0.0,0.0,4.3666,4.5405,1.8884,0.0,0.0,1.0225,0.9921,0.8711,0.6699,0.8812,0.8644,0.6691,0.891,0.0,1.4693,3.771,4.8941,5.1178,5.0309,4.0525,2.5893,2.0342,3.199,5.1194,5.1195,5.1179,5.114,5.0904,5.0783,4.9764,4.3979,4.1028,3.9389,3.7833,3.6402,3.4247,3.002,2.6565,2.3231,1.882,1.6374,1.3993,1.0268,0.9646,0.9193,0.0,0.0,0.0,0.0,0.0,0.0,0.0,0.0,0.0,0.0,0.0,0.0,0.0,0.0,0.0,0.0,0.0,0.0,0.0,0.0,0.0,0.0,0.0,-1.9291,-1.9348,-1.8229,-1.8236,-1.9398,-1.9426,-1.9448,-1.9448,-1.9359,-1.9359,-1.9345,-1.9359,-1.9372,-1.9372,-1.9372,-1.9372,-1.9372,-1.9359,-1.9435,-1.9431,-1.9672,-2.3376,-2.841,-2.841,-2.9427,-3.0842,1.1645,1.1738,1.1979,1.2213,1.3297,1.4316,1.4945,1.7989,2.0524,2.1308,3.9993,5.3207,5.3208,5.5339,5.6765,5.6768,5.7491,0.0,0.0,0.0,0.0,4.3238,5.0858,5.1316,4.4144,4.3465,3.3828,1.4789,1.0424,0.7961,0.7431,0.8015,0.7668,0.6691,0.0,1.1145,1.4854,3.9683,5.0632,5.0131,3.7812,3.0269,2.7622,3.8263,4.602,5.1215,5.1149,5.1175,5.0615,4.6448,4.5066,4.4811,4.3016,4.0732,3.8383,3.6736,3.5001,3.345,3.2268,3.054,2.7918,2.275,2.0543,1.8197,1.3299,1.2091,1.174,0.0,0.0,0.0,0.0,0.0,0.0,0.0,0.0,0.0,0.0,0.0,0.0,0.0,0.0,0.0,0.0,0.0,0.0,0.0,0.0,0.0,0.0,0.0,0.0,-1.8116,-1.7767,-1.8203,-1.9428,-1.9374,-1.9412,-1.9429,-1.9442,-1.9394,-1.9448,-1.9408,-1.9372,-1.9372,-1.9372,-1.9372,-1.9359,-1.9401,-1.938,-1.9892,-2.4265,-2.777,-3.0187,-3.0187,-3.0482,-3.0876,1.2102,1.2637,0.0,1.2812,1.6193,1.9092,1.9477,1.8549,1.867,2.1261,4.1283,5.5302,5.528,5.6912,5.8019,5.7992,5.7992,0.0,5.7989,0.0,0.0,5.2915,5.3471,5.3489,5.3505,5.352,0.0,1.3774,1.0447,0.8441,0.7686,0.6916,0.6752,0.7113,0.0,1.0524,1.4297,3.0825,3.7843,3.701,2.7701,2.9283,0.0,4.9004,5.1356,4.8977,4.7959,4.7591,4.7097,4.4044,4.2956,4.2971,4.278,3.9489,3.5533,3.5106,3.4097,3.2964,3.2301,3.0451,2.8048,2.5008,2.2457,1.974,1.5686,1.4416,1.3824,1.2657,1.2582,1.2001,0.0,0.0,0.0,0.0,0.0,0.0,0.0,0.0,0.0,0.0,0.0,0.0,0.0,0.0,0.0,0.0,0.0,0.0,0.0,0.0,0.0,-1.7647,-1.7595,-1.9469,-2.3227,-2.3286,-2.1979,-1.9401,-2.2078,-2.194,-1.9401,-1.9421,-1.9372,-1.9372,-1.9372,-1.9421,-1.9428,-1.9407,-2.0911,-2.3727,-2.7809,-3.0074,-3.0952,-3.0952,-3.0954,-3.0898,1.2627,0.0,0.0,0.0,0.0,2.5701,2.6922,2.1353,1.7917,2.0433,3.9564,5.4239,5.7644,5.7644,5.7405,5.7412,5.7391,5.7391,5.7391,5.4929,5.3494,5.3494,5.3479,5.3483,5.3483,5.3517,4.0887,0.0,1.1902,0.9293,0.7328,0.6031,0.6255,0.7702,0.0,0.0,0.0,1.7642,2.1154,2.3533,2.3541,3.4398,5.0772,5.3099,5.0819,4.6055,4.4096,4.3296,4.3048,4.3033,4.2986,4.3037,4.3049,3.8404,3.3029,3.3393,3.3152,3.253,3.1228,2.8801,2.6591,2.6106,2.3445,2.0192,1.7754,1.674,1.5757,1.3882,1.2928,1.2063,1.0905,0.0,0.0,0.0,0.0,0.0,0.0,0.0,0.0,0.0,0.0,0.0,0.0,0.0,0.0,0.0,0.0,0.0,0.0,0.0,0.0,-1.7645,-1.854,-2.1017,-2.529,-2.7292,-2.5748,-2.0579,-2.5048,-2.4466,-1.9394,-1.9421,-1.9421,-1.9394,-1.9394,-1.9388,-1.9426,-2.0288,-2.3599,-2.843,-3.0167,-3.0883,-3.0898,-3.0898,-3.0898,-3.0898,1.2286,0.0,0.0,0.0,0.0,2.6821,3.2453,3.3953,3.2487,2.7161,2.6451,3.4486,5.5682,5.5794,5.4303,5.4275,5.4275,5.4314,5.4305,5.3818,5.3484,5.3481,5.3511,5.3456,5.3456,5.3542,4.9351,0.0,2.0341,0.8677,0.5569,0.6705,0.7398,0.7648,0.0,0.0,1.0966,1.3244,0.0,3.9118,3.9064,4.2262,4.7197,4.7677,4.7229,4.6264,4.5816,4.4543,4.2962,4.3037,4.2986,4.3025,4.2959,4.0268,3.6541,3.3112,3.1663,3.1228,3.0995,3.0528,2.9412,2.6712,2.5294,2.3722,2.0337,1.9345,1.8985,1.8308,1.7029,1.5304,1.2694,0.0,0.0,0.0,0.0,0.0,0.0,0.0,0.0,0.0,0.0,0.0,0.0,0.0,0.0,0.0,0.0,0.0,0.0,0.0,0.0,0.0,-2.3341,0.0,0.0,0.0,-2.7756,-2.6652,-2.2815,-2.0401,-1.9387,-1.9453,-1.9439,-1.9374,-1.9374,-1.9346,-1.9794,-2.4693,-2.7345,-2.8423,-3.0266,-3.0883,-3.0898,-3.0898,-3.0898,-3.0898,1.2639,0.0,0.0,0.0,0.0,3.2516,3.8828,4.4202,4.4912,3.7505,3.327,3.4545,4.4112,5.0145,5.3471,5.3507,5.3518,5.3532,5.3513,5.3518,5.3475,5.349,5.3544,5.2509,5.0314,5.0294,4.93,4.7316,2.1538,0.7631,0.5119,0.5957,0.6338,0.6337,0.0,0.7885,0.0,2.3301,3.4096,4.3057,4.428,4.5382,4.628,4.6283,4.5623,4.4767,4.5845,4.3361,3.9725,4.2179,4.2977,4.2953,4.3048,3.9679,3.5104,3.2175,3.1088,3.0898,3.0898,2.9667,2.7931,2.6349,2.4511,2.2506,2.0659,2.0013,1.972,1.9426,1.8169,1.5806,1.2078,0.8399,0.0,0.0,0.0,0.0,0.0,0.0,0.0,0.0,0.0,0.0,0.0,0.0,0.0,0.0,0.0,0.0,0.0,0.0,0.0,0.0,0.0,0.0,-1.734,0.0,-1.8902,-2.3705,-2.0728,-1.9346,-1.9487,-2.2623,-2.3987,-2.3966,-2.3966,-2.3994,-2.4226,-2.7103,-2.8287,-2.8426,-3.0241,-3.0908,-3.0898,-3.0898,-3.0898,-3.0898,0.0,1.4666,0.0,0.0,3.1158,3.7567,4.3654,5.0897,5.3649,4.7888,4.5689,4.29,3.8498,4.727,5.3751,5.4357,5.4414,5.4405,5.4428,5.4444,5.3989,5.3074,5.3003,5.1195,4.7405,4.7882,4.7856,4.7274,2.0629,0.6883,0.5663,0.5281,0.5305,0.5709,0.6724,1.1214,1.9096,3.6358,4.3751,4.3885,4.5616,4.6345,4.6165,4.4695,4.2818,4.1264,4.3294,4.066,3.6478,3.9792,4.1028,4.0924,4.0953,3.7429,3.3069,3.1334,3.0911,3.0898,3.0898,2.8664,2.6177,2.5797,2.3458,2.1177,2.051,2.0107,1.9813,1.9519,1.7843,1.5117,1.0511,0.8673,0.7031,0.0,0.0,0.0,0.0,0.0,0.0,0.0,0.0,0.0,0.0,0.0,0.0,0.0,0.0,0.0,0.0,0.0,0.0,0.0,0.0,-2.8313,-2.833,0.0,-1.3959,-2.1308,-2.1294,-2.1289,-2.1456,-2.6185,-2.829,-2.8344,-2.8344,-2.832,-2.8308,-2.8295,-2.8564,-2.9007,-3.0344,-3.0932,-3.0898,-3.0898,-3.0898,-3.0898,0.0,0.0,0.0,0.0,3.4207,3.7461,4.4042,5.1112,5.5715,5.5754,5.5358,5.4667,5.3669,5.3585,5.4619,5.7271,5.7506,5.7506,5.7516,5.7489,5.5683,5.1598,5.1434,5.01,4.7339,4.9644,4.9664,4.7263,2.031,0.72,0.7423,0.5823,0.5955,0.7392,0.6097,1.9424,4.3085,4.511,4.5981,4.6031,4.6172,4.628,4.5625,3.9339,3.5804,3.4507,3.6289,3.6521,3.58,3.4733,3.4318,3.4258,3.4248,3.384,3.3069,3.1334,3.0911,3.0898,3.0898,2.922,2.7038,2.5012,2.3902,2.2835,2.1067,2.0401,2.0107,1.9813,1.7138,1.3422,0.8847,0.8917,0.7766,0.2116,0.0,0.0,0.0,0.0,0.0,0.0,0.0,0.0,0.0,0.0,0.0,0.0,0.0,0.0,0.0,0.0,0.0,-2.7984,0.0,-2.8274,-2.8347,-2.6923,-2.6597,-2.7442,-2.7492,-2.7511,-2.7488,-2.8057,-2.8308,-2.8272,-2.8272,-2.8252,-2.8252,-2.8327,-2.918,-3.065,-3.0804,-3.0932,-3.0898,-3.0898,-3.0898,-3.0898,2.8166,2.7095,2.8853,3.8463,4.0478,4.3169,5.0355,5.3855,5.569,5.579,5.5928,5.5724,5.4892,5.4828,5.5662,5.7694,5.5455,5.3858,5.3853,5.384,5.3052,5.1327,5.1212,5.1452,5.2057,5.3034,5.3131,5.2059,4.1229,2.6088,0.7241,0.5855,0.5605,0.6856,2.0066,3.2817,4.434,4.4303,4.4255,4.4277,4.428,4.2576,3.9787,3.7019,3.5531,3.5004,3.5746,3.603,3.5878,3.525,3.4219,3.3395,3.3375,3.3434,3.3095,3.143,3.0911,3.0898,3.0898,3.0287,2.8944,2.6089,2.3746,2.1895,2.1135,2.0863,2.0563,1.9721,1.6912,1.3498,0.9669,0.9421,0.9022,0.6665,0.0,0.0,0.0,0.0,0.0,0.0,0.0,0.0,0.0,0.0,0.0,0.0,0.0,0.0,0.0,0.0,0.0,-1.3708,0.0,-1.8215,-2.8161,-2.8329,-2.831,-2.8301,-2.834,-2.8269,-2.8242,-2.8242,-2.8291,-2.8301,-2.8301,-2.8301,-2.834,-2.8301,-2.9283,-3.0862,-3.0928,-3.0878,-3.0898,-3.0898,-3.0898,-3.0898,3.6141,3.4622,3.5985,4.5492,4.5183,4.6173,5.3831,5.5088,5.5024,5.496,5.5203,5.5231,5.4677,5.4927,5.5262,5.5854,5.3039,5.1219,5.1184,5.1181,5.1576,5.2305,5.2407,5.3264,5.5159,5.5213,5.5232,5.5245,5.3471,3.6892,0.7148,1.2789,1.5414,1.611,3.2446,4.0549,4.1922,4.066,4.019,4.0182,4.0195,3.8573,3.5981,3.5962,3.6043,3.5996,3.6032,3.5953,3.5933,3.5969,3.5225,3.4011,3.3583,3.3375,3.3112,3.1386,3.0868,3.0898,3.0918,3.0892,2.9915,2.5676,2.2821,2.1056,2.1132,2.1108,2.0766,1.9655,1.6877,1.3641,1.0339,0.9798,0.9768,0.9843,0.425,0.0,0.0,0.0,0.0,0.0,0.0,0.0,-0.0417,0.0,0.0,0.0,0.0,0.0,0.0,0.0,0.0,0.0,0.0,0.0,-2.8109,-2.8269,-2.8301,-2.8301,-2.8301,-2.8301,-2.8301,-2.8301,-2.8301,-2.8301,-2.8301,-2.8301,-2.834,-2.8325,-2.9288,-3.0862,-3.0856,-3.0898,-3.0898,-3.0898,-3.0898,-3.0898,4.3738,3.858,3.7366,5.1426,4.704,4.4205,5.2277,5.3565,5.3789,5.4493,5.464,5.4915,5.5564,5.4429,5.2923,5.144,5.1233,5.1213,5.1214,5.1208,5.2396,5.5038,5.5206,5.522,5.5219,5.5201,5.5245,5.5209,4.9338,3.2909,0.7503,2.917,3.9253,3.9299,3.9559,3.9725,3.9474,3.5328,3.3472,3.3475,3.3513,3.4527,3.5952,3.5973,3.6016,3.6016,3.6016,3.6016,3.5976,3.6048,3.5977,3.5671,3.3992,3.3457,3.304,3.1321,3.0901,3.0934,3.0859,3.0892,2.9319,2.2793,2.1121,2.1109,2.1109,2.1051,2.0795,1.9693,1.6796,1.3586,1.0436,0.975,0.9771,0.9833,0.4281,-0.2033,0.0,0.0,0.0,0.0,-0.3691,-0.0069,-0.0,0.0,0.0,0.0,0.0,0.0,0.0,0.0,0.0,-1.8856,-0.9031,0.0,-2.8178,-2.8269,-2.8301,-2.8301,-2.8301,-2.8301,-2.8301,-2.8301,-2.8301,-2.8301,-2.8301,-2.8301,-2.834,-2.8325,-2.9288,-3.0862,-3.0856,-3.0898,-3.0898,-3.0898,-3.0898,-3.0898,5.1025,4.9334,4.9099,5.4095,5.2744,5.205,5.5102,5.5506,5.5343,5.4894,5.4836,5.4629,5.4052,5.4228,5.3734,5.2211,5.1563,5.1244,5.1187,5.2941,5.4285,5.5155,5.5201,5.5196,5.5213,5.1232,4.9171,4.914,4.7188,4.0478,2.9427,3.6452,3.9707,3.9544,3.5474,3.4357,3.5189,3.2749,3.2392,3.3436,3.472,3.5495,3.6037,3.5975,3.6016,3.6016,3.6016,3.6016,3.5996,3.6034,3.6048,3.5653,3.395,3.3369,3.3314,3.271,3.1799,3.0898,3.0918,3.0892,2.9301,2.2778,2.1121,2.1109,2.1109,1.7043,1.4524,1.8606,1.5069,1.0934,0.9476,0.9231,0.7826,0.3755,0.1312,-0.2095,-0.8111,0.0,-0.8944,-0.8871,-0.4741,-0.1879,0.0,-0.6084,0.0,0.0,0.0,0.0,0.0,0.0,0.0,0.0,-2.0083,0.0,-2.8222,-2.8269,-2.8301,-2.8301,-2.8301,-2.8301,-2.8301,-2.8301,-2.8301,-2.8301,-2.8301,-2.8301,-2.834,-2.8325,-2.9288,-3.0862,-3.0856,-3.0898,-3.0898,-3.0898,-3.0898,-3.0898,5.5144,5.4432,5.4049,5.4711,5.3859,5.3315,5.4001,5.3908,5.3575,5.2826,5.2765,5.2702,5.2492,5.328,5.3589,5.3104,5.2388,5.217,5.2653,5.4215,5.4216,5.1925,5.1843,5.185,5.182,4.8252,4.628,4.6356,4.627,4.4863,4.211,3.8178,3.6379,3.6219,3.2549,3.2155,3.435,3.3233,3.3431,3.4406,3.5559,3.6028,3.6012,3.5937,3.6016,3.6016,3.6016,3.6016,3.6016,3.6016,3.5936,3.5811,3.4668,3.3867,3.3334,3.269,3.168,3.0918,3.0918,3.0914,2.9276,2.2763,2.1053,2.1128,2.1096,1.5431,1.1195,1.5022,1.2569,0.8955,0.6085,0.5533,0.4305,0.0559,0.0,-0.1331,-0.5017,-0.7521,-0.8663,0.0,0.0,0.0,0.0,-0.8968,-1.3669,0.0,0.0,0.0,0.0,0.0,0.0,-2.265,-2.6396,-2.8285,-2.8258,-2.8261,-2.8301,-2.8301,-2.8301,-2.8301,-2.8301,-2.8301,-2.8301,-2.8301,-2.8301,-2.8301,-2.834,-2.8325,-2.9288,-3.0862,-3.0856,-3.0937,-3.0954,-3.084,-3.0917,-3.0954,5.632,5.4523,5.3155,5.3773,5.1516,4.9673,5.0272,4.9823,4.9404,4.9404,4.9404,4.9761,5.0986,5.1548,5.2263,5.3324,5.3284,5.3642,5.4818,5.472,5.2124,4.6552,4.6304,4.6308,4.6347,4.6257,4.6239,4.6255,4.6301,4.608,4.5349,3.5763,3.1271,3.12,3.129,3.3049,3.5992,3.6002,3.6022,3.6062,3.5984,3.6032,3.6016,3.6016,3.6016,3.6016,3.6016,3.6016,3.6016,3.6016,3.5955,3.5984,3.5941,3.4699,3.2917,3.1302,3.0863,3.0914,3.0859,3.0917,2.9453,2.3293,2.1477,2.1105,2.1109,1.5732,1.0471,0.9921,0.9799,0.7806,0.1164,0.0,0.0,0.0,0.0,0.0,0.0,-0.5047,-0.8091,-0.6459,-0.6376,-0.6642,-0.7012,-1.3493,-1.7741,0.0,0.0,0.0,0.0,0.0,-2.2109,-2.8104,-2.832,-2.8358,-2.8301,-2.8301,-2.8301,-2.8301,-2.8301,-2.8301,-2.8301,-2.8301,-2.8301,-2.8301,-2.8301,-2.8301,-2.834,-2.8306,-2.9361,-3.0954,-3.0952,-3.0876,-3.0829,-3.0799,-3.0856,-3.0888,5.5572,5.4698,5.3893,5.4044,5.2678,5.1558,5.1708,5.1169,5.075,5.075,4.994,4.9426,4.9747,4.898,4.8623,4.895,5.107,5.2223,5.1731,4.9657,4.7758,4.6383,4.632,4.6349,4.6289,4.6289,4.6351,4.6242,4.6365,4.3612,3.8412,3.5935,3.473,3.479,3.4843,3.5241,3.6022,3.6043,3.6051,3.6051,3.6014,3.5957,3.6016,3.6016,3.6016,3.6016,3.6016,3.6016,3.6016,3.6016,3.5976,3.6012,3.6022,3.3877,3.1415,3.1035,3.0895,3.0879,3.0918,3.0953,3.0577,2.8967,2.4812,2.1109,2.1133,1.5768,1.0566,0.9956,0.9761,0.7746,0.1171,0.0,0.0,0.0,0.0,0.0,0.0,-0.3983,-0.675,-0.6321,-0.7482,-1.0026,-1.4456,-1.7332,-1.9003,0.0,0.0,0.0,-1.5486,-1.7944,-2.2107,-2.805,-2.8346,-2.8252,-2.8301,-2.8301,-2.8301,-2.8301,-2.8301,-2.8301,-2.8301,-2.8301,-2.8301,-2.8301,-2.8301,-2.8301,-2.832,-2.8276,-2.9361,-3.0942,-3.0917,-3.0863,-3.0697,-2.9431,-2.9814,-3.0849,5.522,5.4401,5.3743,5.3743,5.2127,5.087,5.087,4.9542,4.8521,4.8521,4.7433,4.6866,4.7531,4.6995,4.6487,4.6447,4.8553,4.9931,5.0078,4.7679,4.636,4.6315,4.6339,4.6301,4.6301,4.6334,4.6266,4.6231,4.3171,3.9711,3.601,3.6012,3.5942,3.6032,3.5997,3.6023,3.6043,3.5995,3.6016,3.6016,3.6016,3.6016,3.6016,3.6016,3.6016,3.6016,3.6016,3.6016,3.6016,3.6016,3.5955,3.5944,3.6038,3.367,3.0859,3.0911,3.0918,3.0898,3.0898,3.0917,3.0238,2.7228,2.3698,2.1062,2.1109,1.5731,1.0665,1.025,1.0019,0.7817,0.1186,0.0,0.0,0.0,0.0,-0.0725,-0.2583,-0.4826,-0.6565,-0.7422,-0.852,-1.1697,-1.7777,-1.9,-1.944,-1.9403,-1.9405,0.0,-1.9376,-1.937,-2.2154,-2.8125,-2.8288,-2.8301,-2.8301,-2.8301,-2.8301,-2.8301,-2.8301,-2.8301,-2.8301,-2.8301,-2.8301,-2.8301,-2.8301,-2.8301,-2.832,-2.8308,-2.8906,-2.9729,-2.9668,-3.0234,-3.0671,-2.8991,-2.8897,-2.98,5.494,5.3952,5.3144,5.3054,5.102,4.9374,4.9073,4.7073,4.5413,4.5115,4.3975,4.3602,4.4814,4.4809,4.4672,4.4467,4.5502,4.6705,4.8101,4.6804,4.6127,4.625,4.6301,4.6255,4.6334,4.5329,4.4792,4.4724,3.8845,3.5938,3.6037,3.5955,3.6016,3.6016,3.5976,3.5937,3.5937,3.6034,3.5995,3.6014,3.6073,3.6054,3.6014,3.6073,3.6054,3.5995,3.5995,3.5975,3.5936,3.5936,3.6057,3.5921,3.5387,3.3243,3.0876,3.0839,3.0898,3.0898,3.0898,3.084,2.9275,2.2778,2.1051,2.1062,2.1109,1.5762,1.0714,1.0746,0.9462,0.6659,0.1082,0.0,0.0,0.0,0.0,-0.1433,-0.5694,-0.6571,-0.7252,-0.8702,-1.0281,-1.3398,-1.881,-1.9448,-1.9361,-1.9345,-1.9372,-1.9372,-1.9372,-1.9384,-2.21,-2.8163,-2.8288,-2.8301,-2.8301,-2.8301,-2.8301,-2.8301,-2.8301,-2.8301,-2.8301,-2.8301,-2.8301,-2.8301,-2.8301,-2.8301,-2.832,-2.8269,-2.8257,-2.8295,-2.829,-2.9199,-3.0356,-2.8868,-2.8344,-2.8539,5.3713,5.3324,5.2995,5.2456,5.1079,4.9515,4.7969,4.6871,4.5624,4.4031,4.2641,4.194,4.2126,4.1619,4.1307,4.1275,4.1808,4.2384,4.3022,4.3888,4.5043,4.627,4.6345,4.6362,4.6299,4.0545,3.7632,3.7542,3.6527,3.6003,3.6034,3.5976,3.6016,3.6016,3.6012,3.6028,3.6008,3.5977,3.597,3.601,3.6043,3.5984,3.601,3.6043,3.5964,3.597,3.597,3.6073,3.5961,3.5961,3.5956,3.5513,3.2617,3.1302,3.0876,3.0839,3.0898,3.0898,3.0898,3.0934,2.9319,2.2702,2.1056,2.1062,2.1109,1.5744,1.069,1.0756,0.582,0.1236,0.0242,0.0,0.0,0.0,0.0,-0.1452,-0.5721,-0.7604,-0.8634,-0.889,-1.4187,-1.8352,-1.9336,-1.9386,-1.9448,-1.9359,-1.9372,-1.9372,-1.9372,-1.9384,-2.21,-2.8163,-2.8288,-2.8301,-2.8301,-2.8301,-2.8301,-2.8301,-2.8301,-2.8301,-2.8301,-2.8301,-2.8301,-2.8301,-2.8301,-2.8301,-2.8301,-2.834,-2.8252,-2.8291,-2.8276,-2.8474,-2.8711,-2.8423,-2.8263,-2.8353,5.3384,5.2905,5.2546,5.2247,5.1109,4.9938,4.9027,4.6879,4.5183,4.4567,4.2451,4.1235,4.1851,4.1656,4.153,4.1806,4.2082,4.1916,4.1087,4.1541,4.2608,4.4425,4.2079,4.0747,4.0693,3.7686,3.6062,3.6068,3.6068,3.6051,3.6016,3.5956,3.5956,3.6055,3.5957,3.5491,3.4545,3.4662,3.4586,3.4605,3.4623,3.5162,3.5845,3.4987,3.4619,3.4544,3.4544,3.4606,3.4417,3.3564,3.3281,3.3001,3.1462,3.0882,3.0914,3.0859,2.8436,2.6388,2.9979,2.8282,2.4873,2.1825,2.1141,2.1062,2.1109,1.5774,1.0739,1.0725,0.4973,0.0,0.0,0.0,0.0,0.0,-0.1141,-0.2976,-0.5912,-0.8046,-0.9429,-0.9398,-1.527,-1.9421,-1.9439,-1.9399,-1.9372,-1.9372,-1.9372,-1.9372,-1.9372,-1.9384,-2.21,-2.8163,-2.8288,-2.8301,-2.8301,-2.8301,-2.8301,-2.8301,-2.8301,-2.8301,-2.8301,-2.8301,-2.8301,-2.8301,-2.8301,-2.8301,-2.8301,-2.8301,-2.8301,-2.8301,-2.8349,-2.831,-2.8301,-2.8349,-2.83,-2.83,5.2935,5.2576,5.2336,5.2037,5.1139,5.0299,4.9872,4.6995,4.4995,4.5039,4.2632,4.1279,4.2233,4.2459,4.271,4.3137,4.3288,4.2633,4.0949,3.9867,4.0144,4.1651,3.8124,3.5942,3.5944,3.5964,3.6068,3.6016,3.6016,3.6016,3.6035,3.6051,3.5073,3.3266,3.3001,3.2236,3.0923,3.099,3.0955,3.0955,3.0906,3.1702,3.3025,3.3348,3.335,3.3386,3.2957,3.2777,3.2642,3.1339,3.087,3.0901,3.0901,3.0934,3.0898,3.0898,2.6253,2.2198,2.7263,2.4976,2.1148,2.1078,2.1101,2.1062,2.1109,1.5774,1.076,1.0699,0.5013,0.0,0.0,0.0,0.0,0.0,-0.25,-0.5017,-0.6899,-0.8648,-1.0327,-1.1902,-1.6356,-1.9394,-1.9359,-1.9372,-1.9372,-1.9372,-1.9372,-1.9372,-1.9372,-1.9384,-2.2149,-2.8066,-2.8319,-2.8301,-2.8301,-2.8301,-2.8301,-2.8301,-2.8301,-2.8301,-2.8301,-2.8301,-2.8301,-2.8301,-2.8301,-2.8301,-2.8301,-2.8301,-2.8301,-2.8301,-2.8301,-2.8301,-2.8301,-2.8301,-2.8301,-2.8301,5.1738,5.2306,5.2725,5.1498,5.1199,5.0525,4.8711,4.7123,4.5669,4.4412,4.2982,4.2258,4.2861,4.3363,4.3689,4.374,4.4217,4.377,4.2305,3.9758,3.8291,3.8167,3.6749,3.6054,3.5957,3.5957,3.6016,3.5989,3.5989,3.6008,3.6028,3.6047,3.2276,2.5437,2.4395,2.3806,2.363,2.3658,2.3705,2.3719,2.368,2.3771,2.4584,3.0954,3.3436,3.3146,3.1577,3.1077,3.1046,3.0888,3.0895,3.084,3.084,3.0937,3.0898,3.0898,2.6287,2.1188,2.1728,2.1436,2.1051,2.1155,2.1096,2.1062,2.1109,1.5774,1.076,1.0699,0.5052,0.0,0.0,0.0,0.0,0.0,-0.3892,-0.7489,-0.9331,-0.9694,-1.2015,-1.7954,-1.9116,-1.9376,-1.9372,-1.9372,-1.9372,-1.9372,-1.9372,-1.9372,-1.9372,-1.9384,-2.2088,-2.8125,-2.832,-2.8301,-2.8301,-2.8301,-2.8301,-2.8301,-2.8301,-2.8301,-2.8301,-2.8301,-2.8301,-2.8301,-2.8301,-2.8301,-2.8301,-2.8301,-2.8301,-2.8301,-2.8301,-2.8301,-2.8301,-2.8301,-2.8301,-2.8301,5.1439,5.1618,5.1798,5.1319,5.1229,5.1071,5.081,4.8211,4.6358,4.661,4.4011,4.2635,4.3865,4.4192,4.4593,4.5296,4.5547,4.4522,4.1752,4.1352,3.9757,3.6769,3.6265,3.6016,3.6016,3.5955,3.6071,3.5937,3.1213,2.8886,2.8903,2.8217,2.628,2.3584,2.3077,2.2859,2.2835,2.2876,2.2836,2.2836,2.2903,2.2846,2.3168,2.5851,2.9577,3.3144,3.1493,3.0901,3.0957,3.0957,3.0879,3.0898,3.0898,3.0898,3.0937,3.0897,2.9168,2.6265,2.2267,2.1061,2.1128,2.1082,2.1049,2.1041,2.1123,1.5704,1.0692,1.0713,0.5059,0.0,0.0,0.0,0.0,0.0,-0.4947,-0.9033,-0.9684,-0.98,-1.2168,-1.8589,-1.9351,-1.9426,-1.9372,-1.9372,-1.9372,-1.9372,-1.9372,-1.9372,-1.9372,-2.2941,-2.597,-2.8194,-2.8301,-2.8301,-2.8301,-2.8301,-2.8301,-2.8301,-2.8301,-2.8301,-2.8301,-2.8301,-2.8301,-2.8301,-2.8301,-2.8301,-2.8301,-2.8301,-2.8301,-2.8301,-2.8301,-2.8301,-2.8301,-2.8301,-2.8301,-2.8301,5.1379,5.1379,5.1468,5.1259,5.1229,5.116,5.1291,4.8553,4.6743,4.737,4.4718,4.3162,4.4493,4.4618,4.4686,4.4957,4.5031,4.3868,4.0964,4.1729,4.0452,3.613,3.6032,3.5973,3.5973,3.6023,3.5771,3.5237,2.995,2.6234,2.4061,2.327,2.2846,2.2876,2.2956,2.2942,2.289,2.289,2.289,2.2876,2.2512,2.2311,2.2386,2.2387,2.5391,2.9665,3.0522,3.0907,3.0918,3.0918,3.0898,3.0898,3.0898,3.0898,3.0937,3.0917,3.0125,2.8577,2.5178,2.2688,2.1109,2.1109,2.1089,2.0541,1.8277,1.4159,1.0671,1.0706,0.5039,0.0,0.0,0.0,0.0,0.0,-0.5546,-0.9781,-0.9778,-0.9752,-1.2209,-1.8627,-1.9415,-1.9372,-1.9372,-1.9372,-1.9372,-1.9372,-1.9372,-1.9448,-1.9381,-2.5093,-2.8306,-2.833,-2.834,-2.8301,-2.8301,-2.8301,-2.8301,-2.8301,-2.8301,-2.8301,-2.8301,-2.8301,-2.8301,-2.8301,-2.8301,-2.8301,-2.8301,-2.8301,-2.8301,-2.8301,-2.8301,-2.8301,-2.8301,-2.8301,-2.8301,-2.8301,5.1468,5.1738,5.1977,5.1319,5.1229,5.0698,4.9357,4.8038,4.6824,4.5975,4.4668,4.4016,4.4568,4.4618,4.4011,4.2425,4.2305,4.168,4.005,4.0626,3.9599,3.6196,3.599,3.5942,3.5942,3.5942,3.5132,3.3382,3.3382,2.9833,2.3023,2.3023,2.3006,2.289,2.289,2.289,2.289,2.289,2.289,2.2745,2.1542,2.1095,2.1056,2.1072,2.1093,2.1936,2.8518,3.092,3.0834,3.0879,3.0898,3.0898,3.0898,3.0898,3.0898,3.0898,2.8545,2.6709,2.9934,2.6042,2.1109,2.1109,2.1089,1.9261,1.233,1.0684,1.0677,1.0685,0.4999,0.0,0.0,0.0,0.0,0.0,-0.5536,-0.9761,-0.9829,-0.982,-1.2209,-1.8627,-1.9415,-1.9372,-1.9372,-1.9372,-1.9372,-1.9372,-1.9372,-1.9381,-1.9367,-2.4974,-2.8271,-2.8295,-2.833,-2.8301,-2.8301,-2.8301,-2.8301,-2.8301,-2.8301,-2.8301,-2.8301,-2.8301,-2.8301,-2.8301,-2.8301,-2.8301,-2.8301,-2.8301,-2.8301,-2.8301,-2.8301,-2.8301,-2.8301,-2.8301,-2.8301,-2.8301,5.1289,5.1379,5.1439,5.1259,5.0383,4.9824,4.9894,4.7501,4.5662,4.5949,4.4421,4.3438,4.3991,4.4041,4.3961,4.3869,4.3894,4.3187,4.1289,3.7846,3.5851,3.5951,3.4772,3.4162,3.4162,3.4199,3.3926,3.3373,3.3412,3.2264,3.0223,3.032,2.7158,2.1674,2.1674,2.1674,2.1674,2.1674,2.1674,2.1661,2.1176,2.1098,2.1331,2.3627,2.4533,2.4778,2.6798,2.8957,3.0898,3.0918,3.0898,3.0898,3.0898,3.0898,3.0626,2.9065,2.7944,2.661,2.4608,2.2537,2.1053,2.1155,2.1149,1.923,1.229,1.0707,1.0593,1.0141,0.4709,0.0,0.0,0.0,0.0,0.0,-0.5536,-0.9761,-0.9829,-0.982,-1.2209,-1.8627,-1.9415,-1.9372,-1.9372,-1.9372,-1.9372,-1.9372,-1.9372,-1.9428,-1.9374,-2.1085,-2.3971,-2.8183,-2.834,-2.8301,-2.8301,-2.8301,-2.8301,-2.8301,-2.8301,-2.8301,-2.8301,-2.8301,-2.8301,-2.8301,-2.8301,-2.8301,-2.8301,-2.8301,-2.8301,-2.8301,-2.8301,-2.8301,-2.8301,-2.8301,-2.8301,-2.8301,5.1259,5.1229,5.1229,5.1229,5.0508,4.9922,4.9808,4.7959,4.661,4.6463,4.4853,4.3925,4.4284,4.3801,4.3362,4.3086,4.1705,4.0245,3.8716,3.5086,3.3296,3.3983,3.295,3.2416,3.242,3.2363,3.242,3.2363,2.9798,2.857,2.8503,2.8561,2.5856,2.1058,2.1058,2.1058,2.1058,2.1058,2.1058,2.1045,2.1146,2.1093,2.1336,2.331,2.4425,2.5114,2.5786,2.7652,3.002,3.0645,3.0898,3.0898,3.0898,3.0898,3.0509,2.8473,2.7467,2.6215,2.2985,2.1477,2.0767,2.0557,2.073,1.9148,1.1988,1.0307,1.0202,0.9856,0.4527,0.0,0.0,0.0,0.0,0.0,-0.5536,-0.9761,-0.9829,-0.9847,-1.2243,-1.8639,-1.9351,-1.9426,-1.9372,-1.9372,-1.9372,-1.9372,-1.9372,-1.9367,-1.9426,-2.1683,-2.4599,-2.8199,-2.831,-2.8301,-2.8301,-2.8301,-2.8301,-2.8301,-2.8301,-2.8301,-2.8301,-2.8301,-2.8301,-2.8301,-2.8301,-2.8301,-2.8301,-2.8301,-2.8301,-2.8301,-2.8301,-2.8301,-2.8301,-2.8301,-2.8301,-2.8262,5.1349,5.1229,5.1229,5.1229,5.1105,5.0603,4.9357,4.9063,4.8539,4.7299,4.5818,4.4969,4.4969,4.3694,4.2227,4.0817,3.7618,3.5104,3.3886,3.2942,3.1978,3.0918,3.0898,3.0936,3.0895,3.087,3.0594,2.9989,2.3983,2.1096,2.1109,2.1109,2.1109,2.1109,2.1109,2.1109,2.1109,2.1109,2.1109,2.1109,2.1109,2.1109,2.1109,2.1235,2.2341,2.4054,2.5619,2.7194,2.8902,3.0392,3.0898,3.0879,3.0723,3.0587,3.0334,2.8455,2.685,2.5351,2.3916,2.1968,2.0249,1.9325,1.9872,1.8692,1.1425,0.9771,0.979,0.9837,0.4589,0.0,0.0,0.0,0.0,0.0,-0.5536,-0.9761,-0.9829,-0.9761,-1.1935,-1.7851,-1.9024,-1.9389,-1.9386,-1.9372,-1.9372,-1.9372,-1.9372,-1.9359,-1.9448,-2.4608,-2.7753,-2.8274,-2.8288,-2.832,-2.8301,-2.8301,-2.8301,-2.8301,-2.8301,-2.8301,-2.8301,-2.8301,-2.8301,-2.8301,-2.8301,-2.8301,-2.8301,-2.8301,-2.8301,-2.8301,-2.8301,-2.8301,-2.8301,-2.8301,-2.8262,-2.8416,5.1416,5.1229,5.1229,5.1229,5.0287,4.9553,4.9259,4.8239,4.7402,4.7094,4.5469,4.4362,4.4362,4.2746,4.1572,4.1221,4.0049,3.7966,3.484,3.4575,3.3565,3.1015,3.0898,3.0957,3.0858,3.093,2.8371,2.3185,2.1782,2.1047,2.1109,2.1109,2.1109,2.1109,2.1109,2.1109,2.1109,2.1109,2.1109,2.1109,2.1109,2.1109,2.1235,2.2591,2.4054,2.5741,2.7314,2.892,3.0392,3.0762,3.0898,3.0587,2.9156,2.8695,2.8038,2.4887,2.3738,2.3021,2.1427,2.0536,1.9601,1.7769,1.6703,1.4922,1.0723,0.9761,0.9781,0.9821,0.4564,0.0,0.0,0.0,0.0,0.0,-0.5536,-0.9761,-0.9829,-0.9761,-1.0307,-1.1717,-1.6279,-1.9389,-1.9386,-1.9372,-1.9372,-1.9372,-1.9372,-1.9408,-1.9448,-2.0629,-2.3424,-2.8153,-2.8257,-2.83,-2.8301,-2.8301,-2.8301,-2.8301,-2.8301,-2.8301,-2.8301,-2.8301,-2.8301,-2.8301,-2.8301,-2.8301,-2.8301,-2.8301,-2.8301,-2.8301,-2.8301,-2.8301,-2.8301,-2.8301,-2.8298,-2.8854,5.1386,5.1229,5.1229,5.1229,5.0603,5.0074,4.978,4.9021,4.8488,4.8201,4.6162,4.4657,4.4657,4.2708,4.1229,4.0978,3.9989,3.8527,3.626,3.425,3.2538,3.1027,3.0897,3.0898,3.0898,3.0873,2.7642,2.1046,2.1067,2.1064,2.1061,2.1056,2.1109,2.1109,2.1109,2.1109,2.1109,2.1109,2.1109,2.1109,2.1109,2.1109,2.1235,2.209,2.3435,2.5024,2.5757,2.7586,2.9464,3.0083,3.0254,2.9986,2.821,2.7676,2.7044,2.37,2.2706,2.232,2.0534,1.992,1.9391,1.7422,1.5353,1.3122,1.0371,0.9815,0.8867,0.5778,0.2336,0.0,0.0,0.0,0.0,0.0,-0.5536,-0.9761,-0.9829,-0.9761,-0.9813,-0.9744,-1.5505,-1.9389,-1.9386,-1.9372,-1.9372,-1.9372,-1.9372,-1.9435,-1.9415,-1.9421,-2.0783,-2.3933,-2.6774,-2.8327,-2.828,-2.8252,-2.8301,-2.8301,-2.8301,-2.8301,-2.8301,-2.8301,-2.8301,-2.8281,-2.8298,-2.8325,-2.8305,-2.8316,-2.8341,-2.8341,-2.8341,-2.8341,-2.8341,-2.8341,-2.9971,-3.2544,5.182,5.1484,5.1269,5.1148,5.0963,5.069,5.0152,5.0062,4.9883,4.9344,4.708,4.5525,4.5525,4.2992,4.1064,4.0425,3.9242,3.8144,3.718,3.4185,3.1912,3.0903,3.0858,3.0859,3.0859,3.0945,2.8232,2.2826,2.2754,2.2199,2.1064,2.1141,2.1109,2.1109,2.1109,2.1122,2.1149,2.1122,2.1122,2.1149,2.1122,2.1109,2.1096,2.1056,2.202,2.3484,2.3424,2.5261,2.7919,2.9218,2.957,2.9327,2.7391,2.6786,2.6197,2.3027,2.2201,2.1787,2.0142,1.9483,1.8931,1.702,1.4667,1.2371,1.0187,0.9768,0.8088,0.2076,0.0367,0.0,0.0,0.0,0.0,0.0,-0.5536,-0.9761,-0.9829,-1.0755,-1.1431,-1.147,-1.6138,-1.9376,-1.9372,-1.9372,-1.9372,-1.9372,-1.9372,-1.9372,-1.9372,-1.9415,-1.938,-1.9412,-2.4233,-2.7322,-2.8327,-2.831,-2.8301,-2.8301,-2.8301,-2.8301,-2.8301,-2.8301,-2.8262,-2.827,-2.8252,-2.8836,-2.9704,-2.9656,-2.9711,-2.9711,-2.9711,-2.9711,-2.969,-2.9727,-3.256,-3.6383,5.3573,5.2465,5.1585,5.0999,5.018,4.9494,4.9404,4.9404,4.9374,4.9284,4.7478,4.6268,4.6268,4.3476,4.1126,3.9901,3.959,3.8445,3.5727,3.7472,3.6185,3.1169,3.0878,3.0953,3.0953,3.094,3.0513,2.9544,2.9564,2.6673,2.1056,2.1096,2.1109,2.1109,2.1109,2.1062,2.1041,2.1036,2.1062,2.1041,2.1162,2.1109,2.1082,2.0828,2.1821,2.311,2.2947,2.4809,2.7555,2.9122,2.957,2.9045,2.5918,2.4906,2.4269,2.08,1.9829,1.9815,1.9555,1.8466,1.7009,1.5322,1.3636,1.1807,1.0003,0.9666,0.872,0.5061,0.193,0.0,0.0,0.0,0.0,0.0,-0.5536,-0.9761,-0.9829,-1.457,-1.8117,-1.8114,-1.8907,-1.9386,-1.9372,-1.9372,-1.9372,-1.9372,-1.9372,-1.9372,-1.9372,-1.9448,-1.9374,-1.9417,-2.0226,-2.308,-2.8233,-2.832,-2.8301,-2.8301,-2.8301,-2.8301,-2.8301,-2.8301,-2.8318,-2.8296,-2.8341,-3.0927,-3.5277,-3.5307,-3.5283,-3.5283,-3.5283,-3.5283,-3.5337,-3.5254,-3.5746,-3.6382,5.3017,5.1911,5.0969,5.0114,4.9583,4.9134,4.8775,4.8716,4.8596,4.8207,4.6841,4.5821,4.5821,4.3287,4.0792,3.8662,3.8477,3.7583,3.5398,3.5981,3.5489,3.3476,3.1761,2.9186,2.5473,2.5416,2.5397,2.5397,2.5405,2.3923,2.1034,2.1042,2.1109,2.1109,2.1109,2.1062,2.0785,1.6914,1.7607,2.1054,2.069,2.0658,2.0677,2.1366,2.1619,2.1576,2.2068,2.3224,2.4565,2.5839,2.6346,2.5975,2.365,2.2938,2.2451,2.0081,1.9372,1.9203,1.8199,1.745,1.634,1.3731,1.261,1.1719,0.9995,0.9646,0.8118,0.3231,0.0955,0.0,0.0,0.0,-0.1205,-0.4851,-0.7917,-0.9795,-0.9815,-1.5304,-1.943,-1.9338,-1.9439,-1.9372,-1.9372,-1.9372,-1.9372,-1.9372,-1.9367,-1.9401,-1.9401,-1.9394,-1.9357,-1.9375,-2.2577,-2.559,-2.8319,-2.8272,-2.8301,-2.8301,-2.8301,-2.8301,-2.8281,-2.8278,-2.8271,-2.8445,-3.1512,-3.4193,-3.6406,-3.6431,-3.6405,-3.6405,-3.6405,-3.6405,-3.638,-3.6376,-3.6397,-3.6372]}]]